<?xml version="1.0" encoding="UTF-8" standalone="no" ?>
<gpx xmlns="http://www.topografix.com/GPX/1/1" xmlns:xsi="http://www.w3.org/2001/XMLSchema-instance" xsi:schemaLocation="http://www.topografix.com/GPX/1/1 http://www.topografix.com/GPX/1/1/gpx.xsd" version="1.1" creator="VisuGPX - https://www.visugpx.com">
  <metadata>
    <name>Forest Trail nocturne 06/02/16 (la Météore) 18km</name>
    <desc><![CDATA[Forest Trail nocturne 06/02/16 (la Météore) 18km]]></desc>
  </metadata>
  <trk>
    <name><![CDATA[Lévignac Course à pied]]></name>
    <desc><![CDATA[Forest Trail La Meteore 6 Fevrier 2016]]></desc>
    <trkseg>
      <trkpt lat="43.667" lon="1.19412">
        <ele>136.19999694824</ele>
        <time>2016-02-06T18:31:22.000Z</time>
      </trkpt>
      <trkpt lat="43.66696" lon="1.19413">
        <ele>136.39999389648</ele>
        <time>2016-02-06T18:31:27.000Z</time>
      </trkpt>
      <trkpt lat="43.66691" lon="1.19404">
        <ele>136.60000610352</ele>
        <time>2016-02-06T18:31:32.000Z</time>
      </trkpt>
      <trkpt lat="43.66696" lon="1.19391">
        <ele>136.39999389648</ele>
        <time>2016-02-06T18:31:36.000Z</time>
      </trkpt>
      <trkpt lat="43.66705" lon="1.19379">
        <ele>136</ele>
        <time>2016-02-06T18:31:40.000Z</time>
      </trkpt>
      <trkpt lat="43.66721" lon="1.19362">
        <ele>135</ele>
        <time>2016-02-06T18:31:45.000Z</time>
      </trkpt>
      <trkpt lat="43.66724" lon="1.19358">
        <ele>134.80000305176</ele>
        <time>2016-02-06T18:31:47.000Z</time>
      </trkpt>
      <trkpt lat="43.66718" lon="1.19352">
        <ele>135</ele>
        <time>2016-02-06T18:31:50.000Z</time>
      </trkpt>
      <trkpt lat="43.66722" lon="1.19337">
        <ele>135</ele>
        <time>2016-02-06T18:31:55.000Z</time>
      </trkpt>
      <trkpt lat="43.66724" lon="1.19336">
        <ele>135</ele>
        <time>2016-02-06T18:31:56.000Z</time>
      </trkpt>
      <trkpt lat="43.66732" lon="1.1932">
        <ele>135.19999694824</ele>
        <time>2016-02-06T18:31:59.000Z</time>
      </trkpt>
      <trkpt lat="43.66741" lon="1.19302">
        <ele>134.80000305176</ele>
        <time>2016-02-06T18:32:03.000Z</time>
      </trkpt>
      <trkpt lat="43.66743" lon="1.19291">
        <ele>134.39999389648</ele>
        <time>2016-02-06T18:32:06.000Z</time>
      </trkpt>
      <trkpt lat="43.66747" lon="1.19277">
        <ele>133.60000610352</ele>
        <time>2016-02-06T18:32:10.000Z</time>
      </trkpt>
      <trkpt lat="43.66755" lon="1.19268">
        <ele>133</ele>
        <time>2016-02-06T18:32:13.000Z</time>
      </trkpt>
      <trkpt lat="43.66756" lon="1.19261">
        <ele>132.80000305176</ele>
        <time>2016-02-06T18:32:15.000Z</time>
      </trkpt>
      <trkpt lat="43.66755" lon="1.19258">
        <ele>132.60000610352</ele>
        <time>2016-02-06T18:32:17.000Z</time>
      </trkpt>
      <trkpt lat="43.66748" lon="1.19252">
        <ele>132.39999389648</ele>
        <time>2016-02-06T18:32:20.000Z</time>
      </trkpt>
      <trkpt lat="43.66743" lon="1.19245">
        <ele>132.19999694824</ele>
        <time>2016-02-06T18:32:22.000Z</time>
      </trkpt>
      <trkpt lat="43.66729" lon="1.19232">
        <ele>131.60000610352</ele>
        <time>2016-02-06T18:32:27.000Z</time>
      </trkpt>
      <trkpt lat="43.66722" lon="1.19226">
        <ele>131.60000610352</ele>
        <time>2016-02-06T18:32:30.000Z</time>
      </trkpt>
      <trkpt lat="43.66727" lon="1.19214">
        <ele>131.80000305176</ele>
        <time>2016-02-06T18:32:34.000Z</time>
      </trkpt>
      <trkpt lat="43.66731" lon="1.19209">
        <ele>132</ele>
        <time>2016-02-06T18:32:35.000Z</time>
      </trkpt>
      <trkpt lat="43.66742" lon="1.19194">
        <ele>131.80000305176</ele>
        <time>2016-02-06T18:32:40.000Z</time>
      </trkpt>
      <trkpt lat="43.66752" lon="1.19182">
        <ele>131.19999694824</ele>
        <time>2016-02-06T18:32:44.000Z</time>
      </trkpt>
      <trkpt lat="43.66755" lon="1.19177">
        <ele>131</ele>
        <time>2016-02-06T18:32:46.000Z</time>
      </trkpt>
      <trkpt lat="43.66766" lon="1.19167">
        <ele>130.39999389648</ele>
        <time>2016-02-06T18:32:50.000Z</time>
      </trkpt>
      <trkpt lat="43.66783" lon="1.19154">
        <ele>129.60000610352</ele>
        <time>2016-02-06T18:32:55.000Z</time>
      </trkpt>
      <trkpt lat="43.66793" lon="1.19141">
        <ele>128.60000610352</ele>
        <time>2016-02-06T18:33:00.000Z</time>
      </trkpt>
      <trkpt lat="43.66809" lon="1.19123">
        <ele>127.59999847412</ele>
        <time>2016-02-06T18:33:06.000Z</time>
      </trkpt>
      <trkpt lat="43.66825" lon="1.19106">
        <ele>126.59999847412</ele>
        <time>2016-02-06T18:33:12.000Z</time>
      </trkpt>
      <trkpt lat="43.6684" lon="1.1909">
        <ele>125.80000305176</ele>
        <time>2016-02-06T18:33:18.000Z</time>
      </trkpt>
      <trkpt lat="43.66847" lon="1.19075">
        <ele>125.40000152588</ele>
        <time>2016-02-06T18:33:22.000Z</time>
      </trkpt>
      <trkpt lat="43.66856" lon="1.19056">
        <ele>125.19999694824</ele>
        <time>2016-02-06T18:33:27.000Z</time>
      </trkpt>
      <trkpt lat="43.66861" lon="1.19034">
        <ele>125.59999847412</ele>
        <time>2016-02-06T18:33:33.000Z</time>
      </trkpt>
      <trkpt lat="43.66857" lon="1.19017">
        <ele>126</ele>
        <time>2016-02-06T18:33:38.000Z</time>
      </trkpt>
      <trkpt lat="43.66848" lon="1.19002">
        <ele>126.40000152588</ele>
        <time>2016-02-06T18:33:43.000Z</time>
      </trkpt>
      <trkpt lat="43.66835" lon="1.18985">
        <ele>126.80000305176</ele>
        <time>2016-02-06T18:33:49.000Z</time>
      </trkpt>
      <trkpt lat="43.66825" lon="1.1897">
        <ele>127</ele>
        <time>2016-02-06T18:33:54.000Z</time>
      </trkpt>
      <trkpt lat="43.66815" lon="1.18958">
        <ele>127</ele>
        <time>2016-02-06T18:33:59.000Z</time>
      </trkpt>
      <trkpt lat="43.66805" lon="1.18945">
        <ele>127</ele>
        <time>2016-02-06T18:34:04.000Z</time>
      </trkpt>
      <trkpt lat="43.66794" lon="1.1893">
        <ele>127</ele>
        <time>2016-02-06T18:34:10.000Z</time>
      </trkpt>
      <trkpt lat="43.66783" lon="1.18912">
        <ele>127</ele>
        <time>2016-02-06T18:34:16.000Z</time>
      </trkpt>
      <trkpt lat="43.66772" lon="1.18898">
        <ele>127</ele>
        <time>2016-02-06T18:34:21.000Z</time>
      </trkpt>
      <trkpt lat="43.66761" lon="1.18881">
        <ele>127.19999694824</ele>
        <time>2016-02-06T18:34:27.000Z</time>
      </trkpt>
      <trkpt lat="43.6675" lon="1.18867">
        <ele>127.40000152588</ele>
        <time>2016-02-06T18:34:32.000Z</time>
      </trkpt>
      <trkpt lat="43.66736" lon="1.18851">
        <ele>127.80000305176</ele>
        <time>2016-02-06T18:34:38.000Z</time>
      </trkpt>
      <trkpt lat="43.66722" lon="1.18832">
        <ele>128.19999694824</ele>
        <time>2016-02-06T18:34:44.000Z</time>
      </trkpt>
      <trkpt lat="43.66713" lon="1.18823">
        <ele>128.39999389648</ele>
        <time>2016-02-06T18:34:48.000Z</time>
      </trkpt>
      <trkpt lat="43.66698" lon="1.18809">
        <ele>128.80000305176</ele>
        <time>2016-02-06T18:34:54.000Z</time>
      </trkpt>
      <trkpt lat="43.66688" lon="1.18797">
        <ele>129.39999389648</ele>
        <time>2016-02-06T18:34:58.000Z</time>
      </trkpt>
      <trkpt lat="43.66671" lon="1.18784">
        <ele>129.39999389648</ele>
        <time>2016-02-06T18:35:05.000Z</time>
      </trkpt>
      <trkpt lat="43.66658" lon="1.18774">
        <ele>129.39999389648</ele>
        <time>2016-02-06T18:35:10.000Z</time>
      </trkpt>
      <trkpt lat="43.66643" lon="1.18766">
        <ele>129</ele>
        <time>2016-02-06T18:35:14.000Z</time>
      </trkpt>
      <trkpt lat="43.66624" lon="1.18758">
        <ele>129</ele>
        <time>2016-02-06T18:35:21.000Z</time>
      </trkpt>
      <trkpt lat="43.66606" lon="1.18745">
        <ele>129</ele>
        <time>2016-02-06T18:35:28.000Z</time>
      </trkpt>
      <trkpt lat="43.66597" lon="1.18737">
        <ele>129</ele>
        <time>2016-02-06T18:35:32.000Z</time>
      </trkpt>
      <trkpt lat="43.66594" lon="1.1873">
        <ele>128.80000305176</ele>
        <time>2016-02-06T18:35:34.000Z</time>
      </trkpt>
      <trkpt lat="43.66603" lon="1.18704">
        <ele>129.80000305176</ele>
        <time>2016-02-06T18:35:41.000Z</time>
      </trkpt>
      <trkpt lat="43.6661" lon="1.18691">
        <ele>130.60000610352</ele>
        <time>2016-02-06T18:35:45.000Z</time>
      </trkpt>
      <trkpt lat="43.6662" lon="1.18677">
        <ele>131.39999389648</ele>
        <time>2016-02-06T18:35:50.000Z</time>
      </trkpt>
      <trkpt lat="43.66626" lon="1.18664">
        <ele>132</ele>
        <time>2016-02-06T18:35:54.000Z</time>
      </trkpt>
      <trkpt lat="43.66637" lon="1.18646">
        <ele>131.60000610352</ele>
        <time>2016-02-06T18:36:00.000Z</time>
      </trkpt>
      <trkpt lat="43.66646" lon="1.18638">
        <ele>131.39999389648</ele>
        <time>2016-02-06T18:36:05.000Z</time>
      </trkpt>
      <trkpt lat="43.6666" lon="1.18628">
        <ele>130.80000305176</ele>
        <time>2016-02-06T18:36:12.000Z</time>
      </trkpt>
      <trkpt lat="43.66669" lon="1.18618">
        <ele>130.39999389648</ele>
        <time>2016-02-06T18:36:19.000Z</time>
      </trkpt>
      <trkpt lat="43.66672" lon="1.18613">
        <ele>130.19999694824</ele>
        <time>2016-02-06T18:36:25.000Z</time>
      </trkpt>
      <trkpt lat="43.66676" lon="1.18605">
        <ele>129.80000305176</ele>
        <time>2016-02-06T18:36:47.000Z</time>
      </trkpt>
      <trkpt lat="43.66678" lon="1.18602">
        <ele>129.60000610352</ele>
        <time>2016-02-06T18:36:52.000Z</time>
      </trkpt>
      <trkpt lat="43.6668" lon="1.18598">
        <ele>129.39999389648</ele>
        <time>2016-02-06T18:36:58.000Z</time>
      </trkpt>
      <trkpt lat="43.66684" lon="1.18592">
        <ele>129.19999694824</ele>
        <time>2016-02-06T18:37:03.000Z</time>
      </trkpt>
      <trkpt lat="43.66691" lon="1.18582">
        <ele>128.60000610352</ele>
        <time>2016-02-06T18:37:08.000Z</time>
      </trkpt>
      <trkpt lat="43.66696" lon="1.18572">
        <ele>128</ele>
        <time>2016-02-06T18:37:11.000Z</time>
      </trkpt>
      <trkpt lat="43.66698" lon="1.18567">
        <ele>127.80000305176</ele>
        <time>2016-02-06T18:37:13.000Z</time>
      </trkpt>
      <trkpt lat="43.66701" lon="1.1855">
        <ele>127.80000305176</ele>
        <time>2016-02-06T18:37:18.000Z</time>
      </trkpt>
      <trkpt lat="43.66703" lon="1.18543">
        <ele>127.80000305176</ele>
        <time>2016-02-06T18:37:20.000Z</time>
      </trkpt>
      <trkpt lat="43.66698" lon="1.18514">
        <ele>127.80000305176</ele>
        <time>2016-02-06T18:37:28.000Z</time>
      </trkpt>
      <trkpt lat="43.66692" lon="1.18491">
        <ele>128</ele>
        <time>2016-02-06T18:37:35.000Z</time>
      </trkpt>
      <trkpt lat="43.66687" lon="1.18469">
        <ele>128</ele>
        <time>2016-02-06T18:37:42.000Z</time>
      </trkpt>
      <trkpt lat="43.66682" lon="1.18461">
        <ele>128</ele>
        <time>2016-02-06T18:37:46.000Z</time>
      </trkpt>
      <trkpt lat="43.66674" lon="1.18444">
        <ele>128.19999694824</ele>
        <time>2016-02-06T18:37:52.000Z</time>
      </trkpt>
      <trkpt lat="43.66661" lon="1.18425">
        <ele>128.39999389648</ele>
        <time>2016-02-06T18:37:58.000Z</time>
      </trkpt>
      <trkpt lat="43.66651" lon="1.18409">
        <ele>128.39999389648</ele>
        <time>2016-02-06T18:38:05.000Z</time>
      </trkpt>
      <trkpt lat="43.66647" lon="1.18394">
        <ele>128.39999389648</ele>
        <time>2016-02-06T18:38:10.000Z</time>
      </trkpt>
      <trkpt lat="43.66643" lon="1.18359">
        <ele>129</ele>
        <time>2016-02-06T18:38:20.000Z</time>
      </trkpt>
      <trkpt lat="43.66641" lon="1.18351">
        <ele>129</ele>
        <time>2016-02-06T18:38:23.000Z</time>
      </trkpt>
      <trkpt lat="43.66632" lon="1.18344">
        <ele>129.19999694824</ele>
        <time>2016-02-06T18:38:28.000Z</time>
      </trkpt>
      <trkpt lat="43.66625" lon="1.18336">
        <ele>129.39999389648</ele>
        <time>2016-02-06T18:38:32.000Z</time>
      </trkpt>
      <trkpt lat="43.66617" lon="1.18329">
        <ele>129.60000610352</ele>
        <time>2016-02-06T18:38:36.000Z</time>
      </trkpt>
      <trkpt lat="43.66614" lon="1.18309">
        <ele>129.80000305176</ele>
        <time>2016-02-06T18:38:42.000Z</time>
      </trkpt>
      <trkpt lat="43.66613" lon="1.18291">
        <ele>129.39999389648</ele>
        <time>2016-02-06T18:38:47.000Z</time>
      </trkpt>
      <trkpt lat="43.66613" lon="1.18287">
        <ele>129.19999694824</ele>
        <time>2016-02-06T18:38:48.000Z</time>
      </trkpt>
      <trkpt lat="43.66615" lon="1.18262">
        <ele>128.60000610352</ele>
        <time>2016-02-06T18:38:54.000Z</time>
      </trkpt>
      <trkpt lat="43.66617" lon="1.18236">
        <ele>128.19999694824</ele>
        <time>2016-02-06T18:39:00.000Z</time>
      </trkpt>
      <trkpt lat="43.66619" lon="1.1821">
        <ele>128.19999694824</ele>
        <time>2016-02-06T18:39:06.000Z</time>
      </trkpt>
      <trkpt lat="43.66619" lon="1.18182">
        <ele>128.19999694824</ele>
        <time>2016-02-06T18:39:13.000Z</time>
      </trkpt>
      <trkpt lat="43.66623" lon="1.18157">
        <ele>128.39999389648</ele>
        <time>2016-02-06T18:39:19.000Z</time>
      </trkpt>
      <trkpt lat="43.6663" lon="1.18134">
        <ele>128.60000610352</ele>
        <time>2016-02-06T18:39:25.000Z</time>
      </trkpt>
      <trkpt lat="43.66634" lon="1.18114">
        <ele>128.39999389648</ele>
        <time>2016-02-06T18:39:31.000Z</time>
      </trkpt>
      <trkpt lat="43.66637" lon="1.18096">
        <ele>128.19999694824</ele>
        <time>2016-02-06T18:39:35.000Z</time>
      </trkpt>
      <trkpt lat="43.66645" lon="1.18072">
        <ele>127.80000305176</ele>
        <time>2016-02-06T18:39:42.000Z</time>
      </trkpt>
      <trkpt lat="43.66653" lon="1.18049">
        <ele>127.80000305176</ele>
        <time>2016-02-06T18:39:48.000Z</time>
      </trkpt>
      <trkpt lat="43.6666" lon="1.18027">
        <ele>128.39999389648</ele>
        <time>2016-02-06T18:39:54.000Z</time>
      </trkpt>
      <trkpt lat="43.66666" lon="1.18007">
        <ele>129.19999694824</ele>
        <time>2016-02-06T18:39:59.000Z</time>
      </trkpt>
      <trkpt lat="43.66671" lon="1.17989">
        <ele>130</ele>
        <time>2016-02-06T18:40:04.000Z</time>
      </trkpt>
      <trkpt lat="43.66677" lon="1.17971">
        <ele>130.80000305176</ele>
        <time>2016-02-06T18:40:09.000Z</time>
      </trkpt>
      <trkpt lat="43.66704" lon="1.17978">
        <ele>131</ele>
        <time>2016-02-06T18:40:21.000Z</time>
      </trkpt>
      <trkpt lat="43.6672" lon="1.17994">
        <ele>130.80000305176</ele>
        <time>2016-02-06T18:40:27.000Z</time>
      </trkpt>
      <trkpt lat="43.66737" lon="1.18007">
        <ele>130.60000610352</ele>
        <time>2016-02-06T18:40:33.000Z</time>
      </trkpt>
      <trkpt lat="43.66753" lon="1.18018">
        <ele>130.60000610352</ele>
        <time>2016-02-06T18:40:39.000Z</time>
      </trkpt>
      <trkpt lat="43.6677" lon="1.1803">
        <ele>130.39999389648</ele>
        <time>2016-02-06T18:40:46.000Z</time>
      </trkpt>
      <trkpt lat="43.66785" lon="1.18043">
        <ele>130.80000305176</ele>
        <time>2016-02-06T18:40:52.000Z</time>
      </trkpt>
      <trkpt lat="43.66799" lon="1.18055">
        <ele>131.19999694824</ele>
        <time>2016-02-06T18:40:58.000Z</time>
      </trkpt>
      <trkpt lat="43.66812" lon="1.18064">
        <ele>131.39999389648</ele>
        <time>2016-02-06T18:41:03.000Z</time>
      </trkpt>
      <trkpt lat="43.66822" lon="1.1807">
        <ele>131.60000610352</ele>
        <time>2016-02-06T18:41:07.000Z</time>
      </trkpt>
      <trkpt lat="43.66834" lon="1.18077">
        <ele>131.80000305176</ele>
        <time>2016-02-06T18:41:11.000Z</time>
      </trkpt>
      <trkpt lat="43.66852" lon="1.18088">
        <ele>132</ele>
        <time>2016-02-06T18:41:18.000Z</time>
      </trkpt>
      <trkpt lat="43.66869" lon="1.18099">
        <ele>131.60000610352</ele>
        <time>2016-02-06T18:41:24.000Z</time>
      </trkpt>
      <trkpt lat="43.66886" lon="1.18109">
        <ele>131.19999694824</ele>
        <time>2016-02-06T18:41:31.000Z</time>
      </trkpt>
      <trkpt lat="43.66904" lon="1.18117">
        <ele>131</ele>
        <time>2016-02-06T18:41:37.000Z</time>
      </trkpt>
      <trkpt lat="43.66922" lon="1.18128">
        <ele>130.60000610352</ele>
        <time>2016-02-06T18:41:44.000Z</time>
      </trkpt>
      <trkpt lat="43.66941" lon="1.1814">
        <ele>130.19999694824</ele>
        <time>2016-02-06T18:41:51.000Z</time>
      </trkpt>
      <trkpt lat="43.66957" lon="1.18151">
        <ele>130</ele>
        <time>2016-02-06T18:41:57.000Z</time>
      </trkpt>
      <trkpt lat="43.66974" lon="1.18163">
        <ele>129.60000610352</ele>
        <time>2016-02-06T18:42:03.000Z</time>
      </trkpt>
      <trkpt lat="43.6699" lon="1.18175">
        <ele>129.19999694824</ele>
        <time>2016-02-06T18:42:09.000Z</time>
      </trkpt>
      <trkpt lat="43.67002" lon="1.18185">
        <ele>128.80000305176</ele>
        <time>2016-02-06T18:42:13.000Z</time>
      </trkpt>
      <trkpt lat="43.67018" lon="1.182">
        <ele>128.39999389648</ele>
        <time>2016-02-06T18:42:19.000Z</time>
      </trkpt>
      <trkpt lat="43.67033" lon="1.18215">
        <ele>128.39999389648</ele>
        <time>2016-02-06T18:42:26.000Z</time>
      </trkpt>
      <trkpt lat="43.67044" lon="1.18223">
        <ele>128.39999389648</ele>
        <time>2016-02-06T18:42:30.000Z</time>
      </trkpt>
      <trkpt lat="43.67054" lon="1.18232">
        <ele>128.39999389648</ele>
        <time>2016-02-06T18:42:34.000Z</time>
      </trkpt>
      <trkpt lat="43.67069" lon="1.18246">
        <ele>128.60000610352</ele>
        <time>2016-02-06T18:42:40.000Z</time>
      </trkpt>
      <trkpt lat="43.67083" lon="1.18259">
        <ele>128.60000610352</ele>
        <time>2016-02-06T18:42:46.000Z</time>
      </trkpt>
      <trkpt lat="43.671" lon="1.18275">
        <ele>128.60000610352</ele>
        <time>2016-02-06T18:42:53.000Z</time>
      </trkpt>
      <trkpt lat="43.67115" lon="1.18293">
        <ele>128.80000305176</ele>
        <time>2016-02-06T18:43:00.000Z</time>
      </trkpt>
      <trkpt lat="43.67128" lon="1.1831">
        <ele>128.80000305176</ele>
        <time>2016-02-06T18:43:06.000Z</time>
      </trkpt>
      <trkpt lat="43.67141" lon="1.18331">
        <ele>128.80000305176</ele>
        <time>2016-02-06T18:43:13.000Z</time>
      </trkpt>
      <trkpt lat="43.67154" lon="1.18353">
        <ele>128.80000305176</ele>
        <time>2016-02-06T18:43:20.000Z</time>
      </trkpt>
      <trkpt lat="43.67167" lon="1.18375">
        <ele>128.60000610352</ele>
        <time>2016-02-06T18:43:27.000Z</time>
      </trkpt>
      <trkpt lat="43.67179" lon="1.18394">
        <ele>128.80000305176</ele>
        <time>2016-02-06T18:43:33.000Z</time>
      </trkpt>
      <trkpt lat="43.6719" lon="1.18413">
        <ele>129.39999389648</ele>
        <time>2016-02-06T18:43:39.000Z</time>
      </trkpt>
      <trkpt lat="43.67199" lon="1.18428">
        <ele>129.80000305176</ele>
        <time>2016-02-06T18:43:44.000Z</time>
      </trkpt>
      <trkpt lat="43.67208" lon="1.18444">
        <ele>130.19999694824</ele>
        <time>2016-02-06T18:43:49.000Z</time>
      </trkpt>
      <trkpt lat="43.67216" lon="1.18459">
        <ele>130.60000610352</ele>
        <time>2016-02-06T18:43:54.000Z</time>
      </trkpt>
      <trkpt lat="43.67223" lon="1.1847">
        <ele>130.80000305176</ele>
        <time>2016-02-06T18:43:58.000Z</time>
      </trkpt>
      <trkpt lat="43.67234" lon="1.18464">
        <ele>130.60000610352</ele>
        <time>2016-02-06T18:44:03.000Z</time>
      </trkpt>
      <trkpt lat="43.67236" lon="1.18462">
        <ele>130.60000610352</ele>
        <time>2016-02-06T18:44:04.000Z</time>
      </trkpt>
      <trkpt lat="43.6725" lon="1.18443">
        <ele>131.39999389648</ele>
        <time>2016-02-06T18:44:11.000Z</time>
      </trkpt>
      <trkpt lat="43.67265" lon="1.18426">
        <ele>133.19999694824</ele>
        <time>2016-02-06T18:44:18.000Z</time>
      </trkpt>
      <trkpt lat="43.67276" lon="1.18414">
        <ele>134.60000610352</ele>
        <time>2016-02-06T18:44:23.000Z</time>
      </trkpt>
      <trkpt lat="43.67289" lon="1.18398">
        <ele>136.39999389648</ele>
        <time>2016-02-06T18:44:30.000Z</time>
      </trkpt>
      <trkpt lat="43.67301" lon="1.18381">
        <ele>138.80000305176</ele>
        <time>2016-02-06T18:44:37.000Z</time>
      </trkpt>
      <trkpt lat="43.67309" lon="1.18366">
        <ele>140.80000305176</ele>
        <time>2016-02-06T18:44:43.000Z</time>
      </trkpt>
      <trkpt lat="43.67315" lon="1.18355">
        <ele>142.19999694824</ele>
        <time>2016-02-06T18:44:47.000Z</time>
      </trkpt>
      <trkpt lat="43.67324" lon="1.18339">
        <ele>143.60000610352</ele>
        <time>2016-02-06T18:44:53.000Z</time>
      </trkpt>
      <trkpt lat="43.6733" lon="1.18326">
        <ele>144.80000305176</ele>
        <time>2016-02-06T18:44:58.000Z</time>
      </trkpt>
      <trkpt lat="43.6733" lon="1.18323">
        <ele>145</ele>
        <time>2016-02-06T18:44:59.000Z</time>
      </trkpt>
      <trkpt lat="43.67335" lon="1.18309">
        <ele>146</ele>
        <time>2016-02-06T18:45:04.000Z</time>
      </trkpt>
      <trkpt lat="43.67337" lon="1.18303">
        <ele>146.60000610352</ele>
        <time>2016-02-06T18:45:06.000Z</time>
      </trkpt>
      <trkpt lat="43.67342" lon="1.1826">
        <ele>149</ele>
        <time>2016-02-06T18:45:20.000Z</time>
      </trkpt>
      <trkpt lat="43.67343" lon="1.18235">
        <ele>150.39999389648</ele>
        <time>2016-02-06T18:45:28.000Z</time>
      </trkpt>
      <trkpt lat="43.67344" lon="1.18217">
        <ele>151.39999389648</ele>
        <time>2016-02-06T18:45:34.000Z</time>
      </trkpt>
      <trkpt lat="43.67347" lon="1.18193">
        <ele>152.19999694824</ele>
        <time>2016-02-06T18:45:41.000Z</time>
      </trkpt>
      <trkpt lat="43.6735" lon="1.18178">
        <ele>152.80000305176</ele>
        <time>2016-02-06T18:45:46.000Z</time>
      </trkpt>
      <trkpt lat="43.67352" lon="1.18167">
        <ele>153.19999694824</ele>
        <time>2016-02-06T18:45:50.000Z</time>
      </trkpt>
      <trkpt lat="43.67352" lon="1.18164">
        <ele>153.39999389648</ele>
        <time>2016-02-06T18:45:51.000Z</time>
      </trkpt>
      <trkpt lat="43.67353" lon="1.18157">
        <ele>153.60000610352</ele>
        <time>2016-02-06T18:45:54.000Z</time>
      </trkpt>
      <trkpt lat="43.67358" lon="1.18137">
        <ele>154.19999694824</ele>
        <time>2016-02-06T18:46:01.000Z</time>
      </trkpt>
      <trkpt lat="43.67362" lon="1.18119">
        <ele>154.60000610352</ele>
        <time>2016-02-06T18:46:07.000Z</time>
      </trkpt>
      <trkpt lat="43.67365" lon="1.18101">
        <ele>155.19999694824</ele>
        <time>2016-02-06T18:46:13.000Z</time>
      </trkpt>
      <trkpt lat="43.67369" lon="1.18073">
        <ele>156</ele>
        <time>2016-02-06T18:46:22.000Z</time>
      </trkpt>
      <trkpt lat="43.67369" lon="1.1807">
        <ele>156.19999694824</ele>
        <time>2016-02-06T18:46:23.000Z</time>
      </trkpt>
      <trkpt lat="43.67369" lon="1.18047">
        <ele>157.19999694824</ele>
        <time>2016-02-06T18:46:31.000Z</time>
      </trkpt>
      <trkpt lat="43.67371" lon="1.18031">
        <ele>158.19999694824</ele>
        <time>2016-02-06T18:46:36.000Z</time>
      </trkpt>
      <trkpt lat="43.67372" lon="1.18015">
        <ele>159.19999694824</ele>
        <time>2016-02-06T18:46:41.000Z</time>
      </trkpt>
      <trkpt lat="43.67373" lon="1.17996">
        <ele>160.19999694824</ele>
        <time>2016-02-06T18:46:47.000Z</time>
      </trkpt>
      <trkpt lat="43.67375" lon="1.17981">
        <ele>162</ele>
        <time>2016-02-06T18:46:52.000Z</time>
      </trkpt>
      <trkpt lat="43.67375" lon="1.17959">
        <ele>163.19999694824</ele>
        <time>2016-02-06T18:46:59.000Z</time>
      </trkpt>
      <trkpt lat="43.67376" lon="1.1794">
        <ele>164</ele>
        <time>2016-02-06T18:47:05.000Z</time>
      </trkpt>
      <trkpt lat="43.67375" lon="1.1792">
        <ele>165</ele>
        <time>2016-02-06T18:47:11.000Z</time>
      </trkpt>
      <trkpt lat="43.67375" lon="1.17901">
        <ele>165.60000610352</ele>
        <time>2016-02-06T18:47:17.000Z</time>
      </trkpt>
      <trkpt lat="43.67375" lon="1.17887">
        <ele>166.19999694824</ele>
        <time>2016-02-06T18:47:21.000Z</time>
      </trkpt>
      <trkpt lat="43.67372" lon="1.17853">
        <ele>168.80000305176</ele>
        <time>2016-02-06T18:47:31.000Z</time>
      </trkpt>
      <trkpt lat="43.67371" lon="1.17837">
        <ele>170</ele>
        <time>2016-02-06T18:47:36.000Z</time>
      </trkpt>
      <trkpt lat="43.67372" lon="1.17816">
        <ele>171</ele>
        <time>2016-02-06T18:47:42.000Z</time>
      </trkpt>
      <trkpt lat="43.67375" lon="1.17801">
        <ele>171</ele>
        <time>2016-02-06T18:47:47.000Z</time>
      </trkpt>
      <trkpt lat="43.67377" lon="1.1778">
        <ele>170.39999389648</ele>
        <time>2016-02-06T18:47:53.000Z</time>
      </trkpt>
      <trkpt lat="43.67379" lon="1.17756">
        <ele>169.80000305176</ele>
        <time>2016-02-06T18:48:00.000Z</time>
      </trkpt>
      <trkpt lat="43.67382" lon="1.17735">
        <ele>170</ele>
        <time>2016-02-06T18:48:06.000Z</time>
      </trkpt>
      <trkpt lat="43.67387" lon="1.1769">
        <ele>169</ele>
        <time>2016-02-06T18:48:18.000Z</time>
      </trkpt>
      <trkpt lat="43.67389" lon="1.1767">
        <ele>169.19999694824</ele>
        <time>2016-02-06T18:48:24.000Z</time>
      </trkpt>
      <trkpt lat="43.6739" lon="1.17662">
        <ele>169.39999389648</ele>
        <time>2016-02-06T18:48:26.000Z</time>
      </trkpt>
      <trkpt lat="43.67393" lon="1.17647">
        <ele>169.80000305176</ele>
        <time>2016-02-06T18:48:30.000Z</time>
      </trkpt>
      <trkpt lat="43.67396" lon="1.17621">
        <ele>169.19999694824</ele>
        <time>2016-02-06T18:48:37.000Z</time>
      </trkpt>
      <trkpt lat="43.67399" lon="1.17604">
        <ele>169</ele>
        <time>2016-02-06T18:48:42.000Z</time>
      </trkpt>
      <trkpt lat="43.67403" lon="1.17583">
        <ele>170.19999694824</ele>
        <time>2016-02-06T18:48:47.000Z</time>
      </trkpt>
      <trkpt lat="43.67411" lon="1.17559">
        <ele>171.80000305176</ele>
        <time>2016-02-06T18:48:54.000Z</time>
      </trkpt>
      <trkpt lat="43.67419" lon="1.17536">
        <ele>172.39999389648</ele>
        <time>2016-02-06T18:49:01.000Z</time>
      </trkpt>
      <trkpt lat="43.67424" lon="1.1752">
        <ele>173</ele>
        <time>2016-02-06T18:49:06.000Z</time>
      </trkpt>
      <trkpt lat="43.6743" lon="1.175">
        <ele>173.60000610352</ele>
        <time>2016-02-06T18:49:12.000Z</time>
      </trkpt>
      <trkpt lat="43.67438" lon="1.17476">
        <ele>174.19999694824</ele>
        <time>2016-02-06T18:49:19.000Z</time>
      </trkpt>
      <trkpt lat="43.67445" lon="1.17458">
        <ele>175.19999694824</ele>
        <time>2016-02-06T18:49:24.000Z</time>
      </trkpt>
      <trkpt lat="43.67452" lon="1.17434">
        <ele>176.60000610352</ele>
        <time>2016-02-06T18:49:32.000Z</time>
      </trkpt>
      <trkpt lat="43.6746" lon="1.17409">
        <ele>178</ele>
        <time>2016-02-06T18:49:40.000Z</time>
      </trkpt>
      <trkpt lat="43.67466" lon="1.17388">
        <ele>179.60000610352</ele>
        <time>2016-02-06T18:49:47.000Z</time>
      </trkpt>
      <trkpt lat="43.67469" lon="1.17384">
        <ele>180.19999694824</ele>
        <time>2016-02-06T18:49:49.000Z</time>
      </trkpt>
      <trkpt lat="43.67479" lon="1.17379">
        <ele>181.39999389648</ele>
        <time>2016-02-06T18:49:55.000Z</time>
      </trkpt>
      <trkpt lat="43.6749" lon="1.17383">
        <ele>181.80000305176</ele>
        <time>2016-02-06T18:50:01.000Z</time>
      </trkpt>
      <trkpt lat="43.67505" lon="1.1739">
        <ele>182.39999389648</ele>
        <time>2016-02-06T18:50:09.000Z</time>
      </trkpt>
      <trkpt lat="43.67522" lon="1.17401">
        <ele>182.80000305176</ele>
        <time>2016-02-06T18:50:17.000Z</time>
      </trkpt>
      <trkpt lat="43.67539" lon="1.17411">
        <ele>183.19999694824</ele>
        <time>2016-02-06T18:50:24.000Z</time>
      </trkpt>
      <trkpt lat="43.67556" lon="1.1742">
        <ele>183.60000610352</ele>
        <time>2016-02-06T18:50:30.000Z</time>
      </trkpt>
      <trkpt lat="43.67574" lon="1.1743">
        <ele>184.19999694824</ele>
        <time>2016-02-06T18:50:36.000Z</time>
      </trkpt>
      <trkpt lat="43.67591" lon="1.17439">
        <ele>184.60000610352</ele>
        <time>2016-02-06T18:50:42.000Z</time>
      </trkpt>
      <trkpt lat="43.67592" lon="1.1744">
        <ele>184.60000610352</ele>
        <time>2016-02-06T18:50:43.000Z</time>
      </trkpt>
      <trkpt lat="43.67601" lon="1.17442">
        <ele>185</ele>
        <time>2016-02-06T18:50:48.000Z</time>
      </trkpt>
      <trkpt lat="43.67602" lon="1.17442">
        <ele>185</ele>
        <time>2016-02-06T18:50:49.000Z</time>
      </trkpt>
      <trkpt lat="43.67607" lon="1.17443">
        <ele>185.39999389648</ele>
        <time>2016-02-06T18:50:50.000Z</time>
      </trkpt>
      <trkpt lat="43.67612" lon="1.17445">
        <ele>185.60000610352</ele>
        <time>2016-02-06T18:50:53.000Z</time>
      </trkpt>
      <trkpt lat="43.67619" lon="1.1745">
        <ele>185.80000305176</ele>
        <time>2016-02-06T18:50:57.000Z</time>
      </trkpt>
      <trkpt lat="43.67627" lon="1.17456">
        <ele>186</ele>
        <time>2016-02-06T18:51:02.000Z</time>
      </trkpt>
      <trkpt lat="43.67629" lon="1.17457">
        <ele>186.19999694824</ele>
        <time>2016-02-06T18:51:03.000Z</time>
      </trkpt>
      <trkpt lat="43.67633" lon="1.17465">
        <ele>186</ele>
        <time>2016-02-06T18:51:07.000Z</time>
      </trkpt>
      <trkpt lat="43.67641" lon="1.17466">
        <ele>186.39999389648</ele>
        <time>2016-02-06T18:51:11.000Z</time>
      </trkpt>
      <trkpt lat="43.67656" lon="1.17467">
        <ele>187.39999389648</ele>
        <time>2016-02-06T18:51:20.000Z</time>
      </trkpt>
      <trkpt lat="43.67656" lon="1.17467">
        <ele>187.60000610352</ele>
        <time>2016-02-06T18:51:21.000Z</time>
      </trkpt>
      <trkpt lat="43.67658" lon="1.17468">
        <ele>187.60000610352</ele>
        <time>2016-02-06T18:51:22.000Z</time>
      </trkpt>
      <trkpt lat="43.67663" lon="1.17471">
        <ele>187.60000610352</ele>
        <time>2016-02-06T18:51:26.000Z</time>
      </trkpt>
      <trkpt lat="43.67669" lon="1.17476">
        <ele>188</ele>
        <time>2016-02-06T18:51:30.000Z</time>
      </trkpt>
      <trkpt lat="43.6767" lon="1.17476">
        <ele>187.80000305176</ele>
        <time>2016-02-06T18:51:31.000Z</time>
      </trkpt>
      <trkpt lat="43.6767" lon="1.17478">
        <ele>187.80000305176</ele>
        <time>2016-02-06T18:51:32.000Z</time>
      </trkpt>
      <trkpt lat="43.67679" lon="1.17481">
        <ele>188.39999389648</ele>
        <time>2016-02-06T18:51:36.000Z</time>
      </trkpt>
      <trkpt lat="43.6768" lon="1.17481">
        <ele>188.39999389648</ele>
        <time>2016-02-06T18:51:37.000Z</time>
      </trkpt>
      <trkpt lat="43.67683" lon="1.17485">
        <ele>188.60000610352</ele>
        <time>2016-02-06T18:51:40.000Z</time>
      </trkpt>
      <trkpt lat="43.67689" lon="1.17485">
        <ele>189.19999694824</ele>
        <time>2016-02-06T18:51:45.000Z</time>
      </trkpt>
      <trkpt lat="43.67692" lon="1.17487">
        <ele>189.39999389648</ele>
        <time>2016-02-06T18:51:49.000Z</time>
      </trkpt>
      <trkpt lat="43.677" lon="1.17489">
        <ele>190.39999389648</ele>
        <time>2016-02-06T18:51:56.000Z</time>
      </trkpt>
      <trkpt lat="43.67701" lon="1.1749">
        <ele>190.60000610352</ele>
        <time>2016-02-06T18:51:57.000Z</time>
      </trkpt>
      <trkpt lat="43.67703" lon="1.17493">
        <ele>190.60000610352</ele>
        <time>2016-02-06T18:52:00.000Z</time>
      </trkpt>
      <trkpt lat="43.67705" lon="1.17497">
        <ele>190.80000305176</ele>
        <time>2016-02-06T18:52:03.000Z</time>
      </trkpt>
      <trkpt lat="43.67713" lon="1.175">
        <ele>191.60000610352</ele>
        <time>2016-02-06T18:52:10.000Z</time>
      </trkpt>
      <trkpt lat="43.67717" lon="1.17501">
        <ele>192.19999694824</ele>
        <time>2016-02-06T18:52:13.000Z</time>
      </trkpt>
      <trkpt lat="43.67724" lon="1.17502">
        <ele>193</ele>
        <time>2016-02-06T18:52:19.000Z</time>
      </trkpt>
      <trkpt lat="43.67729" lon="1.17504">
        <ele>193.39999389648</ele>
        <time>2016-02-06T18:52:22.000Z</time>
      </trkpt>
      <trkpt lat="43.67736" lon="1.17507">
        <ele>194.19999694824</ele>
        <time>2016-02-06T18:52:29.000Z</time>
      </trkpt>
      <trkpt lat="43.67737" lon="1.17508">
        <ele>194.39999389648</ele>
        <time>2016-02-06T18:52:31.000Z</time>
      </trkpt>
      <trkpt lat="43.67744" lon="1.1751">
        <ele>195.19999694824</ele>
        <time>2016-02-06T18:52:36.000Z</time>
      </trkpt>
      <trkpt lat="43.67751" lon="1.17506">
        <ele>196.19999694824</ele>
        <time>2016-02-06T18:52:40.000Z</time>
      </trkpt>
      <trkpt lat="43.67755" lon="1.17502">
        <ele>196.60000610352</ele>
        <time>2016-02-06T18:52:43.000Z</time>
      </trkpt>
      <trkpt lat="43.67761" lon="1.17499">
        <ele>197.39999389648</ele>
        <time>2016-02-06T18:52:48.000Z</time>
      </trkpt>
      <trkpt lat="43.67763" lon="1.17497">
        <ele>197.80000305176</ele>
        <time>2016-02-06T18:52:50.000Z</time>
      </trkpt>
      <trkpt lat="43.67772" lon="1.17496">
        <ele>198.80000305176</ele>
        <time>2016-02-06T18:52:56.000Z</time>
      </trkpt>
      <trkpt lat="43.67781" lon="1.17497">
        <ele>199.80000305176</ele>
        <time>2016-02-06T18:53:03.000Z</time>
      </trkpt>
      <trkpt lat="43.67782" lon="1.17497">
        <ele>200</ele>
        <time>2016-02-06T18:53:04.000Z</time>
      </trkpt>
      <trkpt lat="43.67783" lon="1.17496">
        <ele>200.19999694824</ele>
        <time>2016-02-06T18:53:05.000Z</time>
      </trkpt>
      <trkpt lat="43.67789" lon="1.17497">
        <ele>200.80000305176</ele>
        <time>2016-02-06T18:53:10.000Z</time>
      </trkpt>
      <trkpt lat="43.6779" lon="1.17495">
        <ele>201.19999694824</ele>
        <time>2016-02-06T18:53:12.000Z</time>
      </trkpt>
      <trkpt lat="43.67797" lon="1.17495">
        <ele>202.19999694824</ele>
        <time>2016-02-06T18:53:16.000Z</time>
      </trkpt>
      <trkpt lat="43.67803" lon="1.17497">
        <ele>203</ele>
        <time>2016-02-06T18:53:19.000Z</time>
      </trkpt>
      <trkpt lat="43.6781" lon="1.175">
        <ele>204</ele>
        <time>2016-02-06T18:53:23.000Z</time>
      </trkpt>
      <trkpt lat="43.67825" lon="1.17506">
        <ele>206</ele>
        <time>2016-02-06T18:53:31.000Z</time>
      </trkpt>
      <trkpt lat="43.67828" lon="1.17507">
        <ele>206.39999389648</ele>
        <time>2016-02-06T18:53:32.000Z</time>
      </trkpt>
      <trkpt lat="43.67834" lon="1.17511">
        <ele>207</ele>
        <time>2016-02-06T18:53:36.000Z</time>
      </trkpt>
      <trkpt lat="43.67844" lon="1.17519">
        <ele>208</ele>
        <time>2016-02-06T18:53:44.000Z</time>
      </trkpt>
      <trkpt lat="43.67846" lon="1.17521">
        <ele>208.19999694824</ele>
        <time>2016-02-06T18:53:45.000Z</time>
      </trkpt>
      <trkpt lat="43.67854" lon="1.17526">
        <ele>209.19999694824</ele>
        <time>2016-02-06T18:53:49.000Z</time>
      </trkpt>
      <trkpt lat="43.67864" lon="1.17517">
        <ele>210</ele>
        <time>2016-02-06T18:53:55.000Z</time>
      </trkpt>
      <trkpt lat="43.67864" lon="1.17516">
        <ele>210</ele>
        <time>2016-02-06T18:53:56.000Z</time>
      </trkpt>
      <trkpt lat="43.67866" lon="1.17513">
        <ele>210.19999694824</ele>
        <time>2016-02-06T18:54:00.000Z</time>
      </trkpt>
      <trkpt lat="43.67872" lon="1.17502">
        <ele>211</ele>
        <time>2016-02-06T18:54:08.000Z</time>
      </trkpt>
      <trkpt lat="43.67876" lon="1.17497">
        <ele>211.60000610352</ele>
        <time>2016-02-06T18:54:12.000Z</time>
      </trkpt>
      <trkpt lat="43.67887" lon="1.17475">
        <ele>215.39999389648</ele>
        <time>2016-02-06T18:54:28.000Z</time>
      </trkpt>
      <trkpt lat="43.679" lon="1.17469">
        <ele>216.60000610352</ele>
        <time>2016-02-06T18:54:35.000Z</time>
      </trkpt>
      <trkpt lat="43.67903" lon="1.17467">
        <ele>217</ele>
        <time>2016-02-06T18:54:37.000Z</time>
      </trkpt>
      <trkpt lat="43.67911" lon="1.17459">
        <ele>217.80000305176</ele>
        <time>2016-02-06T18:54:42.000Z</time>
      </trkpt>
      <trkpt lat="43.67914" lon="1.17456">
        <ele>218</ele>
        <time>2016-02-06T18:54:44.000Z</time>
      </trkpt>
      <trkpt lat="43.6792" lon="1.17457">
        <ele>218.80000305176</ele>
        <time>2016-02-06T18:54:48.000Z</time>
      </trkpt>
      <trkpt lat="43.67923" lon="1.1746">
        <ele>219.19999694824</ele>
        <time>2016-02-06T18:54:50.000Z</time>
      </trkpt>
      <trkpt lat="43.67929" lon="1.17461">
        <ele>219.80000305176</ele>
        <time>2016-02-06T18:54:54.000Z</time>
      </trkpt>
      <trkpt lat="43.67938" lon="1.17463">
        <ele>220.60000610352</ele>
        <time>2016-02-06T18:54:59.000Z</time>
      </trkpt>
      <trkpt lat="43.6794" lon="1.17465">
        <ele>220.19999694824</ele>
        <time>2016-02-06T18:55:01.000Z</time>
      </trkpt>
      <trkpt lat="43.67947" lon="1.17468">
        <ele>219.60000610352</ele>
        <time>2016-02-06T18:55:05.000Z</time>
      </trkpt>
      <trkpt lat="43.67972" lon="1.17478">
        <ele>217</ele>
        <time>2016-02-06T18:55:21.000Z</time>
      </trkpt>
      <trkpt lat="43.67974" lon="1.17479">
        <ele>216.80000305176</ele>
        <time>2016-02-06T18:55:22.000Z</time>
      </trkpt>
      <trkpt lat="43.67978" lon="1.1748">
        <ele>216.19999694824</ele>
        <time>2016-02-06T18:55:24.000Z</time>
      </trkpt>
      <trkpt lat="43.67981" lon="1.17488">
        <ele>215</ele>
        <time>2016-02-06T18:55:28.000Z</time>
      </trkpt>
      <trkpt lat="43.67985" lon="1.17492">
        <ele>214.19999694824</ele>
        <time>2016-02-06T18:55:31.000Z</time>
      </trkpt>
      <trkpt lat="43.67989" lon="1.175">
        <ele>213</ele>
        <time>2016-02-06T18:55:36.000Z</time>
      </trkpt>
      <trkpt lat="43.67989" lon="1.17501">
        <ele>212.80000305176</ele>
        <time>2016-02-06T18:55:37.000Z</time>
      </trkpt>
      <trkpt lat="43.67993" lon="1.17502">
        <ele>212.39999389648</ele>
        <time>2016-02-06T18:55:43.000Z</time>
      </trkpt>
      <trkpt lat="43.67996" lon="1.17506">
        <ele>211.60000610352</ele>
        <time>2016-02-06T18:55:47.000Z</time>
      </trkpt>
      <trkpt lat="43.68003" lon="1.17511">
        <ele>210.39999389648</ele>
        <time>2016-02-06T18:55:51.000Z</time>
      </trkpt>
      <trkpt lat="43.68009" lon="1.17518">
        <ele>209</ele>
        <time>2016-02-06T18:55:57.000Z</time>
      </trkpt>
      <trkpt lat="43.68011" lon="1.17518">
        <ele>208.80000305176</ele>
        <time>2016-02-06T18:55:58.000Z</time>
      </trkpt>
      <trkpt lat="43.68017" lon="1.17517">
        <ele>208.60000610352</ele>
        <time>2016-02-06T18:56:01.000Z</time>
      </trkpt>
      <trkpt lat="43.68026" lon="1.1752">
        <ele>207.19999694824</ele>
        <time>2016-02-06T18:56:06.000Z</time>
      </trkpt>
      <trkpt lat="43.68029" lon="1.1752">
        <ele>207</ele>
        <time>2016-02-06T18:56:07.000Z</time>
      </trkpt>
      <trkpt lat="43.68033" lon="1.17519">
        <ele>206.60000610352</ele>
        <time>2016-02-06T18:56:10.000Z</time>
      </trkpt>
      <trkpt lat="43.68035" lon="1.17519">
        <ele>206.39999389648</ele>
        <time>2016-02-06T18:56:12.000Z</time>
      </trkpt>
      <trkpt lat="43.68042" lon="1.17518">
        <ele>205.80000305176</ele>
        <time>2016-02-06T18:56:16.000Z</time>
      </trkpt>
      <trkpt lat="43.68043" lon="1.17518">
        <ele>205.60000610352</ele>
        <time>2016-02-06T18:56:17.000Z</time>
      </trkpt>
      <trkpt lat="43.68046" lon="1.17519">
        <ele>205.19999694824</ele>
        <time>2016-02-06T18:56:19.000Z</time>
      </trkpt>
      <trkpt lat="43.6805" lon="1.17522">
        <ele>204.39999389648</ele>
        <time>2016-02-06T18:56:22.000Z</time>
      </trkpt>
      <trkpt lat="43.68058" lon="1.17536">
        <ele>201.80000305176</ele>
        <time>2016-02-06T18:56:27.000Z</time>
      </trkpt>
      <trkpt lat="43.6806" lon="1.17546">
        <ele>200.39999389648</ele>
        <time>2016-02-06T18:56:31.000Z</time>
      </trkpt>
      <trkpt lat="43.68063" lon="1.17555">
        <ele>199.19999694824</ele>
        <time>2016-02-06T18:56:35.000Z</time>
      </trkpt>
      <trkpt lat="43.68066" lon="1.17568">
        <ele>198</ele>
        <time>2016-02-06T18:56:41.000Z</time>
      </trkpt>
      <trkpt lat="43.68066" lon="1.17571">
        <ele>197.80000305176</ele>
        <time>2016-02-06T18:56:43.000Z</time>
      </trkpt>
      <trkpt lat="43.68065" lon="1.17576">
        <ele>197.80000305176</ele>
        <time>2016-02-06T18:56:45.000Z</time>
      </trkpt>
      <trkpt lat="43.68058" lon="1.17586">
        <ele>198.60000610352</ele>
        <time>2016-02-06T18:56:51.000Z</time>
      </trkpt>
      <trkpt lat="43.68059" lon="1.1761">
        <ele>197.19999694824</ele>
        <time>2016-02-06T18:56:58.000Z</time>
      </trkpt>
      <trkpt lat="43.68064" lon="1.17615">
        <ele>196.60000610352</ele>
        <time>2016-02-06T18:57:01.000Z</time>
      </trkpt>
      <trkpt lat="43.68065" lon="1.17616">
        <ele>196.60000610352</ele>
        <time>2016-02-06T18:57:02.000Z</time>
      </trkpt>
      <trkpt lat="43.68068" lon="1.17617">
        <ele>196.39999389648</ele>
        <time>2016-02-06T18:57:08.000Z</time>
      </trkpt>
      <trkpt lat="43.6807" lon="1.17618">
        <ele>196.19999694824</ele>
        <time>2016-02-06T18:57:14.000Z</time>
      </trkpt>
      <trkpt lat="43.68072" lon="1.1762">
        <ele>196</ele>
        <time>2016-02-06T18:57:20.000Z</time>
      </trkpt>
      <trkpt lat="43.68073" lon="1.17622">
        <ele>195.80000305176</ele>
        <time>2016-02-06T18:57:24.000Z</time>
      </trkpt>
      <trkpt lat="43.68078" lon="1.17629">
        <ele>195</ele>
        <time>2016-02-06T18:57:28.000Z</time>
      </trkpt>
      <trkpt lat="43.6808" lon="1.17634">
        <ele>194.39999389648</ele>
        <time>2016-02-06T18:57:30.000Z</time>
      </trkpt>
      <trkpt lat="43.68087" lon="1.17638">
        <ele>194</ele>
        <time>2016-02-06T18:57:34.000Z</time>
      </trkpt>
      <trkpt lat="43.68089" lon="1.1764">
        <ele>193.80000305176</ele>
        <time>2016-02-06T18:57:36.000Z</time>
      </trkpt>
      <trkpt lat="43.6809" lon="1.17641">
        <ele>193.60000610352</ele>
        <time>2016-02-06T18:57:37.000Z</time>
      </trkpt>
      <trkpt lat="43.68096" lon="1.17647">
        <ele>193.19999694824</ele>
        <time>2016-02-06T18:57:44.000Z</time>
      </trkpt>
      <trkpt lat="43.68096" lon="1.17648">
        <ele>193.19999694824</ele>
        <time>2016-02-06T18:57:45.000Z</time>
      </trkpt>
      <trkpt lat="43.68101" lon="1.17649">
        <ele>193</ele>
        <time>2016-02-06T18:57:50.000Z</time>
      </trkpt>
      <trkpt lat="43.68104" lon="1.17649">
        <ele>193.19999694824</ele>
        <time>2016-02-06T18:57:52.000Z</time>
      </trkpt>
      <trkpt lat="43.6811" lon="1.1765">
        <ele>194.39999389648</ele>
        <time>2016-02-06T18:57:58.000Z</time>
      </trkpt>
      <trkpt lat="43.68116" lon="1.17647">
        <ele>195.80000305176</ele>
        <time>2016-02-06T18:58:03.000Z</time>
      </trkpt>
      <trkpt lat="43.68119" lon="1.17649">
        <ele>196.39999389648</ele>
        <time>2016-02-06T18:58:05.000Z</time>
      </trkpt>
      <trkpt lat="43.68121" lon="1.17653">
        <ele>196.80000305176</ele>
        <time>2016-02-06T18:58:07.000Z</time>
      </trkpt>
      <trkpt lat="43.68122" lon="1.17657">
        <ele>197.19999694824</ele>
        <time>2016-02-06T18:58:11.000Z</time>
      </trkpt>
      <trkpt lat="43.68124" lon="1.1766">
        <ele>197.60000610352</ele>
        <time>2016-02-06T18:58:15.000Z</time>
      </trkpt>
      <trkpt lat="43.68125" lon="1.17662">
        <ele>197.80000305176</ele>
        <time>2016-02-06T18:58:17.000Z</time>
      </trkpt>
      <trkpt lat="43.68129" lon="1.17665">
        <ele>198.80000305176</ele>
        <time>2016-02-06T18:58:24.000Z</time>
      </trkpt>
      <trkpt lat="43.68134" lon="1.17668">
        <ele>199.80000305176</ele>
        <time>2016-02-06T18:58:30.000Z</time>
      </trkpt>
      <trkpt lat="43.68137" lon="1.17666">
        <ele>200.39999389648</ele>
        <time>2016-02-06T18:58:35.000Z</time>
      </trkpt>
      <trkpt lat="43.68141" lon="1.17668">
        <ele>201.39999389648</ele>
        <time>2016-02-06T18:58:43.000Z</time>
      </trkpt>
      <trkpt lat="43.68144" lon="1.17669">
        <ele>202</ele>
        <time>2016-02-06T18:58:48.000Z</time>
      </trkpt>
      <trkpt lat="43.68147" lon="1.17671">
        <ele>202.80000305176</ele>
        <time>2016-02-06T18:58:52.000Z</time>
      </trkpt>
      <trkpt lat="43.6815" lon="1.17671">
        <ele>203.19999694824</ele>
        <time>2016-02-06T18:58:57.000Z</time>
      </trkpt>
      <trkpt lat="43.68155" lon="1.17671">
        <ele>204.39999389648</ele>
        <time>2016-02-06T18:59:04.000Z</time>
      </trkpt>
      <trkpt lat="43.68156" lon="1.17671">
        <ele>204.60000610352</ele>
        <time>2016-02-06T18:59:05.000Z</time>
      </trkpt>
      <trkpt lat="43.68157" lon="1.17673">
        <ele>204.80000305176</ele>
        <time>2016-02-06T18:59:10.000Z</time>
      </trkpt>
      <trkpt lat="43.68162" lon="1.17672">
        <ele>205.60000610352</ele>
        <time>2016-02-06T18:59:17.000Z</time>
      </trkpt>
      <trkpt lat="43.68166" lon="1.17671">
        <ele>206.39999389648</ele>
        <time>2016-02-06T18:59:23.000Z</time>
      </trkpt>
      <trkpt lat="43.6817" lon="1.17672">
        <ele>207.39999389648</ele>
        <time>2016-02-06T18:59:28.000Z</time>
      </trkpt>
      <trkpt lat="43.68171" lon="1.17671">
        <ele>207.60000610352</ele>
        <time>2016-02-06T18:59:29.000Z</time>
      </trkpt>
      <trkpt lat="43.68175" lon="1.17663">
        <ele>208.19999694824</ele>
        <time>2016-02-06T18:59:36.000Z</time>
      </trkpt>
      <trkpt lat="43.68181" lon="1.17658">
        <ele>209.19999694824</ele>
        <time>2016-02-06T18:59:42.000Z</time>
      </trkpt>
      <trkpt lat="43.68181" lon="1.17658">
        <ele>209.19999694824</ele>
        <time>2016-02-06T18:59:43.000Z</time>
      </trkpt>
      <trkpt lat="43.68183" lon="1.17657">
        <ele>209.60000610352</ele>
        <time>2016-02-06T18:59:44.000Z</time>
      </trkpt>
      <trkpt lat="43.68186" lon="1.17657">
        <ele>210.19999694824</ele>
        <time>2016-02-06T18:59:47.000Z</time>
      </trkpt>
      <trkpt lat="43.68188" lon="1.17657">
        <ele>210.39999389648</ele>
        <time>2016-02-06T18:59:49.000Z</time>
      </trkpt>
      <trkpt lat="43.68195" lon="1.17654">
        <ele>211.19999694824</ele>
        <time>2016-02-06T18:59:54.000Z</time>
      </trkpt>
      <trkpt lat="43.6821" lon="1.17643">
        <ele>213</ele>
        <time>2016-02-06T19:00:02.000Z</time>
      </trkpt>
      <trkpt lat="43.68215" lon="1.17643">
        <ele>213.60000610352</ele>
        <time>2016-02-06T19:00:04.000Z</time>
      </trkpt>
      <trkpt lat="43.68221" lon="1.17642">
        <ele>214.39999389648</ele>
        <time>2016-02-06T19:00:07.000Z</time>
      </trkpt>
      <trkpt lat="43.68224" lon="1.17627">
        <ele>213.60000610352</ele>
        <time>2016-02-06T19:00:12.000Z</time>
      </trkpt>
      <trkpt lat="43.68223" lon="1.17624">
        <ele>213.39999389648</ele>
        <time>2016-02-06T19:00:13.000Z</time>
      </trkpt>
      <trkpt lat="43.6822" lon="1.17597">
        <ele>211</ele>
        <time>2016-02-06T19:00:20.000Z</time>
      </trkpt>
      <trkpt lat="43.68227" lon="1.17557">
        <ele>210.39999389648</ele>
        <time>2016-02-06T19:00:31.000Z</time>
      </trkpt>
      <trkpt lat="43.68232" lon="1.1754">
        <ele>210.80000305176</ele>
        <time>2016-02-06T19:00:37.000Z</time>
      </trkpt>
      <trkpt lat="43.68237" lon="1.17524">
        <ele>211.39999389648</ele>
        <time>2016-02-06T19:00:42.000Z</time>
      </trkpt>
      <trkpt lat="43.68244" lon="1.17501">
        <ele>212.60000610352</ele>
        <time>2016-02-06T19:00:50.000Z</time>
      </trkpt>
      <trkpt lat="43.68249" lon="1.17487">
        <ele>213.60000610352</ele>
        <time>2016-02-06T19:00:55.000Z</time>
      </trkpt>
      <trkpt lat="43.68256" lon="1.1747">
        <ele>214.60000610352</ele>
        <time>2016-02-06T19:01:01.000Z</time>
      </trkpt>
      <trkpt lat="43.6826" lon="1.17458">
        <ele>215.60000610352</ele>
        <time>2016-02-06T19:01:05.000Z</time>
      </trkpt>
      <trkpt lat="43.68263" lon="1.17439">
        <ele>216.60000610352</ele>
        <time>2016-02-06T19:01:11.000Z</time>
      </trkpt>
      <trkpt lat="43.68267" lon="1.17419">
        <ele>218</ele>
        <time>2016-02-06T19:01:17.000Z</time>
      </trkpt>
      <trkpt lat="43.68273" lon="1.174">
        <ele>219</ele>
        <time>2016-02-06T19:01:22.000Z</time>
      </trkpt>
      <trkpt lat="43.6828" lon="1.17376">
        <ele>219</ele>
        <time>2016-02-06T19:01:28.000Z</time>
      </trkpt>
      <trkpt lat="43.68284" lon="1.17356">
        <ele>218.60000610352</ele>
        <time>2016-02-06T19:01:33.000Z</time>
      </trkpt>
      <trkpt lat="43.68289" lon="1.17333">
        <ele>218.19999694824</ele>
        <time>2016-02-06T19:01:39.000Z</time>
      </trkpt>
      <trkpt lat="43.68294" lon="1.17315">
        <ele>219.39999389648</ele>
        <time>2016-02-06T19:01:44.000Z</time>
      </trkpt>
      <trkpt lat="43.68295" lon="1.173">
        <ele>219.60000610352</ele>
        <time>2016-02-06T19:01:48.000Z</time>
      </trkpt>
      <trkpt lat="43.68296" lon="1.1728">
        <ele>219.39999389648</ele>
        <time>2016-02-06T19:01:53.000Z</time>
      </trkpt>
      <trkpt lat="43.68296" lon="1.17256">
        <ele>219</ele>
        <time>2016-02-06T19:01:59.000Z</time>
      </trkpt>
      <trkpt lat="43.68299" lon="1.17235">
        <ele>219</ele>
        <time>2016-02-06T19:02:04.000Z</time>
      </trkpt>
      <trkpt lat="43.68304" lon="1.17215">
        <ele>219.60000610352</ele>
        <time>2016-02-06T19:02:09.000Z</time>
      </trkpt>
      <trkpt lat="43.6831" lon="1.17191">
        <ele>220.80000305176</ele>
        <time>2016-02-06T19:02:15.000Z</time>
      </trkpt>
      <trkpt lat="43.68312" lon="1.17176">
        <ele>221</ele>
        <time>2016-02-06T19:02:19.000Z</time>
      </trkpt>
      <trkpt lat="43.68317" lon="1.17157">
        <ele>221.19999694824</ele>
        <time>2016-02-06T19:02:24.000Z</time>
      </trkpt>
      <trkpt lat="43.68322" lon="1.17138">
        <ele>222</ele>
        <time>2016-02-06T19:02:30.000Z</time>
      </trkpt>
      <trkpt lat="43.68319" lon="1.17144">
        <ele>221.39999389648</ele>
        <time>2016-02-06T19:02:38.000Z</time>
      </trkpt>
      <trkpt lat="43.68314" lon="1.1716">
        <ele>221</ele>
        <time>2016-02-06T19:02:44.000Z</time>
      </trkpt>
      <trkpt lat="43.68313" lon="1.17164">
        <ele>220.80000305176</ele>
        <time>2016-02-06T19:02:46.000Z</time>
      </trkpt>
      <trkpt lat="43.68312" lon="1.17165">
        <ele>220.80000305176</ele>
        <time>2016-02-06T19:02:57.000Z</time>
      </trkpt>
      <trkpt lat="43.68311" lon="1.17173">
        <ele>220.80000305176</ele>
        <time>2016-02-06T19:03:01.000Z</time>
      </trkpt>
      <trkpt lat="43.68305" lon="1.17189">
        <ele>220.19999694824</ele>
        <time>2016-02-06T19:03:05.000Z</time>
      </trkpt>
      <trkpt lat="43.683" lon="1.17211">
        <ele>219.19999694824</ele>
        <time>2016-02-06T19:03:10.000Z</time>
      </trkpt>
      <trkpt lat="43.68297" lon="1.17235">
        <ele>218.80000305176</ele>
        <time>2016-02-06T19:03:16.000Z</time>
      </trkpt>
      <trkpt lat="43.68293" lon="1.17255">
        <ele>218.80000305176</ele>
        <time>2016-02-06T19:03:21.000Z</time>
      </trkpt>
      <trkpt lat="43.68293" lon="1.17278">
        <ele>219</ele>
        <time>2016-02-06T19:03:27.000Z</time>
      </trkpt>
      <trkpt lat="43.68291" lon="1.17301">
        <ele>219</ele>
        <time>2016-02-06T19:03:33.000Z</time>
      </trkpt>
      <trkpt lat="43.68289" lon="1.17313">
        <ele>218.80000305176</ele>
        <time>2016-02-06T19:03:37.000Z</time>
      </trkpt>
      <trkpt lat="43.68294" lon="1.1732">
        <ele>219.19999694824</ele>
        <time>2016-02-06T19:03:43.000Z</time>
      </trkpt>
      <trkpt lat="43.683" lon="1.17321">
        <ele>220</ele>
        <time>2016-02-06T19:03:48.000Z</time>
      </trkpt>
      <trkpt lat="43.68302" lon="1.17322">
        <ele>220.19999694824</ele>
        <time>2016-02-06T19:03:49.000Z</time>
      </trkpt>
      <trkpt lat="43.68314" lon="1.17326">
        <ele>221.80000305176</ele>
        <time>2016-02-06T19:03:55.000Z</time>
      </trkpt>
      <trkpt lat="43.68316" lon="1.17326">
        <ele>222.19999694824</ele>
        <time>2016-02-06T19:03:56.000Z</time>
      </trkpt>
      <trkpt lat="43.68324" lon="1.17339">
        <ele>222.80000305176</ele>
        <time>2016-02-06T19:04:02.000Z</time>
      </trkpt>
      <trkpt lat="43.68324" lon="1.17342">
        <ele>222.80000305176</ele>
        <time>2016-02-06T19:04:03.000Z</time>
      </trkpt>
      <trkpt lat="43.68324" lon="1.17353">
        <ele>222.39999389648</ele>
        <time>2016-02-06T19:04:07.000Z</time>
      </trkpt>
      <trkpt lat="43.68325" lon="1.17355">
        <ele>222.39999389648</ele>
        <time>2016-02-06T19:04:08.000Z</time>
      </trkpt>
      <trkpt lat="43.68333" lon="1.17362">
        <ele>223.39999389648</ele>
        <time>2016-02-06T19:04:12.000Z</time>
      </trkpt>
      <trkpt lat="43.68335" lon="1.17363">
        <ele>223.60000610352</ele>
        <time>2016-02-06T19:04:13.000Z</time>
      </trkpt>
      <trkpt lat="43.68343" lon="1.17366">
        <ele>224.60000610352</ele>
        <time>2016-02-06T19:04:17.000Z</time>
      </trkpt>
      <trkpt lat="43.68352" lon="1.17365">
        <ele>225.80000305176</ele>
        <time>2016-02-06T19:04:21.000Z</time>
      </trkpt>
      <trkpt lat="43.6837" lon="1.17368">
        <ele>226.39999389648</ele>
        <time>2016-02-06T19:04:29.000Z</time>
      </trkpt>
      <trkpt lat="43.68378" lon="1.1737">
        <ele>226.39999389648</ele>
        <time>2016-02-06T19:04:34.000Z</time>
      </trkpt>
      <trkpt lat="43.6838" lon="1.17372">
        <ele>226.39999389648</ele>
        <time>2016-02-06T19:04:35.000Z</time>
      </trkpt>
      <trkpt lat="43.68393" lon="1.17374">
        <ele>226.80000305176</ele>
        <time>2016-02-06T19:04:41.000Z</time>
      </trkpt>
      <trkpt lat="43.68403" lon="1.17374">
        <ele>227</ele>
        <time>2016-02-06T19:04:45.000Z</time>
      </trkpt>
      <trkpt lat="43.68406" lon="1.17375">
        <ele>227</ele>
        <time>2016-02-06T19:04:46.000Z</time>
      </trkpt>
      <trkpt lat="43.68416" lon="1.17377">
        <ele>227.19999694824</ele>
        <time>2016-02-06T19:04:50.000Z</time>
      </trkpt>
      <trkpt lat="43.6843" lon="1.17382">
        <ele>227</ele>
        <time>2016-02-06T19:04:56.000Z</time>
      </trkpt>
      <trkpt lat="43.6844" lon="1.17384">
        <ele>226.80000305176</ele>
        <time>2016-02-06T19:05:00.000Z</time>
      </trkpt>
      <trkpt lat="43.68449" lon="1.17386">
        <ele>226.39999389648</ele>
        <time>2016-02-06T19:05:03.000Z</time>
      </trkpt>
      <trkpt lat="43.68462" lon="1.17381">
        <ele>226</ele>
        <time>2016-02-06T19:05:09.000Z</time>
      </trkpt>
      <trkpt lat="43.68465" lon="1.17381">
        <ele>225.80000305176</ele>
        <time>2016-02-06T19:05:10.000Z</time>
      </trkpt>
      <trkpt lat="43.68479" lon="1.17382">
        <ele>225.39999389648</ele>
        <time>2016-02-06T19:05:17.000Z</time>
      </trkpt>
      <trkpt lat="43.68485" lon="1.17382">
        <ele>225.19999694824</ele>
        <time>2016-02-06T19:05:20.000Z</time>
      </trkpt>
      <trkpt lat="43.68496" lon="1.17388">
        <ele>224.80000305176</ele>
        <time>2016-02-06T19:05:25.000Z</time>
      </trkpt>
      <trkpt lat="43.68501" lon="1.17389">
        <ele>224.60000610352</ele>
        <time>2016-02-06T19:05:27.000Z</time>
      </trkpt>
      <trkpt lat="43.68512" lon="1.17394">
        <ele>224.19999694824</ele>
        <time>2016-02-06T19:05:32.000Z</time>
      </trkpt>
      <trkpt lat="43.6852" lon="1.17395">
        <ele>224</ele>
        <time>2016-02-06T19:05:35.000Z</time>
      </trkpt>
      <trkpt lat="43.68525" lon="1.17397">
        <ele>223.60000610352</ele>
        <time>2016-02-06T19:05:39.000Z</time>
      </trkpt>
      <trkpt lat="43.68536" lon="1.17402">
        <ele>223</ele>
        <time>2016-02-06T19:05:44.000Z</time>
      </trkpt>
      <trkpt lat="43.68546" lon="1.17402">
        <ele>222.60000610352</ele>
        <time>2016-02-06T19:05:48.000Z</time>
      </trkpt>
      <trkpt lat="43.68549" lon="1.17402">
        <ele>222.39999389648</ele>
        <time>2016-02-06T19:05:49.000Z</time>
      </trkpt>
      <trkpt lat="43.68556" lon="1.17404">
        <ele>222</ele>
        <time>2016-02-06T19:05:52.000Z</time>
      </trkpt>
      <trkpt lat="43.68571" lon="1.17408">
        <ele>221.19999694824</ele>
        <time>2016-02-06T19:05:59.000Z</time>
      </trkpt>
      <trkpt lat="43.6858" lon="1.17414">
        <ele>220.60000610352</ele>
        <time>2016-02-06T19:06:03.000Z</time>
      </trkpt>
      <trkpt lat="43.68582" lon="1.17415">
        <ele>220.60000610352</ele>
        <time>2016-02-06T19:06:04.000Z</time>
      </trkpt>
      <trkpt lat="43.68584" lon="1.17416">
        <ele>220.39999389648</ele>
        <time>2016-02-06T19:06:05.000Z</time>
      </trkpt>
      <trkpt lat="43.68599" lon="1.1742">
        <ele>219.60000610352</ele>
        <time>2016-02-06T19:06:11.000Z</time>
      </trkpt>
      <trkpt lat="43.68601" lon="1.1742">
        <ele>219.39999389648</ele>
        <time>2016-02-06T19:06:12.000Z</time>
      </trkpt>
      <trkpt lat="43.68619" lon="1.17419">
        <ele>218.80000305176</ele>
        <time>2016-02-06T19:06:21.000Z</time>
      </trkpt>
      <trkpt lat="43.68629" lon="1.17425">
        <ele>218.39999389648</ele>
        <time>2016-02-06T19:06:26.000Z</time>
      </trkpt>
      <trkpt lat="43.68631" lon="1.17426">
        <ele>218.19999694824</ele>
        <time>2016-02-06T19:06:27.000Z</time>
      </trkpt>
      <trkpt lat="43.6864" lon="1.17434">
        <ele>217.80000305176</ele>
        <time>2016-02-06T19:06:32.000Z</time>
      </trkpt>
      <trkpt lat="43.68641" lon="1.17435">
        <ele>217.60000610352</ele>
        <time>2016-02-06T19:06:33.000Z</time>
      </trkpt>
      <trkpt lat="43.68651" lon="1.17436">
        <ele>217.19999694824</ele>
        <time>2016-02-06T19:06:37.000Z</time>
      </trkpt>
      <trkpt lat="43.68662" lon="1.17442">
        <ele>216.80000305176</ele>
        <time>2016-02-06T19:06:42.000Z</time>
      </trkpt>
      <trkpt lat="43.68671" lon="1.17444">
        <ele>216.39999389648</ele>
        <time>2016-02-06T19:06:46.000Z</time>
      </trkpt>
      <trkpt lat="43.68676" lon="1.17445">
        <ele>216.19999694824</ele>
        <time>2016-02-06T19:06:48.000Z</time>
      </trkpt>
      <trkpt lat="43.68686" lon="1.1745">
        <ele>215.80000305176</ele>
        <time>2016-02-06T19:06:53.000Z</time>
      </trkpt>
      <trkpt lat="43.68693" lon="1.17456">
        <ele>215.19999694824</ele>
        <time>2016-02-06T19:06:57.000Z</time>
      </trkpt>
      <trkpt lat="43.68696" lon="1.17467">
        <ele>215</ele>
        <time>2016-02-06T19:07:01.000Z</time>
      </trkpt>
      <trkpt lat="43.68697" lon="1.17469">
        <ele>214.80000305176</ele>
        <time>2016-02-06T19:07:02.000Z</time>
      </trkpt>
      <trkpt lat="43.68697" lon="1.17472">
        <ele>214.80000305176</ele>
        <time>2016-02-06T19:07:03.000Z</time>
      </trkpt>
      <trkpt lat="43.68696" lon="1.17485">
        <ele>214.80000305176</ele>
        <time>2016-02-06T19:07:08.000Z</time>
      </trkpt>
      <trkpt lat="43.68695" lon="1.175">
        <ele>214.80000305176</ele>
        <time>2016-02-06T19:07:13.000Z</time>
      </trkpt>
      <trkpt lat="43.68696" lon="1.17504">
        <ele>214.80000305176</ele>
        <time>2016-02-06T19:07:15.000Z</time>
      </trkpt>
      <trkpt lat="43.68705" lon="1.1751">
        <ele>214.80000305176</ele>
        <time>2016-02-06T19:07:19.000Z</time>
      </trkpt>
      <trkpt lat="43.68713" lon="1.17518">
        <ele>214.60000610352</ele>
        <time>2016-02-06T19:07:23.000Z</time>
      </trkpt>
      <trkpt lat="43.68734" lon="1.17511">
        <ele>214.19999694824</ele>
        <time>2016-02-06T19:07:30.000Z</time>
      </trkpt>
      <trkpt lat="43.68753" lon="1.17502">
        <ele>213.19999694824</ele>
        <time>2016-02-06T19:07:36.000Z</time>
      </trkpt>
      <trkpt lat="43.68771" lon="1.17493">
        <ele>212.39999389648</ele>
        <time>2016-02-06T19:07:41.000Z</time>
      </trkpt>
      <trkpt lat="43.68787" lon="1.17484">
        <ele>212</ele>
        <time>2016-02-06T19:07:46.000Z</time>
      </trkpt>
      <trkpt lat="43.68802" lon="1.17473">
        <ele>211.60000610352</ele>
        <time>2016-02-06T19:07:51.000Z</time>
      </trkpt>
      <trkpt lat="43.68816" lon="1.17466">
        <ele>211.60000610352</ele>
        <time>2016-02-06T19:07:56.000Z</time>
      </trkpt>
      <trkpt lat="43.68828" lon="1.17462">
        <ele>211.39999389648</ele>
        <time>2016-02-06T19:07:59.000Z</time>
      </trkpt>
      <trkpt lat="43.6884" lon="1.17459">
        <ele>211.39999389648</ele>
        <time>2016-02-06T19:08:02.000Z</time>
      </trkpt>
      <trkpt lat="43.68854" lon="1.17462">
        <ele>211.39999389648</ele>
        <time>2016-02-06T19:08:06.000Z</time>
      </trkpt>
      <trkpt lat="43.68872" lon="1.17475">
        <ele>211</ele>
        <time>2016-02-06T19:08:12.000Z</time>
      </trkpt>
      <trkpt lat="43.68884" lon="1.17508">
        <ele>211</ele>
        <time>2016-02-06T19:08:21.000Z</time>
      </trkpt>
      <trkpt lat="43.68887" lon="1.17531">
        <ele>212</ele>
        <time>2016-02-06T19:08:27.000Z</time>
      </trkpt>
      <trkpt lat="43.6889" lon="1.17552">
        <ele>212.80000305176</ele>
        <time>2016-02-06T19:08:32.000Z</time>
      </trkpt>
      <trkpt lat="43.68893" lon="1.17577">
        <ele>213.19999694824</ele>
        <time>2016-02-06T19:08:38.000Z</time>
      </trkpt>
      <trkpt lat="43.68894" lon="1.17594">
        <ele>213</ele>
        <time>2016-02-06T19:08:42.000Z</time>
      </trkpt>
      <trkpt lat="43.68895" lon="1.17609">
        <ele>213.19999694824</ele>
        <time>2016-02-06T19:08:46.000Z</time>
      </trkpt>
      <trkpt lat="43.68897" lon="1.17639">
        <ele>213.60000610352</ele>
        <time>2016-02-06T19:08:53.000Z</time>
      </trkpt>
      <trkpt lat="43.68901" lon="1.17661">
        <ele>213.19999694824</ele>
        <time>2016-02-06T19:08:58.000Z</time>
      </trkpt>
      <trkpt lat="43.68901" lon="1.17682">
        <ele>212.60000610352</ele>
        <time>2016-02-06T19:09:03.000Z</time>
      </trkpt>
      <trkpt lat="43.68904" lon="1.17703">
        <ele>212</ele>
        <time>2016-02-06T19:09:08.000Z</time>
      </trkpt>
      <trkpt lat="43.68905" lon="1.17732">
        <ele>211.19999694824</ele>
        <time>2016-02-06T19:09:15.000Z</time>
      </trkpt>
      <trkpt lat="43.68907" lon="1.17746">
        <ele>210.60000610352</ele>
        <time>2016-02-06T19:09:19.000Z</time>
      </trkpt>
      <trkpt lat="43.68907" lon="1.17748">
        <ele>210.60000610352</ele>
        <time>2016-02-06T19:09:20.000Z</time>
      </trkpt>
      <trkpt lat="43.68917" lon="1.17755">
        <ele>209.80000305176</ele>
        <time>2016-02-06T19:09:25.000Z</time>
      </trkpt>
      <trkpt lat="43.68921" lon="1.1776">
        <ele>209.39999389648</ele>
        <time>2016-02-06T19:09:28.000Z</time>
      </trkpt>
      <trkpt lat="43.6893" lon="1.17766">
        <ele>208.60000610352</ele>
        <time>2016-02-06T19:09:32.000Z</time>
      </trkpt>
      <trkpt lat="43.68934" lon="1.17773">
        <ele>208.19999694824</ele>
        <time>2016-02-06T19:09:36.000Z</time>
      </trkpt>
      <trkpt lat="43.68931" lon="1.17778">
        <ele>208.19999694824</ele>
        <time>2016-02-06T19:09:40.000Z</time>
      </trkpt>
      <trkpt lat="43.6893" lon="1.1778">
        <ele>208.19999694824</ele>
        <time>2016-02-06T19:09:41.000Z</time>
      </trkpt>
      <trkpt lat="43.6893" lon="1.17781">
        <ele>208.19999694824</ele>
        <time>2016-02-06T19:09:42.000Z</time>
      </trkpt>
      <trkpt lat="43.6893" lon="1.17787">
        <ele>208</ele>
        <time>2016-02-06T19:09:45.000Z</time>
      </trkpt>
      <trkpt lat="43.68929" lon="1.17801">
        <ele>207.80000305176</ele>
        <time>2016-02-06T19:09:50.000Z</time>
      </trkpt>
      <trkpt lat="43.68929" lon="1.17814">
        <ele>207.80000305176</ele>
        <time>2016-02-06T19:09:54.000Z</time>
      </trkpt>
      <trkpt lat="43.68929" lon="1.17822">
        <ele>208.19999694824</ele>
        <time>2016-02-06T19:09:57.000Z</time>
      </trkpt>
      <trkpt lat="43.68928" lon="1.17827">
        <ele>208.60000610352</ele>
        <time>2016-02-06T19:09:59.000Z</time>
      </trkpt>
      <trkpt lat="43.68926" lon="1.17836">
        <ele>209.19999694824</ele>
        <time>2016-02-06T19:10:03.000Z</time>
      </trkpt>
      <trkpt lat="43.68923" lon="1.17846">
        <ele>210</ele>
        <time>2016-02-06T19:10:07.000Z</time>
      </trkpt>
      <trkpt lat="43.68926" lon="1.17855">
        <ele>210</ele>
        <time>2016-02-06T19:10:10.000Z</time>
      </trkpt>
      <trkpt lat="43.68925" lon="1.17863">
        <ele>210.60000610352</ele>
        <time>2016-02-06T19:10:13.000Z</time>
      </trkpt>
      <trkpt lat="43.68926" lon="1.17871">
        <ele>210.80000305176</ele>
        <time>2016-02-06T19:10:16.000Z</time>
      </trkpt>
      <trkpt lat="43.68927" lon="1.17883">
        <ele>211.39999389648</ele>
        <time>2016-02-06T19:10:20.000Z</time>
      </trkpt>
      <trkpt lat="43.68928" lon="1.179">
        <ele>210.80000305176</ele>
        <time>2016-02-06T19:10:25.000Z</time>
      </trkpt>
      <trkpt lat="43.6893" lon="1.17914">
        <ele>209.19999694824</ele>
        <time>2016-02-06T19:10:29.000Z</time>
      </trkpt>
      <trkpt lat="43.68932" lon="1.17922">
        <ele>208.19999694824</ele>
        <time>2016-02-06T19:10:31.000Z</time>
      </trkpt>
      <trkpt lat="43.68932" lon="1.17929">
        <ele>207.39999389648</ele>
        <time>2016-02-06T19:10:33.000Z</time>
      </trkpt>
      <trkpt lat="43.68933" lon="1.17944">
        <ele>205.80000305176</ele>
        <time>2016-02-06T19:10:37.000Z</time>
      </trkpt>
      <trkpt lat="43.68936" lon="1.17958">
        <ele>204.19999694824</ele>
        <time>2016-02-06T19:10:40.000Z</time>
      </trkpt>
      <trkpt lat="43.68938" lon="1.17986">
        <ele>202</ele>
        <time>2016-02-06T19:10:46.000Z</time>
      </trkpt>
      <trkpt lat="43.68939" lon="1.18001">
        <ele>201.60000610352</ele>
        <time>2016-02-06T19:10:50.000Z</time>
      </trkpt>
      <trkpt lat="43.68938" lon="1.18012">
        <ele>201</ele>
        <time>2016-02-06T19:10:53.000Z</time>
      </trkpt>
      <trkpt lat="43.68933" lon="1.18031">
        <ele>200.19999694824</ele>
        <time>2016-02-06T19:10:58.000Z</time>
      </trkpt>
      <trkpt lat="43.68931" lon="1.18043">
        <ele>199.80000305176</ele>
        <time>2016-02-06T19:11:01.000Z</time>
      </trkpt>
      <trkpt lat="43.6892" lon="1.18061">
        <ele>200.80000305176</ele>
        <time>2016-02-06T19:11:06.000Z</time>
      </trkpt>
      <trkpt lat="43.68918" lon="1.18063">
        <ele>201</ele>
        <time>2016-02-06T19:11:07.000Z</time>
      </trkpt>
      <trkpt lat="43.68919" lon="1.18074">
        <ele>201.39999389648</ele>
        <time>2016-02-06T19:11:11.000Z</time>
      </trkpt>
      <trkpt lat="43.68921" lon="1.18078">
        <ele>201.19999694824</ele>
        <time>2016-02-06T19:11:13.000Z</time>
      </trkpt>
      <trkpt lat="43.68922" lon="1.18081">
        <ele>201.19999694824</ele>
        <time>2016-02-06T19:11:15.000Z</time>
      </trkpt>
      <trkpt lat="43.68926" lon="1.18085">
        <ele>201</ele>
        <time>2016-02-06T19:11:19.000Z</time>
      </trkpt>
      <trkpt lat="43.68928" lon="1.18089">
        <ele>201</ele>
        <time>2016-02-06T19:11:23.000Z</time>
      </trkpt>
      <trkpt lat="43.68929" lon="1.18092">
        <ele>201</ele>
        <time>2016-02-06T19:11:25.000Z</time>
      </trkpt>
      <trkpt lat="43.68928" lon="1.18097">
        <ele>201.19999694824</ele>
        <time>2016-02-06T19:11:30.000Z</time>
      </trkpt>
      <trkpt lat="43.68928" lon="1.18098">
        <ele>201.19999694824</ele>
        <time>2016-02-06T19:11:31.000Z</time>
      </trkpt>
      <trkpt lat="43.68929" lon="1.18102">
        <ele>201.39999389648</ele>
        <time>2016-02-06T19:11:33.000Z</time>
      </trkpt>
      <trkpt lat="43.68932" lon="1.18106">
        <ele>201.19999694824</ele>
        <time>2016-02-06T19:11:40.000Z</time>
      </trkpt>
      <trkpt lat="43.68932" lon="1.18107">
        <ele>201</ele>
        <time>2016-02-06T19:11:41.000Z</time>
      </trkpt>
      <trkpt lat="43.68933" lon="1.18108">
        <ele>201</ele>
        <time>2016-02-06T19:11:42.000Z</time>
      </trkpt>
      <trkpt lat="43.68933" lon="1.18111">
        <ele>201.19999694824</ele>
        <time>2016-02-06T19:11:47.000Z</time>
      </trkpt>
      <trkpt lat="43.68935" lon="1.18113">
        <ele>201</ele>
        <time>2016-02-06T19:11:56.000Z</time>
      </trkpt>
      <trkpt lat="43.6894" lon="1.18116">
        <ele>200.80000305176</ele>
        <time>2016-02-06T19:12:01.000Z</time>
      </trkpt>
      <trkpt lat="43.6894" lon="1.18122">
        <ele>201</ele>
        <time>2016-02-06T19:12:04.000Z</time>
      </trkpt>
      <trkpt lat="43.68938" lon="1.18128">
        <ele>201.39999389648</ele>
        <time>2016-02-06T19:12:08.000Z</time>
      </trkpt>
      <trkpt lat="43.68936" lon="1.18135">
        <ele>201.60000610352</ele>
        <time>2016-02-06T19:12:12.000Z</time>
      </trkpt>
      <trkpt lat="43.68938" lon="1.18138">
        <ele>201.80000305176</ele>
        <time>2016-02-06T19:12:13.000Z</time>
      </trkpt>
      <trkpt lat="43.68946" lon="1.18151">
        <ele>201.60000610352</ele>
        <time>2016-02-06T19:12:18.000Z</time>
      </trkpt>
      <trkpt lat="43.68947" lon="1.18155">
        <ele>201.60000610352</ele>
        <time>2016-02-06T19:12:19.000Z</time>
      </trkpt>
      <trkpt lat="43.68947" lon="1.18175">
        <ele>202.60000610352</ele>
        <time>2016-02-06T19:12:26.000Z</time>
      </trkpt>
      <trkpt lat="43.68945" lon="1.18186">
        <ele>203.60000610352</ele>
        <time>2016-02-06T19:12:31.000Z</time>
      </trkpt>
      <trkpt lat="43.68945" lon="1.18192">
        <ele>204</ele>
        <time>2016-02-06T19:12:33.000Z</time>
      </trkpt>
      <trkpt lat="43.68945" lon="1.18197">
        <ele>204.19999694824</ele>
        <time>2016-02-06T19:12:35.000Z</time>
      </trkpt>
      <trkpt lat="43.68941" lon="1.18203">
        <ele>205</ele>
        <time>2016-02-06T19:12:39.000Z</time>
      </trkpt>
      <trkpt lat="43.68936" lon="1.18209">
        <ele>205.80000305176</ele>
        <time>2016-02-06T19:12:42.000Z</time>
      </trkpt>
      <trkpt lat="43.68932" lon="1.18216">
        <ele>206.80000305176</ele>
        <time>2016-02-06T19:12:46.000Z</time>
      </trkpt>
      <trkpt lat="43.6893" lon="1.18218">
        <ele>207.19999694824</ele>
        <time>2016-02-06T19:12:48.000Z</time>
      </trkpt>
      <trkpt lat="43.68926" lon="1.18227">
        <ele>207.60000610352</ele>
        <time>2016-02-06T19:12:54.000Z</time>
      </trkpt>
      <trkpt lat="43.68933" lon="1.18241">
        <ele>208</ele>
        <time>2016-02-06T19:12:59.000Z</time>
      </trkpt>
      <trkpt lat="43.68936" lon="1.18247">
        <ele>208.19999694824</ele>
        <time>2016-02-06T19:13:01.000Z</time>
      </trkpt>
      <trkpt lat="43.68941" lon="1.18257">
        <ele>208</ele>
        <time>2016-02-06T19:13:04.000Z</time>
      </trkpt>
      <trkpt lat="43.68948" lon="1.18276">
        <ele>208.39999389648</ele>
        <time>2016-02-06T19:13:09.000Z</time>
      </trkpt>
      <trkpt lat="43.68949" lon="1.18279">
        <ele>208.39999389648</ele>
        <time>2016-02-06T19:13:10.000Z</time>
      </trkpt>
      <trkpt lat="43.68954" lon="1.1829">
        <ele>208.39999389648</ele>
        <time>2016-02-06T19:13:13.000Z</time>
      </trkpt>
      <trkpt lat="43.68963" lon="1.18304">
        <ele>208</ele>
        <time>2016-02-06T19:13:18.000Z</time>
      </trkpt>
      <trkpt lat="43.68964" lon="1.18306">
        <ele>208</ele>
        <time>2016-02-06T19:13:19.000Z</time>
      </trkpt>
      <trkpt lat="43.68974" lon="1.18322">
        <ele>207.39999389648</ele>
        <time>2016-02-06T19:13:24.000Z</time>
      </trkpt>
      <trkpt lat="43.68976" lon="1.18325">
        <ele>207.39999389648</ele>
        <time>2016-02-06T19:13:25.000Z</time>
      </trkpt>
      <trkpt lat="43.68982" lon="1.18334">
        <ele>206.80000305176</ele>
        <time>2016-02-06T19:13:28.000Z</time>
      </trkpt>
      <trkpt lat="43.68991" lon="1.18347">
        <ele>206.19999694824</ele>
        <time>2016-02-06T19:13:32.000Z</time>
      </trkpt>
      <trkpt lat="43.69" lon="1.18361">
        <ele>205.39999389648</ele>
        <time>2016-02-06T19:13:36.000Z</time>
      </trkpt>
      <trkpt lat="43.69008" lon="1.18374">
        <ele>204.80000305176</ele>
        <time>2016-02-06T19:13:40.000Z</time>
      </trkpt>
      <trkpt lat="43.6901" lon="1.18377">
        <ele>204.80000305176</ele>
        <time>2016-02-06T19:13:41.000Z</time>
      </trkpt>
      <trkpt lat="43.69021" lon="1.18397">
        <ele>204</ele>
        <time>2016-02-06T19:13:47.000Z</time>
      </trkpt>
      <trkpt lat="43.69031" lon="1.18414">
        <ele>202.60000610352</ele>
        <time>2016-02-06T19:13:52.000Z</time>
      </trkpt>
      <trkpt lat="43.69045" lon="1.18428">
        <ele>200.80000305176</ele>
        <time>2016-02-06T19:13:57.000Z</time>
      </trkpt>
      <trkpt lat="43.69047" lon="1.1843">
        <ele>200.60000610352</ele>
        <time>2016-02-06T19:13:58.000Z</time>
      </trkpt>
      <trkpt lat="43.69054" lon="1.18444">
        <ele>199.60000610352</ele>
        <time>2016-02-06T19:14:02.000Z</time>
      </trkpt>
      <trkpt lat="43.69056" lon="1.18447">
        <ele>199.39999389648</ele>
        <time>2016-02-06T19:14:03.000Z</time>
      </trkpt>
      <trkpt lat="43.69062" lon="1.18446">
        <ele>198.39999389648</ele>
        <time>2016-02-06T19:14:06.000Z</time>
      </trkpt>
      <trkpt lat="43.69068" lon="1.18441">
        <ele>197.60000610352</ele>
        <time>2016-02-06T19:14:10.000Z</time>
      </trkpt>
      <trkpt lat="43.6907" lon="1.1844">
        <ele>197.19999694824</ele>
        <time>2016-02-06T19:14:12.000Z</time>
      </trkpt>
      <trkpt lat="43.69072" lon="1.18439">
        <ele>197</ele>
        <time>2016-02-06T19:14:13.000Z</time>
      </trkpt>
      <trkpt lat="43.6908" lon="1.18441">
        <ele>196</ele>
        <time>2016-02-06T19:14:18.000Z</time>
      </trkpt>
      <trkpt lat="43.69083" lon="1.18441">
        <ele>195.60000610352</ele>
        <time>2016-02-06T19:14:20.000Z</time>
      </trkpt>
      <trkpt lat="43.69094" lon="1.18437">
        <ele>193.80000305176</ele>
        <time>2016-02-06T19:14:26.000Z</time>
      </trkpt>
      <trkpt lat="43.69096" lon="1.18437">
        <ele>193.39999389648</ele>
        <time>2016-02-06T19:14:27.000Z</time>
      </trkpt>
      <trkpt lat="43.69101" lon="1.18439">
        <ele>192.80000305176</ele>
        <time>2016-02-06T19:14:29.000Z</time>
      </trkpt>
      <trkpt lat="43.69111" lon="1.18436">
        <ele>192</ele>
        <time>2016-02-06T19:14:34.000Z</time>
      </trkpt>
      <trkpt lat="43.69112" lon="1.18436">
        <ele>192</ele>
        <time>2016-02-06T19:14:35.000Z</time>
      </trkpt>
      <trkpt lat="43.69113" lon="1.18435">
        <ele>191.80000305176</ele>
        <time>2016-02-06T19:14:37.000Z</time>
      </trkpt>
      <trkpt lat="43.69117" lon="1.18435">
        <ele>191.60000610352</ele>
        <time>2016-02-06T19:14:40.000Z</time>
      </trkpt>
      <trkpt lat="43.69126" lon="1.18432">
        <ele>191</ele>
        <time>2016-02-06T19:14:46.000Z</time>
      </trkpt>
      <trkpt lat="43.69128" lon="1.18433">
        <ele>191</ele>
        <time>2016-02-06T19:14:47.000Z</time>
      </trkpt>
      <trkpt lat="43.69129" lon="1.18433">
        <ele>191</ele>
        <time>2016-02-06T19:14:48.000Z</time>
      </trkpt>
      <trkpt lat="43.69137" lon="1.18436">
        <ele>190.39999389648</ele>
        <time>2016-02-06T19:14:52.000Z</time>
      </trkpt>
      <trkpt lat="43.69148" lon="1.18437">
        <ele>190</ele>
        <time>2016-02-06T19:14:56.000Z</time>
      </trkpt>
      <trkpt lat="43.69151" lon="1.18435">
        <ele>190.19999694824</ele>
        <time>2016-02-06T19:14:58.000Z</time>
      </trkpt>
      <trkpt lat="43.69157" lon="1.18431">
        <ele>190.39999389648</ele>
        <time>2016-02-06T19:15:03.000Z</time>
      </trkpt>
      <trkpt lat="43.69162" lon="1.18427">
        <ele>190.80000305176</ele>
        <time>2016-02-06T19:15:08.000Z</time>
      </trkpt>
      <trkpt lat="43.69165" lon="1.18425">
        <ele>191</ele>
        <time>2016-02-06T19:15:10.000Z</time>
      </trkpt>
      <trkpt lat="43.69171" lon="1.18428">
        <ele>190.80000305176</ele>
        <time>2016-02-06T19:15:13.000Z</time>
      </trkpt>
      <trkpt lat="43.69182" lon="1.18438">
        <ele>190.39999389648</ele>
        <time>2016-02-06T19:15:19.000Z</time>
      </trkpt>
      <trkpt lat="43.69186" lon="1.18449">
        <ele>189.80000305176</ele>
        <time>2016-02-06T19:15:23.000Z</time>
      </trkpt>
      <trkpt lat="43.69189" lon="1.18459">
        <ele>189.39999389648</ele>
        <time>2016-02-06T19:15:26.000Z</time>
      </trkpt>
      <trkpt lat="43.69198" lon="1.18472">
        <ele>190.19999694824</ele>
        <time>2016-02-06T19:15:31.000Z</time>
      </trkpt>
      <trkpt lat="43.69201" lon="1.18476">
        <ele>190.60000610352</ele>
        <time>2016-02-06T19:15:33.000Z</time>
      </trkpt>
      <trkpt lat="43.69215" lon="1.18487">
        <ele>192</ele>
        <time>2016-02-06T19:15:39.000Z</time>
      </trkpt>
      <trkpt lat="43.69226" lon="1.18494">
        <ele>193.19999694824</ele>
        <time>2016-02-06T19:15:44.000Z</time>
      </trkpt>
      <trkpt lat="43.69234" lon="1.18504">
        <ele>193.80000305176</ele>
        <time>2016-02-06T19:15:49.000Z</time>
      </trkpt>
      <trkpt lat="43.69234" lon="1.18506">
        <ele>193.80000305176</ele>
        <time>2016-02-06T19:15:50.000Z</time>
      </trkpt>
      <trkpt lat="43.69245" lon="1.18517">
        <ele>194.60000610352</ele>
        <time>2016-02-06T19:15:56.000Z</time>
      </trkpt>
      <trkpt lat="43.69253" lon="1.18525">
        <ele>195.39999389648</ele>
        <time>2016-02-06T19:16:01.000Z</time>
      </trkpt>
      <trkpt lat="43.69261" lon="1.18529">
        <ele>196.19999694824</ele>
        <time>2016-02-06T19:16:05.000Z</time>
      </trkpt>
      <trkpt lat="43.69263" lon="1.1853">
        <ele>196.39999389648</ele>
        <time>2016-02-06T19:16:06.000Z</time>
      </trkpt>
      <trkpt lat="43.69273" lon="1.18535">
        <ele>197.60000610352</ele>
        <time>2016-02-06T19:16:12.000Z</time>
      </trkpt>
      <trkpt lat="43.69277" lon="1.18539">
        <ele>197.39999389648</ele>
        <time>2016-02-06T19:16:16.000Z</time>
      </trkpt>
      <trkpt lat="43.6928" lon="1.18548">
        <ele>197</ele>
        <time>2016-02-06T19:16:23.000Z</time>
      </trkpt>
      <trkpt lat="43.6928" lon="1.18549">
        <ele>196.80000305176</ele>
        <time>2016-02-06T19:16:24.000Z</time>
      </trkpt>
      <trkpt lat="43.6928" lon="1.1855">
        <ele>196.80000305176</ele>
        <time>2016-02-06T19:16:25.000Z</time>
      </trkpt>
      <trkpt lat="43.69283" lon="1.18561">
        <ele>196.19999694824</ele>
        <time>2016-02-06T19:16:33.000Z</time>
      </trkpt>
      <trkpt lat="43.69284" lon="1.18564">
        <ele>196</ele>
        <time>2016-02-06T19:16:35.000Z</time>
      </trkpt>
      <trkpt lat="43.69289" lon="1.18571">
        <ele>196.19999694824</ele>
        <time>2016-02-06T19:16:39.000Z</time>
      </trkpt>
      <trkpt lat="43.69294" lon="1.18566">
        <ele>196.80000305176</ele>
        <time>2016-02-06T19:16:42.000Z</time>
      </trkpt>
      <trkpt lat="43.69304" lon="1.18557">
        <ele>198.19999694824</ele>
        <time>2016-02-06T19:16:48.000Z</time>
      </trkpt>
      <trkpt lat="43.69306" lon="1.18555">
        <ele>198.60000610352</ele>
        <time>2016-02-06T19:16:50.000Z</time>
      </trkpt>
      <trkpt lat="43.69318" lon="1.18554">
        <ele>199.60000610352</ele>
        <time>2016-02-06T19:16:56.000Z</time>
      </trkpt>
      <trkpt lat="43.6932" lon="1.18555">
        <ele>199.80000305176</ele>
        <time>2016-02-06T19:16:57.000Z</time>
      </trkpt>
      <trkpt lat="43.69334" lon="1.18551">
        <ele>201.19999694824</ele>
        <time>2016-02-06T19:17:04.000Z</time>
      </trkpt>
      <trkpt lat="43.69342" lon="1.18542">
        <ele>202.39999389648</ele>
        <time>2016-02-06T19:17:09.000Z</time>
      </trkpt>
      <trkpt lat="43.69351" lon="1.1853">
        <ele>203.39999389648</ele>
        <time>2016-02-06T19:17:14.000Z</time>
      </trkpt>
      <trkpt lat="43.69358" lon="1.18521">
        <ele>203.80000305176</ele>
        <time>2016-02-06T19:17:19.000Z</time>
      </trkpt>
      <trkpt lat="43.69362" lon="1.1852">
        <ele>203.80000305176</ele>
        <time>2016-02-06T19:17:21.000Z</time>
      </trkpt>
      <trkpt lat="43.6937" lon="1.18532">
        <ele>202.80000305176</ele>
        <time>2016-02-06T19:17:25.000Z</time>
      </trkpt>
      <trkpt lat="43.69378" lon="1.18554">
        <ele>201.39999389648</ele>
        <time>2016-02-06T19:17:31.000Z</time>
      </trkpt>
      <trkpt lat="43.69385" lon="1.18569">
        <ele>200.39999389648</ele>
        <time>2016-02-06T19:17:35.000Z</time>
      </trkpt>
      <trkpt lat="43.69391" lon="1.18579">
        <ele>199.80000305176</ele>
        <time>2016-02-06T19:17:38.000Z</time>
      </trkpt>
      <trkpt lat="43.69402" lon="1.18577">
        <ele>199.39999389648</ele>
        <time>2016-02-06T19:17:42.000Z</time>
      </trkpt>
      <trkpt lat="43.69405" lon="1.18573">
        <ele>199.60000610352</ele>
        <time>2016-02-06T19:17:44.000Z</time>
      </trkpt>
      <trkpt lat="43.69416" lon="1.18563">
        <ele>199.60000610352</ele>
        <time>2016-02-06T19:17:50.000Z</time>
      </trkpt>
      <trkpt lat="43.69426" lon="1.18552">
        <ele>199.80000305176</ele>
        <time>2016-02-06T19:17:55.000Z</time>
      </trkpt>
      <trkpt lat="43.69443" lon="1.18537">
        <ele>199.39999389648</ele>
        <time>2016-02-06T19:18:02.000Z</time>
      </trkpt>
      <trkpt lat="43.69459" lon="1.18523">
        <ele>198.80000305176</ele>
        <time>2016-02-06T19:18:08.000Z</time>
      </trkpt>
      <trkpt lat="43.69461" lon="1.1852">
        <ele>198.80000305176</ele>
        <time>2016-02-06T19:18:09.000Z</time>
      </trkpt>
      <trkpt lat="43.69471" lon="1.18511">
        <ele>198.60000610352</ele>
        <time>2016-02-06T19:18:13.000Z</time>
      </trkpt>
      <trkpt lat="43.69487" lon="1.18498">
        <ele>199.60000610352</ele>
        <time>2016-02-06T19:18:19.000Z</time>
      </trkpt>
      <trkpt lat="43.69498" lon="1.18487">
        <ele>200.39999389648</ele>
        <time>2016-02-06T19:18:24.000Z</time>
      </trkpt>
      <trkpt lat="43.69514" lon="1.18474">
        <ele>201.39999389648</ele>
        <time>2016-02-06T19:18:30.000Z</time>
      </trkpt>
      <trkpt lat="43.69524" lon="1.18466">
        <ele>201.39999389648</ele>
        <time>2016-02-06T19:18:34.000Z</time>
      </trkpt>
      <trkpt lat="43.69536" lon="1.18452">
        <ele>201.39999389648</ele>
        <time>2016-02-06T19:18:40.000Z</time>
      </trkpt>
      <trkpt lat="43.69545" lon="1.18443">
        <ele>201.39999389648</ele>
        <time>2016-02-06T19:18:44.000Z</time>
      </trkpt>
      <trkpt lat="43.69556" lon="1.18446">
        <ele>200.80000305176</ele>
        <time>2016-02-06T19:18:48.000Z</time>
      </trkpt>
      <trkpt lat="43.6957" lon="1.18462">
        <ele>199.39999389648</ele>
        <time>2016-02-06T19:18:54.000Z</time>
      </trkpt>
      <trkpt lat="43.69581" lon="1.18483">
        <ele>197.80000305176</ele>
        <time>2016-02-06T19:19:00.000Z</time>
      </trkpt>
      <trkpt lat="43.69586" lon="1.18489">
        <ele>197.19999694824</ele>
        <time>2016-02-06T19:19:02.000Z</time>
      </trkpt>
      <trkpt lat="43.69597" lon="1.18491">
        <ele>196.60000610352</ele>
        <time>2016-02-06T19:19:06.000Z</time>
      </trkpt>
      <trkpt lat="43.696" lon="1.18494">
        <ele>196.19999694824</ele>
        <time>2016-02-06T19:19:07.000Z</time>
      </trkpt>
      <trkpt lat="43.69611" lon="1.18513">
        <ele>194.80000305176</ele>
        <time>2016-02-06T19:19:13.000Z</time>
      </trkpt>
      <trkpt lat="43.69617" lon="1.18524">
        <ele>194</ele>
        <time>2016-02-06T19:19:18.000Z</time>
      </trkpt>
      <trkpt lat="43.69621" lon="1.18532">
        <ele>193.60000610352</ele>
        <time>2016-02-06T19:19:22.000Z</time>
      </trkpt>
      <trkpt lat="43.69632" lon="1.18545">
        <ele>192.60000610352</ele>
        <time>2016-02-06T19:19:28.000Z</time>
      </trkpt>
      <trkpt lat="43.69642" lon="1.18555">
        <ele>192</ele>
        <time>2016-02-06T19:19:33.000Z</time>
      </trkpt>
      <trkpt lat="43.69654" lon="1.18566">
        <ele>191.39999389648</ele>
        <time>2016-02-06T19:19:39.000Z</time>
      </trkpt>
      <trkpt lat="43.6967" lon="1.1858">
        <ele>191</ele>
        <time>2016-02-06T19:19:46.000Z</time>
      </trkpt>
      <trkpt lat="43.69678" lon="1.18588">
        <ele>190.80000305176</ele>
        <time>2016-02-06T19:19:50.000Z</time>
      </trkpt>
      <trkpt lat="43.69686" lon="1.18598">
        <ele>190.60000610352</ele>
        <time>2016-02-06T19:19:55.000Z</time>
      </trkpt>
      <trkpt lat="43.69697" lon="1.18607">
        <ele>190.39999389648</ele>
        <time>2016-02-06T19:20:00.000Z</time>
      </trkpt>
      <trkpt lat="43.69706" lon="1.18618">
        <ele>190</ele>
        <time>2016-02-06T19:20:05.000Z</time>
      </trkpt>
      <trkpt lat="43.69716" lon="1.18629">
        <ele>189.80000305176</ele>
        <time>2016-02-06T19:20:10.000Z</time>
      </trkpt>
      <trkpt lat="43.69723" lon="1.18635">
        <ele>189.60000610352</ele>
        <time>2016-02-06T19:20:13.000Z</time>
      </trkpt>
      <trkpt lat="43.69734" lon="1.18647">
        <ele>189.39999389648</ele>
        <time>2016-02-06T19:20:19.000Z</time>
      </trkpt>
      <trkpt lat="43.6974" lon="1.18652">
        <ele>189</ele>
        <time>2016-02-06T19:20:22.000Z</time>
      </trkpt>
      <trkpt lat="43.69747" lon="1.1864">
        <ele>189.39999389648</ele>
        <time>2016-02-06T19:20:26.000Z</time>
      </trkpt>
      <trkpt lat="43.69757" lon="1.18618">
        <ele>189.19999694824</ele>
        <time>2016-02-06T19:20:32.000Z</time>
      </trkpt>
      <trkpt lat="43.69761" lon="1.18603">
        <ele>188.80000305176</ele>
        <time>2016-02-06T19:20:36.000Z</time>
      </trkpt>
      <trkpt lat="43.69768" lon="1.18581">
        <ele>188.39999389648</ele>
        <time>2016-02-06T19:20:42.000Z</time>
      </trkpt>
      <trkpt lat="43.69774" lon="1.18564">
        <ele>187.80000305176</ele>
        <time>2016-02-06T19:20:47.000Z</time>
      </trkpt>
      <trkpt lat="43.6978" lon="1.18551">
        <ele>187.60000610352</ele>
        <time>2016-02-06T19:20:51.000Z</time>
      </trkpt>
      <trkpt lat="43.69786" lon="1.18537">
        <ele>187.39999389648</ele>
        <time>2016-02-06T19:20:55.000Z</time>
      </trkpt>
      <trkpt lat="43.69793" lon="1.18522">
        <ele>187.19999694824</ele>
        <time>2016-02-06T19:21:00.000Z</time>
      </trkpt>
      <trkpt lat="43.69802" lon="1.185">
        <ele>186.80000305176</ele>
        <time>2016-02-06T19:21:06.000Z</time>
      </trkpt>
      <trkpt lat="43.69809" lon="1.18482">
        <ele>186.60000610352</ele>
        <time>2016-02-06T19:21:11.000Z</time>
      </trkpt>
      <trkpt lat="43.6981" lon="1.18474">
        <ele>186.60000610352</ele>
        <time>2016-02-06T19:21:13.000Z</time>
      </trkpt>
      <trkpt lat="43.6981" lon="1.18454">
        <ele>186.80000305176</ele>
        <time>2016-02-06T19:21:18.000Z</time>
      </trkpt>
      <trkpt lat="43.6982" lon="1.18432">
        <ele>186.80000305176</ele>
        <time>2016-02-06T19:21:25.000Z</time>
      </trkpt>
      <trkpt lat="43.69833" lon="1.18416">
        <ele>186.39999389648</ele>
        <time>2016-02-06T19:21:31.000Z</time>
      </trkpt>
      <trkpt lat="43.69836" lon="1.18414">
        <ele>186.39999389648</ele>
        <time>2016-02-06T19:21:32.000Z</time>
      </trkpt>
      <trkpt lat="43.69853" lon="1.18416">
        <ele>185.80000305176</ele>
        <time>2016-02-06T19:21:38.000Z</time>
      </trkpt>
      <trkpt lat="43.69858" lon="1.18405">
        <ele>185.80000305176</ele>
        <time>2016-02-06T19:21:42.000Z</time>
      </trkpt>
      <trkpt lat="43.69865" lon="1.18388">
        <ele>186.39999389648</ele>
        <time>2016-02-06T19:21:47.000Z</time>
      </trkpt>
      <trkpt lat="43.6987" lon="1.1838">
        <ele>186.60000610352</ele>
        <time>2016-02-06T19:21:50.000Z</time>
      </trkpt>
      <trkpt lat="43.69875" lon="1.18365">
        <ele>186.80000305176</ele>
        <time>2016-02-06T19:21:55.000Z</time>
      </trkpt>
      <trkpt lat="43.69874" lon="1.18345">
        <ele>187.19999694824</ele>
        <time>2016-02-06T19:22:00.000Z</time>
      </trkpt>
      <trkpt lat="43.69882" lon="1.1833">
        <ele>187.60000610352</ele>
        <time>2016-02-06T19:22:05.000Z</time>
      </trkpt>
      <trkpt lat="43.69884" lon="1.1833">
        <ele>187.60000610352</ele>
        <time>2016-02-06T19:22:06.000Z</time>
      </trkpt>
      <trkpt lat="43.69898" lon="1.18337">
        <ele>188</ele>
        <time>2016-02-06T19:22:12.000Z</time>
      </trkpt>
      <trkpt lat="43.69904" lon="1.18341">
        <ele>188.19999694824</ele>
        <time>2016-02-06T19:22:15.000Z</time>
      </trkpt>
      <trkpt lat="43.69917" lon="1.18346">
        <ele>188.39999389648</ele>
        <time>2016-02-06T19:22:20.000Z</time>
      </trkpt>
      <trkpt lat="43.69932" lon="1.18343">
        <ele>189</ele>
        <time>2016-02-06T19:22:25.000Z</time>
      </trkpt>
      <trkpt lat="43.69944" lon="1.18337">
        <ele>189.39999389648</ele>
        <time>2016-02-06T19:22:29.000Z</time>
      </trkpt>
      <trkpt lat="43.69958" lon="1.18329">
        <ele>189.60000610352</ele>
        <time>2016-02-06T19:22:34.000Z</time>
      </trkpt>
      <trkpt lat="43.69969" lon="1.18317">
        <ele>188.60000610352</ele>
        <time>2016-02-06T19:22:39.000Z</time>
      </trkpt>
      <trkpt lat="43.69977" lon="1.18302">
        <ele>187.60000610352</ele>
        <time>2016-02-06T19:22:44.000Z</time>
      </trkpt>
      <trkpt lat="43.69986" lon="1.18287">
        <ele>186.39999389648</ele>
        <time>2016-02-06T19:22:49.000Z</time>
      </trkpt>
      <trkpt lat="43.69997" lon="1.18268">
        <ele>186.19999694824</ele>
        <time>2016-02-06T19:22:55.000Z</time>
      </trkpt>
      <trkpt lat="43.70007" lon="1.18244">
        <ele>186.60000610352</ele>
        <time>2016-02-06T19:23:02.000Z</time>
      </trkpt>
      <trkpt lat="43.70017" lon="1.1822">
        <ele>187.19999694824</ele>
        <time>2016-02-06T19:23:09.000Z</time>
      </trkpt>
      <trkpt lat="43.70022" lon="1.18202">
        <ele>187.60000610352</ele>
        <time>2016-02-06T19:23:14.000Z</time>
      </trkpt>
      <trkpt lat="43.70027" lon="1.18185">
        <ele>188</ele>
        <time>2016-02-06T19:23:19.000Z</time>
      </trkpt>
      <trkpt lat="43.70029" lon="1.18181">
        <ele>188.19999694824</ele>
        <time>2016-02-06T19:23:20.000Z</time>
      </trkpt>
      <trkpt lat="43.70029" lon="1.1817">
        <ele>188.39999389648</ele>
        <time>2016-02-06T19:23:23.000Z</time>
      </trkpt>
      <trkpt lat="43.70018" lon="1.1816">
        <ele>188.60000610352</ele>
        <time>2016-02-06T19:23:28.000Z</time>
      </trkpt>
      <trkpt lat="43.70011" lon="1.18155">
        <ele>188.80000305176</ele>
        <time>2016-02-06T19:23:31.000Z</time>
      </trkpt>
      <trkpt lat="43.70006" lon="1.18151">
        <ele>188.80000305176</ele>
        <time>2016-02-06T19:23:33.000Z</time>
      </trkpt>
      <trkpt lat="43.69996" lon="1.18144">
        <ele>189</ele>
        <time>2016-02-06T19:23:37.000Z</time>
      </trkpt>
      <trkpt lat="43.69995" lon="1.18143">
        <ele>189</ele>
        <time>2016-02-06T19:23:38.000Z</time>
      </trkpt>
      <trkpt lat="43.69993" lon="1.18141">
        <ele>189.19999694824</ele>
        <time>2016-02-06T19:23:39.000Z</time>
      </trkpt>
      <trkpt lat="43.69987" lon="1.1813">
        <ele>189.80000305176</ele>
        <time>2016-02-06T19:23:43.000Z</time>
      </trkpt>
      <trkpt lat="43.69984" lon="1.18109">
        <ele>190.60000610352</ele>
        <time>2016-02-06T19:23:49.000Z</time>
      </trkpt>
      <trkpt lat="43.69982" lon="1.18095">
        <ele>191</ele>
        <time>2016-02-06T19:23:53.000Z</time>
      </trkpt>
      <trkpt lat="43.69981" lon="1.18073">
        <ele>191.19999694824</ele>
        <time>2016-02-06T19:23:59.000Z</time>
      </trkpt>
      <trkpt lat="43.69981" lon="1.18059">
        <ele>191.60000610352</ele>
        <time>2016-02-06T19:24:03.000Z</time>
      </trkpt>
      <trkpt lat="43.69981" lon="1.18045">
        <ele>192.80000305176</ele>
        <time>2016-02-06T19:24:07.000Z</time>
      </trkpt>
      <trkpt lat="43.69982" lon="1.18025">
        <ele>194.39999389648</ele>
        <time>2016-02-06T19:24:12.000Z</time>
      </trkpt>
      <trkpt lat="43.69986" lon="1.18013">
        <ele>194.60000610352</ele>
        <time>2016-02-06T19:24:16.000Z</time>
      </trkpt>
      <trkpt lat="43.69999" lon="1.18002">
        <ele>194</ele>
        <time>2016-02-06T19:24:22.000Z</time>
      </trkpt>
      <trkpt lat="43.70001" lon="1.18001">
        <ele>193.80000305176</ele>
        <time>2016-02-06T19:24:23.000Z</time>
      </trkpt>
      <trkpt lat="43.70013" lon="1.17992">
        <ele>193.19999694824</ele>
        <time>2016-02-06T19:24:28.000Z</time>
      </trkpt>
      <trkpt lat="43.70015" lon="1.1799">
        <ele>193</ele>
        <time>2016-02-06T19:24:29.000Z</time>
      </trkpt>
      <trkpt lat="43.70027" lon="1.1798">
        <ele>192.60000610352</ele>
        <time>2016-02-06T19:24:34.000Z</time>
      </trkpt>
      <trkpt lat="43.70031" lon="1.17975">
        <ele>192.19999694824</ele>
        <time>2016-02-06T19:24:36.000Z</time>
      </trkpt>
      <trkpt lat="43.70042" lon="1.17975">
        <ele>191.39999389648</ele>
        <time>2016-02-06T19:24:40.000Z</time>
      </trkpt>
      <trkpt lat="43.70049" lon="1.17978">
        <ele>191</ele>
        <time>2016-02-06T19:24:43.000Z</time>
      </trkpt>
      <trkpt lat="43.70064" lon="1.17981">
        <ele>189.80000305176</ele>
        <time>2016-02-06T19:24:49.000Z</time>
      </trkpt>
      <trkpt lat="43.7008" lon="1.17985">
        <ele>188.80000305176</ele>
        <time>2016-02-06T19:24:55.000Z</time>
      </trkpt>
      <trkpt lat="43.70093" lon="1.17988">
        <ele>188</ele>
        <time>2016-02-06T19:25:00.000Z</time>
      </trkpt>
      <trkpt lat="43.70104" lon="1.17992">
        <ele>187.39999389648</ele>
        <time>2016-02-06T19:25:04.000Z</time>
      </trkpt>
      <trkpt lat="43.70114" lon="1.17995">
        <ele>187.19999694824</ele>
        <time>2016-02-06T19:25:09.000Z</time>
      </trkpt>
      <trkpt lat="43.70131" lon="1.18">
        <ele>187.19999694824</ele>
        <time>2016-02-06T19:25:16.000Z</time>
      </trkpt>
      <trkpt lat="43.70143" lon="1.18003">
        <ele>187.19999694824</ele>
        <time>2016-02-06T19:25:20.000Z</time>
      </trkpt>
      <trkpt lat="43.70153" lon="1.18006">
        <ele>187</ele>
        <time>2016-02-06T19:25:24.000Z</time>
      </trkpt>
      <trkpt lat="43.70163" lon="1.18009">
        <ele>187</ele>
        <time>2016-02-06T19:25:28.000Z</time>
      </trkpt>
      <trkpt lat="43.70168" lon="1.18006">
        <ele>186.80000305176</ele>
        <time>2016-02-06T19:25:30.000Z</time>
      </trkpt>
      <trkpt lat="43.70176" lon="1.17999">
        <ele>186.60000610352</ele>
        <time>2016-02-06T19:25:34.000Z</time>
      </trkpt>
      <trkpt lat="43.70185" lon="1.17997">
        <ele>186.39999389648</ele>
        <time>2016-02-06T19:25:39.000Z</time>
      </trkpt>
      <trkpt lat="43.70188" lon="1.17998">
        <ele>186.39999389648</ele>
        <time>2016-02-06T19:25:41.000Z</time>
      </trkpt>
      <trkpt lat="43.7019" lon="1.17999">
        <ele>186.19999694824</ele>
        <time>2016-02-06T19:25:43.000Z</time>
      </trkpt>
      <trkpt lat="43.70199" lon="1.17995">
        <ele>185.60000610352</ele>
        <time>2016-02-06T19:25:47.000Z</time>
      </trkpt>
      <trkpt lat="43.70204" lon="1.17989">
        <ele>185.19999694824</ele>
        <time>2016-02-06T19:25:50.000Z</time>
      </trkpt>
      <trkpt lat="43.70207" lon="1.17978">
        <ele>185</ele>
        <time>2016-02-06T19:25:54.000Z</time>
      </trkpt>
      <trkpt lat="43.70213" lon="1.17982">
        <ele>184.80000305176</ele>
        <time>2016-02-06T19:25:58.000Z</time>
      </trkpt>
      <trkpt lat="43.7022" lon="1.1799">
        <ele>184.39999389648</ele>
        <time>2016-02-06T19:26:01.000Z</time>
      </trkpt>
      <trkpt lat="43.70227" lon="1.17999">
        <ele>184</ele>
        <time>2016-02-06T19:26:06.000Z</time>
      </trkpt>
      <trkpt lat="43.70232" lon="1.17995">
        <ele>183.80000305176</ele>
        <time>2016-02-06T19:26:09.000Z</time>
      </trkpt>
      <trkpt lat="43.70235" lon="1.17993">
        <ele>183.80000305176</ele>
        <time>2016-02-06T19:26:11.000Z</time>
      </trkpt>
      <trkpt lat="43.70239" lon="1.1799">
        <ele>183.39999389648</ele>
        <time>2016-02-06T19:26:15.000Z</time>
      </trkpt>
      <trkpt lat="43.70237" lon="1.17986">
        <ele>183.60000610352</ele>
        <time>2016-02-06T19:26:18.000Z</time>
      </trkpt>
      <trkpt lat="43.70244" lon="1.17968">
        <ele>183.19999694824</ele>
        <time>2016-02-06T19:26:24.000Z</time>
      </trkpt>
      <trkpt lat="43.70245" lon="1.17961">
        <ele>183</ele>
        <time>2016-02-06T19:26:26.000Z</time>
      </trkpt>
      <trkpt lat="43.70251" lon="1.17942">
        <ele>182.60000610352</ele>
        <time>2016-02-06T19:26:32.000Z</time>
      </trkpt>
      <trkpt lat="43.7026" lon="1.17937">
        <ele>182.39999389648</ele>
        <time>2016-02-06T19:26:36.000Z</time>
      </trkpt>
      <trkpt lat="43.70264" lon="1.17924">
        <ele>182.19999694824</ele>
        <time>2016-02-06T19:26:40.000Z</time>
      </trkpt>
      <trkpt lat="43.70265" lon="1.17921">
        <ele>182.19999694824</ele>
        <time>2016-02-06T19:26:41.000Z</time>
      </trkpt>
      <trkpt lat="43.70268" lon="1.17916">
        <ele>182</ele>
        <time>2016-02-06T19:26:43.000Z</time>
      </trkpt>
      <trkpt lat="43.70271" lon="1.179">
        <ele>181.80000305176</ele>
        <time>2016-02-06T19:26:48.000Z</time>
      </trkpt>
      <trkpt lat="43.70275" lon="1.17886">
        <ele>181.60000610352</ele>
        <time>2016-02-06T19:26:52.000Z</time>
      </trkpt>
      <trkpt lat="43.70275" lon="1.17883">
        <ele>181.60000610352</ele>
        <time>2016-02-06T19:26:53.000Z</time>
      </trkpt>
      <trkpt lat="43.70281" lon="1.17866">
        <ele>181.19999694824</ele>
        <time>2016-02-06T19:26:58.000Z</time>
      </trkpt>
      <trkpt lat="43.70286" lon="1.17861">
        <ele>180.80000305176</ele>
        <time>2016-02-06T19:27:00.000Z</time>
      </trkpt>
      <trkpt lat="43.70294" lon="1.17851">
        <ele>179.80000305176</ele>
        <time>2016-02-06T19:27:04.000Z</time>
      </trkpt>
      <trkpt lat="43.70301" lon="1.17843">
        <ele>179</ele>
        <time>2016-02-06T19:27:07.000Z</time>
      </trkpt>
      <trkpt lat="43.70305" lon="1.17837">
        <ele>179</ele>
        <time>2016-02-06T19:27:09.000Z</time>
      </trkpt>
      <trkpt lat="43.70331" lon="1.17819">
        <ele>177</ele>
        <time>2016-02-06T19:27:19.000Z</time>
      </trkpt>
      <trkpt lat="43.70342" lon="1.17806">
        <ele>176.39999389648</ele>
        <time>2016-02-06T19:27:24.000Z</time>
      </trkpt>
      <trkpt lat="43.70345" lon="1.17797">
        <ele>176</ele>
        <time>2016-02-06T19:27:27.000Z</time>
      </trkpt>
      <trkpt lat="43.70348" lon="1.17773">
        <ele>175.60000610352</ele>
        <time>2016-02-06T19:27:34.000Z</time>
      </trkpt>
      <trkpt lat="43.70353" lon="1.17754">
        <ele>175</ele>
        <time>2016-02-06T19:27:40.000Z</time>
      </trkpt>
      <trkpt lat="43.70353" lon="1.17737">
        <ele>175</ele>
        <time>2016-02-06T19:27:45.000Z</time>
      </trkpt>
      <trkpt lat="43.70354" lon="1.17734">
        <ele>175</ele>
        <time>2016-02-06T19:27:46.000Z</time>
      </trkpt>
      <trkpt lat="43.70355" lon="1.17727">
        <ele>174.60000610352</ele>
        <time>2016-02-06T19:27:50.000Z</time>
      </trkpt>
      <trkpt lat="43.70355" lon="1.17723">
        <ele>174.60000610352</ele>
        <time>2016-02-06T19:27:51.000Z</time>
      </trkpt>
      <trkpt lat="43.7035" lon="1.17706">
        <ele>175.39999389648</ele>
        <time>2016-02-06T19:27:57.000Z</time>
      </trkpt>
      <trkpt lat="43.70348" lon="1.17701">
        <ele>175.60000610352</ele>
        <time>2016-02-06T19:27:59.000Z</time>
      </trkpt>
      <trkpt lat="43.70341" lon="1.1768">
        <ele>176.39999389648</ele>
        <time>2016-02-06T19:28:06.000Z</time>
      </trkpt>
      <trkpt lat="43.70339" lon="1.17665">
        <ele>176.80000305176</ele>
        <time>2016-02-06T19:28:11.000Z</time>
      </trkpt>
      <trkpt lat="43.7034" lon="1.17646">
        <ele>176.60000610352</ele>
        <time>2016-02-06T19:28:17.000Z</time>
      </trkpt>
      <trkpt lat="43.70341" lon="1.17633">
        <ele>176.19999694824</ele>
        <time>2016-02-06T19:28:21.000Z</time>
      </trkpt>
      <trkpt lat="43.70341" lon="1.17613">
        <ele>176.60000610352</ele>
        <time>2016-02-06T19:28:27.000Z</time>
      </trkpt>
      <trkpt lat="43.70339" lon="1.17599">
        <ele>177</ele>
        <time>2016-02-06T19:28:31.000Z</time>
      </trkpt>
      <trkpt lat="43.70338" lon="1.17587">
        <ele>177.19999694824</ele>
        <time>2016-02-06T19:28:35.000Z</time>
      </trkpt>
      <trkpt lat="43.70341" lon="1.17565">
        <ele>177.19999694824</ele>
        <time>2016-02-06T19:28:42.000Z</time>
      </trkpt>
      <trkpt lat="43.70342" lon="1.17563">
        <ele>177</ele>
        <time>2016-02-06T19:28:43.000Z</time>
      </trkpt>
      <trkpt lat="43.70351" lon="1.17554">
        <ele>175.80000305176</ele>
        <time>2016-02-06T19:28:47.000Z</time>
      </trkpt>
      <trkpt lat="43.70365" lon="1.17544">
        <ele>173</ele>
        <time>2016-02-06T19:28:52.000Z</time>
      </trkpt>
      <trkpt lat="43.70374" lon="1.17531">
        <ele>170.60000610352</ele>
        <time>2016-02-06T19:28:57.000Z</time>
      </trkpt>
      <trkpt lat="43.70376" lon="1.17527">
        <ele>170</ele>
        <time>2016-02-06T19:28:58.000Z</time>
      </trkpt>
      <trkpt lat="43.70384" lon="1.17507">
        <ele>167.60000610352</ele>
        <time>2016-02-06T19:29:03.000Z</time>
      </trkpt>
      <trkpt lat="43.70391" lon="1.17492">
        <ele>167.39999389648</ele>
        <time>2016-02-06T19:29:07.000Z</time>
      </trkpt>
      <trkpt lat="43.70405" lon="1.17457">
        <ele>166.80000305176</ele>
        <time>2016-02-06T19:29:17.000Z</time>
      </trkpt>
      <trkpt lat="43.70418" lon="1.1744">
        <ele>165.60000610352</ele>
        <time>2016-02-06T19:29:23.000Z</time>
      </trkpt>
      <trkpt lat="43.70435" lon="1.17422">
        <ele>164.60000610352</ele>
        <time>2016-02-06T19:29:29.000Z</time>
      </trkpt>
      <trkpt lat="43.70449" lon="1.17405">
        <ele>163.60000610352</ele>
        <time>2016-02-06T19:29:35.000Z</time>
      </trkpt>
      <trkpt lat="43.70459" lon="1.17396">
        <ele>162.60000610352</ele>
        <time>2016-02-06T19:29:39.000Z</time>
      </trkpt>
      <trkpt lat="43.70471" lon="1.17384">
        <ele>161</ele>
        <time>2016-02-06T19:29:44.000Z</time>
      </trkpt>
      <trkpt lat="43.70473" lon="1.17378">
        <ele>160.60000610352</ele>
        <time>2016-02-06T19:29:46.000Z</time>
      </trkpt>
      <trkpt lat="43.70469" lon="1.17361">
        <ele>160.39999389648</ele>
        <time>2016-02-06T19:29:51.000Z</time>
      </trkpt>
      <trkpt lat="43.7046" lon="1.17352">
        <ele>161</ele>
        <time>2016-02-06T19:29:55.000Z</time>
      </trkpt>
      <trkpt lat="43.70454" lon="1.1734">
        <ele>161.19999694824</ele>
        <time>2016-02-06T19:29:59.000Z</time>
      </trkpt>
      <trkpt lat="43.7045" lon="1.17314">
        <ele>161.39999389648</ele>
        <time>2016-02-06T19:30:06.000Z</time>
      </trkpt>
      <trkpt lat="43.70448" lon="1.17291">
        <ele>160.80000305176</ele>
        <time>2016-02-06T19:30:12.000Z</time>
      </trkpt>
      <trkpt lat="43.70447" lon="1.17272">
        <ele>160.19999694824</ele>
        <time>2016-02-06T19:30:17.000Z</time>
      </trkpt>
      <trkpt lat="43.70444" lon="1.17247">
        <ele>159.39999389648</ele>
        <time>2016-02-06T19:30:24.000Z</time>
      </trkpt>
      <trkpt lat="43.70443" lon="1.17228">
        <ele>158.80000305176</ele>
        <time>2016-02-06T19:30:29.000Z</time>
      </trkpt>
      <trkpt lat="43.70442" lon="1.17216">
        <ele>158.80000305176</ele>
        <time>2016-02-06T19:30:32.000Z</time>
      </trkpt>
      <trkpt lat="43.70441" lon="1.17199">
        <ele>158.60000610352</ele>
        <time>2016-02-06T19:30:37.000Z</time>
      </trkpt>
      <trkpt lat="43.70436" lon="1.17182">
        <ele>158.60000610352</ele>
        <time>2016-02-06T19:30:42.000Z</time>
      </trkpt>
      <trkpt lat="43.7043" lon="1.17165">
        <ele>159.39999389648</ele>
        <time>2016-02-06T19:30:47.000Z</time>
      </trkpt>
      <trkpt lat="43.70423" lon="1.17152">
        <ele>160.19999694824</ele>
        <time>2016-02-06T19:30:51.000Z</time>
      </trkpt>
      <trkpt lat="43.70418" lon="1.17135">
        <ele>161</ele>
        <time>2016-02-06T19:30:56.000Z</time>
      </trkpt>
      <trkpt lat="43.70414" lon="1.17121">
        <ele>161.80000305176</ele>
        <time>2016-02-06T19:31:00.000Z</time>
      </trkpt>
      <trkpt lat="43.70414" lon="1.17099">
        <ele>162.39999389648</ele>
        <time>2016-02-06T19:31:06.000Z</time>
      </trkpt>
      <trkpt lat="43.70418" lon="1.17082">
        <ele>162.19999694824</ele>
        <time>2016-02-06T19:31:11.000Z</time>
      </trkpt>
      <trkpt lat="43.70422" lon="1.17073">
        <ele>161.80000305176</ele>
        <time>2016-02-06T19:31:14.000Z</time>
      </trkpt>
      <trkpt lat="43.70426" lon="1.17058">
        <ele>161.39999389648</ele>
        <time>2016-02-06T19:31:19.000Z</time>
      </trkpt>
      <trkpt lat="43.70428" lon="1.17052">
        <ele>160.60000610352</ele>
        <time>2016-02-06T19:31:21.000Z</time>
      </trkpt>
      <trkpt lat="43.70433" lon="1.17036">
        <ele>160</ele>
        <time>2016-02-06T19:31:26.000Z</time>
      </trkpt>
      <trkpt lat="43.70438" lon="1.17018">
        <ele>159.39999389648</ele>
        <time>2016-02-06T19:31:31.000Z</time>
      </trkpt>
      <trkpt lat="43.70443" lon="1.17008">
        <ele>159.19999694824</ele>
        <time>2016-02-06T19:31:34.000Z</time>
      </trkpt>
      <trkpt lat="43.70448" lon="1.16995">
        <ele>159</ele>
        <time>2016-02-06T19:31:38.000Z</time>
      </trkpt>
      <trkpt lat="43.7045" lon="1.16979">
        <ele>158.80000305176</ele>
        <time>2016-02-06T19:31:42.000Z</time>
      </trkpt>
      <trkpt lat="43.7045" lon="1.16958">
        <ele>158.60000610352</ele>
        <time>2016-02-06T19:31:48.000Z</time>
      </trkpt>
      <trkpt lat="43.70448" lon="1.16942">
        <ele>158.39999389648</ele>
        <time>2016-02-06T19:31:52.000Z</time>
      </trkpt>
      <trkpt lat="43.7045" lon="1.16917">
        <ele>158.19999694824</ele>
        <time>2016-02-06T19:31:59.000Z</time>
      </trkpt>
      <trkpt lat="43.70452" lon="1.16899">
        <ele>158.19999694824</ele>
        <time>2016-02-06T19:32:04.000Z</time>
      </trkpt>
      <trkpt lat="43.70455" lon="1.16886">
        <ele>158.39999389648</ele>
        <time>2016-02-06T19:32:08.000Z</time>
      </trkpt>
      <trkpt lat="43.70463" lon="1.16867">
        <ele>158.60000610352</ele>
        <time>2016-02-06T19:32:14.000Z</time>
      </trkpt>
      <trkpt lat="43.70468" lon="1.1685">
        <ele>158.80000305176</ele>
        <time>2016-02-06T19:32:19.000Z</time>
      </trkpt>
      <trkpt lat="43.70473" lon="1.16833">
        <ele>159.39999389648</ele>
        <time>2016-02-06T19:32:24.000Z</time>
      </trkpt>
      <trkpt lat="43.70478" lon="1.16819">
        <ele>160.19999694824</ele>
        <time>2016-02-06T19:32:28.000Z</time>
      </trkpt>
      <trkpt lat="43.7048" lon="1.16799">
        <ele>161</ele>
        <time>2016-02-06T19:32:34.000Z</time>
      </trkpt>
      <trkpt lat="43.70482" lon="1.16779">
        <ele>161.80000305176</ele>
        <time>2016-02-06T19:32:40.000Z</time>
      </trkpt>
      <trkpt lat="43.70481" lon="1.1676">
        <ele>162.19999694824</ele>
        <time>2016-02-06T19:32:45.000Z</time>
      </trkpt>
      <trkpt lat="43.70481" lon="1.16743">
        <ele>162.39999389648</ele>
        <time>2016-02-06T19:32:50.000Z</time>
      </trkpt>
      <trkpt lat="43.7048" lon="1.16724">
        <ele>162.60000610352</ele>
        <time>2016-02-06T19:32:55.000Z</time>
      </trkpt>
      <trkpt lat="43.70476" lon="1.16704">
        <ele>162.19999694824</ele>
        <time>2016-02-06T19:33:01.000Z</time>
      </trkpt>
      <trkpt lat="43.70474" lon="1.16697">
        <ele>162</ele>
        <time>2016-02-06T19:33:03.000Z</time>
      </trkpt>
      <trkpt lat="43.70465" lon="1.16677">
        <ele>161.39999389648</ele>
        <time>2016-02-06T19:33:09.000Z</time>
      </trkpt>
      <trkpt lat="43.70456" lon="1.16657">
        <ele>161</ele>
        <time>2016-02-06T19:33:15.000Z</time>
      </trkpt>
      <trkpt lat="43.70445" lon="1.16636">
        <ele>160.39999389648</ele>
        <time>2016-02-06T19:33:22.000Z</time>
      </trkpt>
      <trkpt lat="43.70434" lon="1.16615">
        <ele>160</ele>
        <time>2016-02-06T19:33:29.000Z</time>
      </trkpt>
      <trkpt lat="43.70425" lon="1.166">
        <ele>160.19999694824</ele>
        <time>2016-02-06T19:33:34.000Z</time>
      </trkpt>
      <trkpt lat="43.70415" lon="1.16583">
        <ele>160.60000610352</ele>
        <time>2016-02-06T19:33:40.000Z</time>
      </trkpt>
      <trkpt lat="43.70406" lon="1.16564">
        <ele>160.80000305176</ele>
        <time>2016-02-06T19:33:46.000Z</time>
      </trkpt>
      <trkpt lat="43.70401" lon="1.16551">
        <ele>160.60000610352</ele>
        <time>2016-02-06T19:33:50.000Z</time>
      </trkpt>
      <trkpt lat="43.7039" lon="1.16549">
        <ele>160.80000305176</ele>
        <time>2016-02-06T19:33:55.000Z</time>
      </trkpt>
      <trkpt lat="43.70377" lon="1.16553">
        <ele>161.19999694824</ele>
        <time>2016-02-06T19:34:00.000Z</time>
      </trkpt>
      <trkpt lat="43.70364" lon="1.16558">
        <ele>161.60000610352</ele>
        <time>2016-02-06T19:34:05.000Z</time>
      </trkpt>
      <trkpt lat="43.70347" lon="1.16564">
        <ele>162.80000305176</ele>
        <time>2016-02-06T19:34:12.000Z</time>
      </trkpt>
      <trkpt lat="43.70336" lon="1.1657">
        <ele>164</ele>
        <time>2016-02-06T19:34:17.000Z</time>
      </trkpt>
      <trkpt lat="43.70325" lon="1.16577">
        <ele>165.39999389648</ele>
        <time>2016-02-06T19:34:23.000Z</time>
      </trkpt>
      <trkpt lat="43.70314" lon="1.16583">
        <ele>166.80000305176</ele>
        <time>2016-02-06T19:34:28.000Z</time>
      </trkpt>
      <trkpt lat="43.70301" lon="1.16591">
        <ele>168.39999389648</ele>
        <time>2016-02-06T19:34:34.000Z</time>
      </trkpt>
      <trkpt lat="43.70289" lon="1.16598">
        <ele>169.80000305176</ele>
        <time>2016-02-06T19:34:40.000Z</time>
      </trkpt>
      <trkpt lat="43.70284" lon="1.16599">
        <ele>170.39999389648</ele>
        <time>2016-02-06T19:34:42.000Z</time>
      </trkpt>
      <trkpt lat="43.70265" lon="1.16597">
        <ele>172.39999389648</ele>
        <time>2016-02-06T19:34:50.000Z</time>
      </trkpt>
      <trkpt lat="43.70253" lon="1.16594">
        <ele>173.60000610352</ele>
        <time>2016-02-06T19:34:56.000Z</time>
      </trkpt>
      <trkpt lat="43.70242" lon="1.16592">
        <ele>174.80000305176</ele>
        <time>2016-02-06T19:35:02.000Z</time>
      </trkpt>
      <trkpt lat="43.70229" lon="1.16589">
        <ele>176</ele>
        <time>2016-02-06T19:35:08.000Z</time>
      </trkpt>
      <trkpt lat="43.70218" lon="1.16586">
        <ele>177.19999694824</ele>
        <time>2016-02-06T19:35:14.000Z</time>
      </trkpt>
      <trkpt lat="43.70207" lon="1.16584">
        <ele>178.39999389648</ele>
        <time>2016-02-06T19:35:19.000Z</time>
      </trkpt>
      <trkpt lat="43.70194" lon="1.16583">
        <ele>180.19999694824</ele>
        <time>2016-02-06T19:35:25.000Z</time>
      </trkpt>
      <trkpt lat="43.70192" lon="1.16583">
        <ele>180.39999389648</ele>
        <time>2016-02-06T19:35:26.000Z</time>
      </trkpt>
      <trkpt lat="43.70181" lon="1.1658">
        <ele>181.80000305176</ele>
        <time>2016-02-06T19:35:31.000Z</time>
      </trkpt>
      <trkpt lat="43.70165" lon="1.16577">
        <ele>184</ele>
        <time>2016-02-06T19:35:38.000Z</time>
      </trkpt>
      <trkpt lat="43.70149" lon="1.16574">
        <ele>186</ele>
        <time>2016-02-06T19:35:44.000Z</time>
      </trkpt>
      <trkpt lat="43.70136" lon="1.1657">
        <ele>187.60000610352</ele>
        <time>2016-02-06T19:35:49.000Z</time>
      </trkpt>
      <trkpt lat="43.70128" lon="1.16557">
        <ele>187.80000305176</ele>
        <time>2016-02-06T19:35:54.000Z</time>
      </trkpt>
      <trkpt lat="43.70108" lon="1.16545">
        <ele>189</ele>
        <time>2016-02-06T19:36:03.000Z</time>
      </trkpt>
      <trkpt lat="43.70094" lon="1.16539">
        <ele>190</ele>
        <time>2016-02-06T19:36:09.000Z</time>
      </trkpt>
      <trkpt lat="43.70082" lon="1.16537">
        <ele>191.19999694824</ele>
        <time>2016-02-06T19:36:14.000Z</time>
      </trkpt>
      <trkpt lat="43.70068" lon="1.16534">
        <ele>191.80000305176</ele>
        <time>2016-02-06T19:36:20.000Z</time>
      </trkpt>
      <trkpt lat="43.70054" lon="1.1653">
        <ele>192.19999694824</ele>
        <time>2016-02-06T19:36:26.000Z</time>
      </trkpt>
      <trkpt lat="43.70043" lon="1.16528">
        <ele>192.60000610352</ele>
        <time>2016-02-06T19:36:31.000Z</time>
      </trkpt>
      <trkpt lat="43.70031" lon="1.16526">
        <ele>193</ele>
        <time>2016-02-06T19:36:36.000Z</time>
      </trkpt>
      <trkpt lat="43.70022" lon="1.16521">
        <ele>193</ele>
        <time>2016-02-06T19:36:41.000Z</time>
      </trkpt>
      <trkpt lat="43.70016" lon="1.16516">
        <ele>193.39999389648</ele>
        <time>2016-02-06T19:36:45.000Z</time>
      </trkpt>
      <trkpt lat="43.70005" lon="1.16504">
        <ele>194</ele>
        <time>2016-02-06T19:36:51.000Z</time>
      </trkpt>
      <trkpt lat="43.69993" lon="1.16491">
        <ele>194.80000305176</ele>
        <time>2016-02-06T19:36:57.000Z</time>
      </trkpt>
      <trkpt lat="43.69982" lon="1.1648">
        <ele>195.60000610352</ele>
        <time>2016-02-06T19:37:02.000Z</time>
      </trkpt>
      <trkpt lat="43.69969" lon="1.16468">
        <ele>195.80000305176</ele>
        <time>2016-02-06T19:37:08.000Z</time>
      </trkpt>
      <trkpt lat="43.69955" lon="1.16457">
        <ele>196</ele>
        <time>2016-02-06T19:37:14.000Z</time>
      </trkpt>
      <trkpt lat="43.69954" lon="1.16455">
        <ele>196</ele>
        <time>2016-02-06T19:37:15.000Z</time>
      </trkpt>
      <trkpt lat="43.69946" lon="1.16447">
        <ele>195.80000305176</ele>
        <time>2016-02-06T19:37:19.000Z</time>
      </trkpt>
      <trkpt lat="43.69936" lon="1.16437">
        <ele>195.80000305176</ele>
        <time>2016-02-06T19:37:24.000Z</time>
      </trkpt>
      <trkpt lat="43.69929" lon="1.1643">
        <ele>195.39999389648</ele>
        <time>2016-02-06T19:37:27.000Z</time>
      </trkpt>
      <trkpt lat="43.69913" lon="1.16409">
        <ele>194</ele>
        <time>2016-02-06T19:37:35.000Z</time>
      </trkpt>
      <trkpt lat="43.69904" lon="1.16389">
        <ele>192.39999389648</ele>
        <time>2016-02-06T19:37:40.000Z</time>
      </trkpt>
      <trkpt lat="43.69895" lon="1.16371">
        <ele>191.80000305176</ele>
        <time>2016-02-06T19:37:45.000Z</time>
      </trkpt>
      <trkpt lat="43.69894" lon="1.16368">
        <ele>191.60000610352</ele>
        <time>2016-02-06T19:37:46.000Z</time>
      </trkpt>
      <trkpt lat="43.69886" lon="1.16358">
        <ele>191.60000610352</ele>
        <time>2016-02-06T19:37:50.000Z</time>
      </trkpt>
      <trkpt lat="43.69883" lon="1.16354">
        <ele>191.60000610352</ele>
        <time>2016-02-06T19:37:51.000Z</time>
      </trkpt>
      <trkpt lat="43.69873" lon="1.16346">
        <ele>192</ele>
        <time>2016-02-06T19:37:55.000Z</time>
      </trkpt>
      <trkpt lat="43.69858" lon="1.16335">
        <ele>192.80000305176</ele>
        <time>2016-02-06T19:38:01.000Z</time>
      </trkpt>
      <trkpt lat="43.69847" lon="1.16322">
        <ele>193</ele>
        <time>2016-02-06T19:38:06.000Z</time>
      </trkpt>
      <trkpt lat="43.69841" lon="1.16305">
        <ele>193</ele>
        <time>2016-02-06T19:38:11.000Z</time>
      </trkpt>
      <trkpt lat="43.69832" lon="1.16289">
        <ele>193.80000305176</ele>
        <time>2016-02-06T19:38:16.000Z</time>
      </trkpt>
      <trkpt lat="43.69823" lon="1.16276">
        <ele>194.60000610352</ele>
        <time>2016-02-06T19:38:21.000Z</time>
      </trkpt>
      <trkpt lat="43.69821" lon="1.16272">
        <ele>194.60000610352</ele>
        <time>2016-02-06T19:38:22.000Z</time>
      </trkpt>
      <trkpt lat="43.69816" lon="1.16259">
        <ele>194.80000305176</ele>
        <time>2016-02-06T19:38:26.000Z</time>
      </trkpt>
      <trkpt lat="43.6981" lon="1.16244">
        <ele>195</ele>
        <time>2016-02-06T19:38:30.000Z</time>
      </trkpt>
      <trkpt lat="43.69807" lon="1.16237">
        <ele>195</ele>
        <time>2016-02-06T19:38:32.000Z</time>
      </trkpt>
      <trkpt lat="43.69805" lon="1.1623">
        <ele>195</ele>
        <time>2016-02-06T19:38:34.000Z</time>
      </trkpt>
      <trkpt lat="43.69798" lon="1.16213">
        <ele>194.60000610352</ele>
        <time>2016-02-06T19:38:39.000Z</time>
      </trkpt>
      <trkpt lat="43.69787" lon="1.16193">
        <ele>194.60000610352</ele>
        <time>2016-02-06T19:38:45.000Z</time>
      </trkpt>
      <trkpt lat="43.69778" lon="1.16181">
        <ele>195.39999389648</ele>
        <time>2016-02-06T19:38:49.000Z</time>
      </trkpt>
      <trkpt lat="43.69771" lon="1.16164">
        <ele>195</ele>
        <time>2016-02-06T19:38:54.000Z</time>
      </trkpt>
      <trkpt lat="43.69762" lon="1.1615">
        <ele>194.39999389648</ele>
        <time>2016-02-06T19:38:59.000Z</time>
      </trkpt>
      <trkpt lat="43.69749" lon="1.16139">
        <ele>194.60000610352</ele>
        <time>2016-02-06T19:39:05.000Z</time>
      </trkpt>
      <trkpt lat="43.69747" lon="1.16138">
        <ele>194.60000610352</ele>
        <time>2016-02-06T19:39:06.000Z</time>
      </trkpt>
      <trkpt lat="43.69741" lon="1.16121">
        <ele>193.80000305176</ele>
        <time>2016-02-06T19:39:12.000Z</time>
      </trkpt>
      <trkpt lat="43.69736" lon="1.16108">
        <ele>193.19999694824</ele>
        <time>2016-02-06T19:39:17.000Z</time>
      </trkpt>
      <trkpt lat="43.69731" lon="1.16097">
        <ele>193</ele>
        <time>2016-02-06T19:39:22.000Z</time>
      </trkpt>
      <trkpt lat="43.6973" lon="1.16096">
        <ele>193</ele>
        <time>2016-02-06T19:39:23.000Z</time>
      </trkpt>
      <trkpt lat="43.69725" lon="1.16087">
        <ele>192.80000305176</ele>
        <time>2016-02-06T19:39:27.000Z</time>
      </trkpt>
      <trkpt lat="43.69722" lon="1.16071">
        <ele>192</ele>
        <time>2016-02-06T19:39:33.000Z</time>
      </trkpt>
      <trkpt lat="43.69722" lon="1.16068">
        <ele>191.80000305176</ele>
        <time>2016-02-06T19:39:34.000Z</time>
      </trkpt>
      <trkpt lat="43.69722" lon="1.16066">
        <ele>191.80000305176</ele>
        <time>2016-02-06T19:39:35.000Z</time>
      </trkpt>
      <trkpt lat="43.6972" lon="1.1606">
        <ele>191.80000305176</ele>
        <time>2016-02-06T19:39:38.000Z</time>
      </trkpt>
      <trkpt lat="43.69715" lon="1.1605">
        <ele>192.80000305176</ele>
        <time>2016-02-06T19:39:44.000Z</time>
      </trkpt>
      <trkpt lat="43.69713" lon="1.16035">
        <ele>194</ele>
        <time>2016-02-06T19:39:49.000Z</time>
      </trkpt>
      <trkpt lat="43.6971" lon="1.16025">
        <ele>195</ele>
        <time>2016-02-06T19:39:52.000Z</time>
      </trkpt>
      <trkpt lat="43.69707" lon="1.16004">
        <ele>196.60000610352</ele>
        <time>2016-02-06T19:39:58.000Z</time>
      </trkpt>
      <trkpt lat="43.69707" lon="1.15997">
        <ele>197.19999694824</ele>
        <time>2016-02-06T19:40:00.000Z</time>
      </trkpt>
      <trkpt lat="43.69702" lon="1.15975">
        <ele>198.60000610352</ele>
        <time>2016-02-06T19:40:07.000Z</time>
      </trkpt>
      <trkpt lat="43.69702" lon="1.15971">
        <ele>198.80000305176</ele>
        <time>2016-02-06T19:40:08.000Z</time>
      </trkpt>
      <trkpt lat="43.69699" lon="1.1596">
        <ele>199.39999389648</ele>
        <time>2016-02-06T19:40:12.000Z</time>
      </trkpt>
      <trkpt lat="43.69696" lon="1.15944">
        <ele>200.39999389648</ele>
        <time>2016-02-06T19:40:17.000Z</time>
      </trkpt>
      <trkpt lat="43.69687" lon="1.15936">
        <ele>201.39999389648</ele>
        <time>2016-02-06T19:40:23.000Z</time>
      </trkpt>
      <trkpt lat="43.69681" lon="1.15932">
        <ele>202.19999694824</ele>
        <time>2016-02-06T19:40:29.000Z</time>
      </trkpt>
      <trkpt lat="43.69679" lon="1.15929">
        <ele>202.60000610352</ele>
        <time>2016-02-06T19:40:31.000Z</time>
      </trkpt>
      <trkpt lat="43.69674" lon="1.15921">
        <ele>203.19999694824</ele>
        <time>2016-02-06T19:40:36.000Z</time>
      </trkpt>
      <trkpt lat="43.69669" lon="1.15914">
        <ele>204</ele>
        <time>2016-02-06T19:40:41.000Z</time>
      </trkpt>
      <trkpt lat="43.69666" lon="1.1591">
        <ele>204.39999389648</ele>
        <time>2016-02-06T19:40:44.000Z</time>
      </trkpt>
      <trkpt lat="43.69664" lon="1.15904">
        <ele>204.80000305176</ele>
        <time>2016-02-06T19:40:47.000Z</time>
      </trkpt>
      <trkpt lat="43.69657" lon="1.15893">
        <ele>205.80000305176</ele>
        <time>2016-02-06T19:40:54.000Z</time>
      </trkpt>
      <trkpt lat="43.69655" lon="1.15887">
        <ele>205.60000610352</ele>
        <time>2016-02-06T19:40:57.000Z</time>
      </trkpt>
      <trkpt lat="43.6965" lon="1.15878">
        <ele>205.80000305176</ele>
        <time>2016-02-06T19:41:01.000Z</time>
      </trkpt>
      <trkpt lat="43.69645" lon="1.15869">
        <ele>205.80000305176</ele>
        <time>2016-02-06T19:41:06.000Z</time>
      </trkpt>
      <trkpt lat="43.69642" lon="1.15861">
        <ele>205.60000610352</ele>
        <time>2016-02-06T19:41:10.000Z</time>
      </trkpt>
      <trkpt lat="43.69642" lon="1.15853">
        <ele>205.19999694824</ele>
        <time>2016-02-06T19:41:13.000Z</time>
      </trkpt>
      <trkpt lat="43.69643" lon="1.1585">
        <ele>205</ele>
        <time>2016-02-06T19:41:14.000Z</time>
      </trkpt>
      <trkpt lat="43.69644" lon="1.15847">
        <ele>205</ele>
        <time>2016-02-06T19:41:15.000Z</time>
      </trkpt>
      <trkpt lat="43.69643" lon="1.1584">
        <ele>204.60000610352</ele>
        <time>2016-02-06T19:41:18.000Z</time>
      </trkpt>
      <trkpt lat="43.69635" lon="1.1581">
        <ele>204.39999389648</ele>
        <time>2016-02-06T19:41:27.000Z</time>
      </trkpt>
      <trkpt lat="43.69634" lon="1.15806">
        <ele>204.39999389648</ele>
        <time>2016-02-06T19:41:28.000Z</time>
      </trkpt>
      <trkpt lat="43.69627" lon="1.15786">
        <ele>204.39999389648</ele>
        <time>2016-02-06T19:41:34.000Z</time>
      </trkpt>
      <trkpt lat="43.69626" lon="1.15783">
        <ele>204.39999389648</ele>
        <time>2016-02-06T19:41:35.000Z</time>
      </trkpt>
      <trkpt lat="43.69614" lon="1.15766">
        <ele>205</ele>
        <time>2016-02-06T19:41:41.000Z</time>
      </trkpt>
      <trkpt lat="43.69612" lon="1.15764">
        <ele>205.19999694824</ele>
        <time>2016-02-06T19:41:42.000Z</time>
      </trkpt>
      <trkpt lat="43.69603" lon="1.15755">
        <ele>205.60000610352</ele>
        <time>2016-02-06T19:41:46.000Z</time>
      </trkpt>
      <trkpt lat="43.69593" lon="1.15745">
        <ele>205.80000305176</ele>
        <time>2016-02-06T19:41:51.000Z</time>
      </trkpt>
      <trkpt lat="43.69589" lon="1.15738">
        <ele>206</ele>
        <time>2016-02-06T19:41:54.000Z</time>
      </trkpt>
      <trkpt lat="43.69577" lon="1.15718">
        <ele>205.80000305176</ele>
        <time>2016-02-06T19:42:03.000Z</time>
      </trkpt>
      <trkpt lat="43.6957" lon="1.15707">
        <ele>205.60000610352</ele>
        <time>2016-02-06T19:42:08.000Z</time>
      </trkpt>
      <trkpt lat="43.6957" lon="1.15701">
        <ele>205.19999694824</ele>
        <time>2016-02-06T19:42:10.000Z</time>
      </trkpt>
      <trkpt lat="43.69576" lon="1.15681">
        <ele>203.80000305176</ele>
        <time>2016-02-06T19:42:17.000Z</time>
      </trkpt>
      <trkpt lat="43.69579" lon="1.15675">
        <ele>203.39999389648</ele>
        <time>2016-02-06T19:42:19.000Z</time>
      </trkpt>
      <trkpt lat="43.69576" lon="1.15669">
        <ele>203.19999694824</ele>
        <time>2016-02-06T19:42:22.000Z</time>
      </trkpt>
      <trkpt lat="43.69566" lon="1.15665">
        <ele>203.39999389648</ele>
        <time>2016-02-06T19:42:27.000Z</time>
      </trkpt>
      <trkpt lat="43.69564" lon="1.15664">
        <ele>203.60000610352</ele>
        <time>2016-02-06T19:42:29.000Z</time>
      </trkpt>
      <trkpt lat="43.69558" lon="1.15663">
        <ele>203.80000305176</ele>
        <time>2016-02-06T19:42:34.000Z</time>
      </trkpt>
      <trkpt lat="43.69553" lon="1.15659">
        <ele>204</ele>
        <time>2016-02-06T19:42:39.000Z</time>
      </trkpt>
      <trkpt lat="43.69552" lon="1.15659">
        <ele>204</ele>
        <time>2016-02-06T19:42:40.000Z</time>
      </trkpt>
      <trkpt lat="43.69549" lon="1.1566">
        <ele>204.19999694824</ele>
        <time>2016-02-06T19:42:42.000Z</time>
      </trkpt>
      <trkpt lat="43.69544" lon="1.15669">
        <ele>205</ele>
        <time>2016-02-06T19:42:47.000Z</time>
      </trkpt>
      <trkpt lat="43.69539" lon="1.15678">
        <ele>205.80000305176</ele>
        <time>2016-02-06T19:42:52.000Z</time>
      </trkpt>
      <trkpt lat="43.69534" lon="1.15686">
        <ele>206.39999389648</ele>
        <time>2016-02-06T19:42:57.000Z</time>
      </trkpt>
      <trkpt lat="43.69531" lon="1.15695">
        <ele>207</ele>
        <time>2016-02-06T19:43:03.000Z</time>
      </trkpt>
      <trkpt lat="43.69529" lon="1.15703">
        <ele>207.39999389648</ele>
        <time>2016-02-06T19:43:07.000Z</time>
      </trkpt>
      <trkpt lat="43.69527" lon="1.15715">
        <ele>208</ele>
        <time>2016-02-06T19:43:13.000Z</time>
      </trkpt>
      <trkpt lat="43.69523" lon="1.15726">
        <ele>208.80000305176</ele>
        <time>2016-02-06T19:43:18.000Z</time>
      </trkpt>
      <trkpt lat="43.69517" lon="1.15735">
        <ele>209.39999389648</ele>
        <time>2016-02-06T19:43:23.000Z</time>
      </trkpt>
      <trkpt lat="43.69516" lon="1.15735">
        <ele>209.60000610352</ele>
        <time>2016-02-06T19:43:24.000Z</time>
      </trkpt>
      <trkpt lat="43.69513" lon="1.15736">
        <ele>210</ele>
        <time>2016-02-06T19:43:26.000Z</time>
      </trkpt>
      <trkpt lat="43.69505" lon="1.1574">
        <ele>211.19999694824</ele>
        <time>2016-02-06T19:43:32.000Z</time>
      </trkpt>
      <trkpt lat="43.69499" lon="1.15743">
        <ele>211.80000305176</ele>
        <time>2016-02-06T19:43:36.000Z</time>
      </trkpt>
      <trkpt lat="43.69497" lon="1.15745">
        <ele>212.19999694824</ele>
        <time>2016-02-06T19:43:38.000Z</time>
      </trkpt>
      <trkpt lat="43.69489" lon="1.15751">
        <ele>213.19999694824</ele>
        <time>2016-02-06T19:43:44.000Z</time>
      </trkpt>
      <trkpt lat="43.69488" lon="1.15752">
        <ele>213.39999389648</ele>
        <time>2016-02-06T19:43:45.000Z</time>
      </trkpt>
      <trkpt lat="43.6948" lon="1.15757">
        <ele>214.39999389648</ele>
        <time>2016-02-06T19:43:52.000Z</time>
      </trkpt>
      <trkpt lat="43.69474" lon="1.15759">
        <ele>215.19999694824</ele>
        <time>2016-02-06T19:43:58.000Z</time>
      </trkpt>
      <trkpt lat="43.69473" lon="1.1576">
        <ele>215.39999389648</ele>
        <time>2016-02-06T19:43:59.000Z</time>
      </trkpt>
      <trkpt lat="43.69468" lon="1.15764">
        <ele>216.19999694824</ele>
        <time>2016-02-06T19:44:04.000Z</time>
      </trkpt>
      <trkpt lat="43.69465" lon="1.15765">
        <ele>216.80000305176</ele>
        <time>2016-02-06T19:44:07.000Z</time>
      </trkpt>
      <trkpt lat="43.69456" lon="1.15769">
        <ele>218.39999389648</ele>
        <time>2016-02-06T19:44:15.000Z</time>
      </trkpt>
      <trkpt lat="43.69451" lon="1.15773">
        <ele>219.39999389648</ele>
        <time>2016-02-06T19:44:21.000Z</time>
      </trkpt>
      <trkpt lat="43.69444" lon="1.15778">
        <ele>220.80000305176</ele>
        <time>2016-02-06T19:44:28.000Z</time>
      </trkpt>
      <trkpt lat="43.69443" lon="1.15779">
        <ele>221</ele>
        <time>2016-02-06T19:44:29.000Z</time>
      </trkpt>
      <trkpt lat="43.69442" lon="1.15779">
        <ele>221.19999694824</ele>
        <time>2016-02-06T19:44:30.000Z</time>
      </trkpt>
      <trkpt lat="43.69437" lon="1.15782">
        <ele>222.19999694824</ele>
        <time>2016-02-06T19:44:34.000Z</time>
      </trkpt>
      <trkpt lat="43.6943" lon="1.15784">
        <ele>223.60000610352</ele>
        <time>2016-02-06T19:44:40.000Z</time>
      </trkpt>
      <trkpt lat="43.69428" lon="1.15784">
        <ele>224</ele>
        <time>2016-02-06T19:44:41.000Z</time>
      </trkpt>
      <trkpt lat="43.69421" lon="1.15784">
        <ele>225.39999389648</ele>
        <time>2016-02-06T19:44:46.000Z</time>
      </trkpt>
      <trkpt lat="43.69419" lon="1.15784">
        <ele>225.80000305176</ele>
        <time>2016-02-06T19:44:48.000Z</time>
      </trkpt>
      <trkpt lat="43.69408" lon="1.15783">
        <ele>227.80000305176</ele>
        <time>2016-02-06T19:44:56.000Z</time>
      </trkpt>
      <trkpt lat="43.69403" lon="1.15781">
        <ele>228.80000305176</ele>
        <time>2016-02-06T19:45:01.000Z</time>
      </trkpt>
      <trkpt lat="43.69393" lon="1.15777">
        <ele>230.39999389648</ele>
        <time>2016-02-06T19:45:09.000Z</time>
      </trkpt>
      <trkpt lat="43.69384" lon="1.15775">
        <ele>231.80000305176</ele>
        <time>2016-02-06T19:45:16.000Z</time>
      </trkpt>
      <trkpt lat="43.69381" lon="1.15773">
        <ele>232.39999389648</ele>
        <time>2016-02-06T19:45:19.000Z</time>
      </trkpt>
      <trkpt lat="43.6937" lon="1.15761">
        <ele>233.80000305176</ele>
        <time>2016-02-06T19:45:28.000Z</time>
      </trkpt>
      <trkpt lat="43.69363" lon="1.15755">
        <ele>234.80000305176</ele>
        <time>2016-02-06T19:45:34.000Z</time>
      </trkpt>
      <trkpt lat="43.69352" lon="1.15747">
        <ele>236.19999694824</ele>
        <time>2016-02-06T19:45:41.000Z</time>
      </trkpt>
      <trkpt lat="43.69351" lon="1.15746">
        <ele>236.19999694824</ele>
        <time>2016-02-06T19:45:42.000Z</time>
      </trkpt>
      <trkpt lat="43.69345" lon="1.15743">
        <ele>236.39999389648</ele>
        <time>2016-02-06T19:45:46.000Z</time>
      </trkpt>
      <trkpt lat="43.69336" lon="1.15741">
        <ele>236.80000305176</ele>
        <time>2016-02-06T19:45:52.000Z</time>
      </trkpt>
      <trkpt lat="43.69327" lon="1.15741">
        <ele>237.39999389648</ele>
        <time>2016-02-06T19:45:59.000Z</time>
      </trkpt>
      <trkpt lat="43.69325" lon="1.15741">
        <ele>237.60000610352</ele>
        <time>2016-02-06T19:46:00.000Z</time>
      </trkpt>
      <trkpt lat="43.69315" lon="1.15743">
        <ele>238.19999694824</ele>
        <time>2016-02-06T19:46:08.000Z</time>
      </trkpt>
      <trkpt lat="43.69314" lon="1.15743">
        <ele>238.19999694824</ele>
        <time>2016-02-06T19:46:09.000Z</time>
      </trkpt>
      <trkpt lat="43.69304" lon="1.15741">
        <ele>238.80000305176</ele>
        <time>2016-02-06T19:46:16.000Z</time>
      </trkpt>
      <trkpt lat="43.69291" lon="1.15744">
        <ele>239.60000610352</ele>
        <time>2016-02-06T19:46:22.000Z</time>
      </trkpt>
      <trkpt lat="43.6928" lon="1.15747">
        <ele>240.39999389648</ele>
        <time>2016-02-06T19:46:27.000Z</time>
      </trkpt>
      <trkpt lat="43.69266" lon="1.15755">
        <ele>241</ele>
        <time>2016-02-06T19:46:34.000Z</time>
      </trkpt>
      <trkpt lat="43.69255" lon="1.15763">
        <ele>241.19999694824</ele>
        <time>2016-02-06T19:46:39.000Z</time>
      </trkpt>
      <trkpt lat="43.69252" lon="1.15765">
        <ele>241.39999389648</ele>
        <time>2016-02-06T19:46:40.000Z</time>
      </trkpt>
      <trkpt lat="43.69242" lon="1.15766">
        <ele>241.39999389648</ele>
        <time>2016-02-06T19:46:44.000Z</time>
      </trkpt>
      <trkpt lat="43.69237" lon="1.15766">
        <ele>241.39999389648</ele>
        <time>2016-02-06T19:46:46.000Z</time>
      </trkpt>
      <trkpt lat="43.69225" lon="1.15778">
        <ele>241.39999389648</ele>
        <time>2016-02-06T19:46:52.000Z</time>
      </trkpt>
      <trkpt lat="43.69212" lon="1.15797">
        <ele>241</ele>
        <time>2016-02-06T19:46:59.000Z</time>
      </trkpt>
      <trkpt lat="43.69197" lon="1.15808">
        <ele>240.39999389648</ele>
        <time>2016-02-06T19:47:05.000Z</time>
      </trkpt>
      <trkpt lat="43.69183" lon="1.15811">
        <ele>239.80000305176</ele>
        <time>2016-02-06T19:47:10.000Z</time>
      </trkpt>
      <trkpt lat="43.69181" lon="1.15813">
        <ele>239.80000305176</ele>
        <time>2016-02-06T19:47:11.000Z</time>
      </trkpt>
      <trkpt lat="43.6918" lon="1.1583">
        <ele>239.80000305176</ele>
        <time>2016-02-06T19:47:15.000Z</time>
      </trkpt>
      <trkpt lat="43.69181" lon="1.15855">
        <ele>239.80000305176</ele>
        <time>2016-02-06T19:47:21.000Z</time>
      </trkpt>
      <trkpt lat="43.69179" lon="1.15859">
        <ele>239.80000305176</ele>
        <time>2016-02-06T19:47:22.000Z</time>
      </trkpt>
      <trkpt lat="43.6917" lon="1.15871">
        <ele>239.39999389648</ele>
        <time>2016-02-06T19:47:26.000Z</time>
      </trkpt>
      <trkpt lat="43.6916" lon="1.15888">
        <ele>239</ele>
        <time>2016-02-06T19:47:31.000Z</time>
      </trkpt>
      <trkpt lat="43.6915" lon="1.15909">
        <ele>238.60000610352</ele>
        <time>2016-02-06T19:47:37.000Z</time>
      </trkpt>
      <trkpt lat="43.6914" lon="1.15929">
        <ele>238.39999389648</ele>
        <time>2016-02-06T19:47:43.000Z</time>
      </trkpt>
      <trkpt lat="43.69131" lon="1.15946">
        <ele>237.80000305176</ele>
        <time>2016-02-06T19:47:48.000Z</time>
      </trkpt>
      <trkpt lat="43.69122" lon="1.1596">
        <ele>237.19999694824</ele>
        <time>2016-02-06T19:47:53.000Z</time>
      </trkpt>
      <trkpt lat="43.69109" lon="1.15979">
        <ele>236.19999694824</ele>
        <time>2016-02-06T19:48:00.000Z</time>
      </trkpt>
      <trkpt lat="43.69098" lon="1.15998">
        <ele>236.39999389648</ele>
        <time>2016-02-06T19:48:06.000Z</time>
      </trkpt>
      <trkpt lat="43.69083" lon="1.16016">
        <ele>237.39999389648</ele>
        <time>2016-02-06T19:48:13.000Z</time>
      </trkpt>
      <trkpt lat="43.69068" lon="1.16026">
        <ele>238.60000610352</ele>
        <time>2016-02-06T19:48:19.000Z</time>
      </trkpt>
      <trkpt lat="43.69065" lon="1.16027">
        <ele>238.60000610352</ele>
        <time>2016-02-06T19:48:20.000Z</time>
      </trkpt>
      <trkpt lat="43.69052" lon="1.16028">
        <ele>239.39999389648</ele>
        <time>2016-02-06T19:48:26.000Z</time>
      </trkpt>
      <trkpt lat="43.69051" lon="1.16028">
        <ele>239.60000610352</ele>
        <time>2016-02-06T19:48:27.000Z</time>
      </trkpt>
      <trkpt lat="43.69047" lon="1.16022">
        <ele>239.80000305176</ele>
        <time>2016-02-06T19:48:31.000Z</time>
      </trkpt>
      <trkpt lat="43.69046" lon="1.16021">
        <ele>240</ele>
        <time>2016-02-06T19:48:32.000Z</time>
      </trkpt>
      <trkpt lat="43.69041" lon="1.16019">
        <ele>240.19999694824</ele>
        <time>2016-02-06T19:48:34.000Z</time>
      </trkpt>
      <trkpt lat="43.6903" lon="1.16012">
        <ele>241</ele>
        <time>2016-02-06T19:48:40.000Z</time>
      </trkpt>
      <trkpt lat="43.69028" lon="1.16018">
        <ele>241</ele>
        <time>2016-02-06T19:48:44.000Z</time>
      </trkpt>
      <trkpt lat="43.69026" lon="1.16021">
        <ele>241.19999694824</ele>
        <time>2016-02-06T19:48:46.000Z</time>
      </trkpt>
      <trkpt lat="43.69023" lon="1.16023">
        <ele>241.19999694824</ele>
        <time>2016-02-06T19:48:48.000Z</time>
      </trkpt>
      <trkpt lat="43.69016" lon="1.16025">
        <ele>241.60000610352</ele>
        <time>2016-02-06T19:48:52.000Z</time>
      </trkpt>
      <trkpt lat="43.69013" lon="1.16028">
        <ele>241.80000305176</ele>
        <time>2016-02-06T19:48:54.000Z</time>
      </trkpt>
      <trkpt lat="43.69007" lon="1.16041">
        <ele>242.19999694824</ele>
        <time>2016-02-06T19:49:00.000Z</time>
      </trkpt>
      <trkpt lat="43.69002" lon="1.16049">
        <ele>242.39999389648</ele>
        <time>2016-02-06T19:49:04.000Z</time>
      </trkpt>
      <trkpt lat="43.68996" lon="1.16054">
        <ele>242.60000610352</ele>
        <time>2016-02-06T19:49:08.000Z</time>
      </trkpt>
      <trkpt lat="43.68992" lon="1.16056">
        <ele>242.80000305176</ele>
        <time>2016-02-06T19:49:10.000Z</time>
      </trkpt>
      <trkpt lat="43.68988" lon="1.16063">
        <ele>243</ele>
        <time>2016-02-06T19:49:14.000Z</time>
      </trkpt>
      <trkpt lat="43.6899" lon="1.16073">
        <ele>243.19999694824</ele>
        <time>2016-02-06T19:49:18.000Z</time>
      </trkpt>
      <trkpt lat="43.68998" lon="1.16073">
        <ele>242.60000610352</ele>
        <time>2016-02-06T19:49:22.000Z</time>
      </trkpt>
      <trkpt lat="43.69002" lon="1.16067">
        <ele>242.19999694824</ele>
        <time>2016-02-06T19:49:25.000Z</time>
      </trkpt>
      <trkpt lat="43.69011" lon="1.16071">
        <ele>241.80000305176</ele>
        <time>2016-02-06T19:49:30.000Z</time>
      </trkpt>
      <trkpt lat="43.69013" lon="1.16074">
        <ele>241.80000305176</ele>
        <time>2016-02-06T19:49:31.000Z</time>
      </trkpt>
      <trkpt lat="43.69014" lon="1.16076">
        <ele>241.80000305176</ele>
        <time>2016-02-06T19:49:32.000Z</time>
      </trkpt>
      <trkpt lat="43.69023" lon="1.16088">
        <ele>241.19999694824</ele>
        <time>2016-02-06T19:49:37.000Z</time>
      </trkpt>
      <trkpt lat="43.69031" lon="1.16101">
        <ele>240.60000610352</ele>
        <time>2016-02-06T19:49:42.000Z</time>
      </trkpt>
      <trkpt lat="43.69033" lon="1.16104">
        <ele>240.39999389648</ele>
        <time>2016-02-06T19:49:43.000Z</time>
      </trkpt>
      <trkpt lat="43.69038" lon="1.16119">
        <ele>240.19999694824</ele>
        <time>2016-02-06T19:49:47.000Z</time>
      </trkpt>
      <trkpt lat="43.69044" lon="1.16138">
        <ele>240</ele>
        <time>2016-02-06T19:49:53.000Z</time>
      </trkpt>
      <trkpt lat="43.69045" lon="1.16142">
        <ele>239.80000305176</ele>
        <time>2016-02-06T19:49:54.000Z</time>
      </trkpt>
      <trkpt lat="43.69047" lon="1.16168">
        <ele>240.39999389648</ele>
        <time>2016-02-06T19:50:02.000Z</time>
      </trkpt>
      <trkpt lat="43.69047" lon="1.16171">
        <ele>240.39999389648</ele>
        <time>2016-02-06T19:50:03.000Z</time>
      </trkpt>
      <trkpt lat="43.69051" lon="1.16183">
        <ele>239.80000305176</ele>
        <time>2016-02-06T19:50:07.000Z</time>
      </trkpt>
      <trkpt lat="43.69052" lon="1.16184">
        <ele>239.80000305176</ele>
        <time>2016-02-06T19:50:08.000Z</time>
      </trkpt>
      <trkpt lat="43.6906" lon="1.16195">
        <ele>239</ele>
        <time>2016-02-06T19:50:13.000Z</time>
      </trkpt>
      <trkpt lat="43.69061" lon="1.16195">
        <ele>238.80000305176</ele>
        <time>2016-02-06T19:50:14.000Z</time>
      </trkpt>
      <trkpt lat="43.69068" lon="1.16198">
        <ele>238.19999694824</ele>
        <time>2016-02-06T19:50:17.000Z</time>
      </trkpt>
      <trkpt lat="43.6907" lon="1.16209">
        <ele>237.80000305176</ele>
        <time>2016-02-06T19:50:21.000Z</time>
      </trkpt>
      <trkpt lat="43.69079" lon="1.16221">
        <ele>236.80000305176</ele>
        <time>2016-02-06T19:50:26.000Z</time>
      </trkpt>
      <trkpt lat="43.69087" lon="1.16228">
        <ele>236.19999694824</ele>
        <time>2016-02-06T19:50:29.000Z</time>
      </trkpt>
      <trkpt lat="43.691" lon="1.16241">
        <ele>235.60000610352</ele>
        <time>2016-02-06T19:50:35.000Z</time>
      </trkpt>
      <trkpt lat="43.69101" lon="1.16263">
        <ele>236</ele>
        <time>2016-02-06T19:50:41.000Z</time>
      </trkpt>
      <trkpt lat="43.691" lon="1.16265">
        <ele>236</ele>
        <time>2016-02-06T19:50:42.000Z</time>
      </trkpt>
      <trkpt lat="43.69102" lon="1.1627">
        <ele>236.19999694824</ele>
        <time>2016-02-06T19:50:45.000Z</time>
      </trkpt>
      <trkpt lat="43.69103" lon="1.16276">
        <ele>236.19999694824</ele>
        <time>2016-02-06T19:50:47.000Z</time>
      </trkpt>
      <trkpt lat="43.69097" lon="1.16289">
        <ele>237</ele>
        <time>2016-02-06T19:50:53.000Z</time>
      </trkpt>
      <trkpt lat="43.69096" lon="1.16291">
        <ele>237</ele>
        <time>2016-02-06T19:50:54.000Z</time>
      </trkpt>
      <trkpt lat="43.69091" lon="1.16298">
        <ele>237.60000610352</ele>
        <time>2016-02-06T19:51:01.000Z</time>
      </trkpt>
      <trkpt lat="43.69083" lon="1.16304">
        <ele>237.80000305176</ele>
        <time>2016-02-06T19:51:09.000Z</time>
      </trkpt>
      <trkpt lat="43.69074" lon="1.16307">
        <ele>238</ele>
        <time>2016-02-06T19:51:16.000Z</time>
      </trkpt>
      <trkpt lat="43.69067" lon="1.16313">
        <ele>238.19999694824</ele>
        <time>2016-02-06T19:51:22.000Z</time>
      </trkpt>
      <trkpt lat="43.69058" lon="1.16325">
        <ele>238.19999694824</ele>
        <time>2016-02-06T19:51:28.000Z</time>
      </trkpt>
      <trkpt lat="43.69059" lon="1.16328">
        <ele>238.19999694824</ele>
        <time>2016-02-06T19:51:29.000Z</time>
      </trkpt>
      <trkpt lat="43.69066" lon="1.16334">
        <ele>237.80000305176</ele>
        <time>2016-02-06T19:51:33.000Z</time>
      </trkpt>
      <trkpt lat="43.69073" lon="1.16338">
        <ele>237.39999389648</ele>
        <time>2016-02-06T19:51:37.000Z</time>
      </trkpt>
      <trkpt lat="43.69079" lon="1.16341">
        <ele>237.19999694824</ele>
        <time>2016-02-06T19:51:41.000Z</time>
      </trkpt>
      <trkpt lat="43.69083" lon="1.16343">
        <ele>237</ele>
        <time>2016-02-06T19:51:43.000Z</time>
      </trkpt>
      <trkpt lat="43.69093" lon="1.16353">
        <ele>236.39999389648</ele>
        <time>2016-02-06T19:51:49.000Z</time>
      </trkpt>
      <trkpt lat="43.69095" lon="1.16354">
        <ele>236.19999694824</ele>
        <time>2016-02-06T19:51:50.000Z</time>
      </trkpt>
      <trkpt lat="43.69106" lon="1.16363">
        <ele>235.39999389648</ele>
        <time>2016-02-06T19:51:55.000Z</time>
      </trkpt>
      <trkpt lat="43.69113" lon="1.16378">
        <ele>234.39999389648</ele>
        <time>2016-02-06T19:51:59.000Z</time>
      </trkpt>
      <trkpt lat="43.69117" lon="1.16385">
        <ele>233.80000305176</ele>
        <time>2016-02-06T19:52:01.000Z</time>
      </trkpt>
      <trkpt lat="43.69117" lon="1.16399">
        <ele>233.39999389648</ele>
        <time>2016-02-06T19:52:05.000Z</time>
      </trkpt>
      <trkpt lat="43.69118" lon="1.16409">
        <ele>232.80000305176</ele>
        <time>2016-02-06T19:52:09.000Z</time>
      </trkpt>
      <trkpt lat="43.69122" lon="1.16428">
        <ele>231</ele>
        <time>2016-02-06T19:52:14.000Z</time>
      </trkpt>
      <trkpt lat="43.69126" lon="1.1644">
        <ele>229.80000305176</ele>
        <time>2016-02-06T19:52:18.000Z</time>
      </trkpt>
      <trkpt lat="43.69134" lon="1.16448">
        <ele>228.60000610352</ele>
        <time>2016-02-06T19:52:21.000Z</time>
      </trkpt>
      <trkpt lat="43.6914" lon="1.16465">
        <ele>226.80000305176</ele>
        <time>2016-02-06T19:52:26.000Z</time>
      </trkpt>
      <trkpt lat="43.69142" lon="1.16478">
        <ele>225.80000305176</ele>
        <time>2016-02-06T19:52:30.000Z</time>
      </trkpt>
      <trkpt lat="43.6915" lon="1.16497">
        <ele>225.39999389648</ele>
        <time>2016-02-06T19:52:35.000Z</time>
      </trkpt>
      <trkpt lat="43.69153" lon="1.16511">
        <ele>225.19999694824</ele>
        <time>2016-02-06T19:52:39.000Z</time>
      </trkpt>
      <trkpt lat="43.69157" lon="1.1653">
        <ele>225.19999694824</ele>
        <time>2016-02-06T19:52:44.000Z</time>
      </trkpt>
      <trkpt lat="43.69157" lon="1.16534">
        <ele>225</ele>
        <time>2016-02-06T19:52:45.000Z</time>
      </trkpt>
      <trkpt lat="43.69152" lon="1.16559">
        <ele>224.39999389648</ele>
        <time>2016-02-06T19:52:53.000Z</time>
      </trkpt>
      <trkpt lat="43.69151" lon="1.16565">
        <ele>224.39999389648</ele>
        <time>2016-02-06T19:52:55.000Z</time>
      </trkpt>
      <trkpt lat="43.69145" lon="1.16578">
        <ele>224.80000305176</ele>
        <time>2016-02-06T19:53:00.000Z</time>
      </trkpt>
      <trkpt lat="43.69144" lon="1.1658">
        <ele>225</ele>
        <time>2016-02-06T19:53:01.000Z</time>
      </trkpt>
      <trkpt lat="43.69129" lon="1.1659">
        <ele>225.60000610352</ele>
        <time>2016-02-06T19:53:08.000Z</time>
      </trkpt>
      <trkpt lat="43.69127" lon="1.16591">
        <ele>225.60000610352</ele>
        <time>2016-02-06T19:53:09.000Z</time>
      </trkpt>
      <trkpt lat="43.69121" lon="1.16597">
        <ele>225.60000610352</ele>
        <time>2016-02-06T19:53:13.000Z</time>
      </trkpt>
      <trkpt lat="43.69121" lon="1.16601">
        <ele>225.60000610352</ele>
        <time>2016-02-06T19:53:15.000Z</time>
      </trkpt>
      <trkpt lat="43.69121" lon="1.16605">
        <ele>225.39999389648</ele>
        <time>2016-02-06T19:53:19.000Z</time>
      </trkpt>
      <trkpt lat="43.69121" lon="1.16607">
        <ele>225.39999389648</ele>
        <time>2016-02-06T19:53:21.000Z</time>
      </trkpt>
      <trkpt lat="43.6912" lon="1.16621">
        <ele>225.19999694824</ele>
        <time>2016-02-06T19:53:25.000Z</time>
      </trkpt>
      <trkpt lat="43.69119" lon="1.1663">
        <ele>225.19999694824</ele>
        <time>2016-02-06T19:53:28.000Z</time>
      </trkpt>
      <trkpt lat="43.69118" lon="1.16632">
        <ele>225.19999694824</ele>
        <time>2016-02-06T19:53:29.000Z</time>
      </trkpt>
      <trkpt lat="43.69115" lon="1.16637">
        <ele>225</ele>
        <time>2016-02-06T19:53:33.000Z</time>
      </trkpt>
      <trkpt lat="43.69107" lon="1.16638">
        <ele>225</ele>
        <time>2016-02-06T19:53:39.000Z</time>
      </trkpt>
      <trkpt lat="43.69098" lon="1.16639">
        <ele>225</ele>
        <time>2016-02-06T19:53:46.000Z</time>
      </trkpt>
      <trkpt lat="43.6909" lon="1.16641">
        <ele>224.80000305176</ele>
        <time>2016-02-06T19:53:52.000Z</time>
      </trkpt>
      <trkpt lat="43.6909" lon="1.16641">
        <ele>224.80000305176</ele>
        <time>2016-02-06T19:53:53.000Z</time>
      </trkpt>
      <trkpt lat="43.69084" lon="1.16649">
        <ele>224.39999389648</ele>
        <time>2016-02-06T19:53:58.000Z</time>
      </trkpt>
      <trkpt lat="43.69081" lon="1.16662">
        <ele>223.60000610352</ele>
        <time>2016-02-06T19:54:03.000Z</time>
      </trkpt>
      <trkpt lat="43.69082" lon="1.16666">
        <ele>223.39999389648</ele>
        <time>2016-02-06T19:54:04.000Z</time>
      </trkpt>
      <trkpt lat="43.69087" lon="1.16681">
        <ele>222.80000305176</ele>
        <time>2016-02-06T19:54:09.000Z</time>
      </trkpt>
      <trkpt lat="43.69092" lon="1.16704">
        <ele>222</ele>
        <time>2016-02-06T19:54:15.000Z</time>
      </trkpt>
      <trkpt lat="43.69092" lon="1.16721">
        <ele>221.19999694824</ele>
        <time>2016-02-06T19:54:19.000Z</time>
      </trkpt>
      <trkpt lat="43.69085" lon="1.16729">
        <ele>221</ele>
        <time>2016-02-06T19:54:23.000Z</time>
      </trkpt>
      <trkpt lat="43.69072" lon="1.16736">
        <ele>220.60000610352</ele>
        <time>2016-02-06T19:54:28.000Z</time>
      </trkpt>
      <trkpt lat="43.6906" lon="1.16743">
        <ele>220.39999389648</ele>
        <time>2016-02-06T19:54:33.000Z</time>
      </trkpt>
      <trkpt lat="43.69049" lon="1.1675">
        <ele>220.19999694824</ele>
        <time>2016-02-06T19:54:38.000Z</time>
      </trkpt>
      <trkpt lat="43.69036" lon="1.16757">
        <ele>220.39999389648</ele>
        <time>2016-02-06T19:54:43.000Z</time>
      </trkpt>
      <trkpt lat="43.69023" lon="1.16763">
        <ele>220.80000305176</ele>
        <time>2016-02-06T19:54:48.000Z</time>
      </trkpt>
      <trkpt lat="43.69011" lon="1.1677">
        <ele>221</ele>
        <time>2016-02-06T19:54:53.000Z</time>
      </trkpt>
      <trkpt lat="43.68997" lon="1.16777">
        <ele>221</ele>
        <time>2016-02-06T19:54:59.000Z</time>
      </trkpt>
      <trkpt lat="43.68979" lon="1.16785">
        <ele>220.80000305176</ele>
        <time>2016-02-06T19:55:06.000Z</time>
      </trkpt>
      <trkpt lat="43.68967" lon="1.1679">
        <ele>220.60000610352</ele>
        <time>2016-02-06T19:55:11.000Z</time>
      </trkpt>
      <trkpt lat="43.68958" lon="1.16795">
        <ele>220.39999389648</ele>
        <time>2016-02-06T19:55:15.000Z</time>
      </trkpt>
      <trkpt lat="43.68953" lon="1.16801">
        <ele>220.39999389648</ele>
        <time>2016-02-06T19:55:18.000Z</time>
      </trkpt>
      <trkpt lat="43.68953" lon="1.16816">
        <ele>220</ele>
        <time>2016-02-06T19:55:23.000Z</time>
      </trkpt>
      <trkpt lat="43.6896" lon="1.16842">
        <ele>218.80000305176</ele>
        <time>2016-02-06T19:55:30.000Z</time>
      </trkpt>
      <trkpt lat="43.68965" lon="1.16861">
        <ele>218.19999694824</ele>
        <time>2016-02-06T19:55:35.000Z</time>
      </trkpt>
      <trkpt lat="43.68973" lon="1.16885">
        <ele>217.39999389648</ele>
        <time>2016-02-06T19:55:42.000Z</time>
      </trkpt>
      <trkpt lat="43.6898" lon="1.1691">
        <ele>216.80000305176</ele>
        <time>2016-02-06T19:55:49.000Z</time>
      </trkpt>
      <trkpt lat="43.68985" lon="1.1693">
        <ele>216.60000610352</ele>
        <time>2016-02-06T19:55:54.000Z</time>
      </trkpt>
      <trkpt lat="43.6899" lon="1.16949">
        <ele>216.39999389648</ele>
        <time>2016-02-06T19:55:59.000Z</time>
      </trkpt>
      <trkpt lat="43.68996" lon="1.16969">
        <ele>216</ele>
        <time>2016-02-06T19:56:04.000Z</time>
      </trkpt>
      <trkpt lat="43.69003" lon="1.16993">
        <ele>215.39999389648</ele>
        <time>2016-02-06T19:56:10.000Z</time>
      </trkpt>
      <trkpt lat="43.69007" lon="1.17008">
        <ele>215.19999694824</ele>
        <time>2016-02-06T19:56:14.000Z</time>
      </trkpt>
      <trkpt lat="43.69009" lon="1.17016">
        <ele>215</ele>
        <time>2016-02-06T19:56:16.000Z</time>
      </trkpt>
      <trkpt lat="43.69017" lon="1.17041">
        <ele>214.39999389648</ele>
        <time>2016-02-06T19:56:23.000Z</time>
      </trkpt>
      <trkpt lat="43.69018" lon="1.17053">
        <ele>214.19999694824</ele>
        <time>2016-02-06T19:56:26.000Z</time>
      </trkpt>
      <trkpt lat="43.69005" lon="1.17059">
        <ele>213.80000305176</ele>
        <time>2016-02-06T19:56:31.000Z</time>
      </trkpt>
      <trkpt lat="43.6899" lon="1.17061">
        <ele>213.60000610352</ele>
        <time>2016-02-06T19:56:36.000Z</time>
      </trkpt>
      <trkpt lat="43.68972" lon="1.17063">
        <ele>213.39999389648</ele>
        <time>2016-02-06T19:56:42.000Z</time>
      </trkpt>
      <trkpt lat="43.68957" lon="1.17065">
        <ele>213.19999694824</ele>
        <time>2016-02-06T19:56:47.000Z</time>
      </trkpt>
      <trkpt lat="43.6894" lon="1.17067">
        <ele>213</ele>
        <time>2016-02-06T19:56:53.000Z</time>
      </trkpt>
      <trkpt lat="43.68921" lon="1.1707">
        <ele>213.19999694824</ele>
        <time>2016-02-06T19:56:59.000Z</time>
      </trkpt>
      <trkpt lat="43.68902" lon="1.17073">
        <ele>213.60000610352</ele>
        <time>2016-02-06T19:57:05.000Z</time>
      </trkpt>
      <trkpt lat="43.68882" lon="1.17076">
        <ele>214</ele>
        <time>2016-02-06T19:57:12.000Z</time>
      </trkpt>
      <trkpt lat="43.68864" lon="1.17081">
        <ele>214.39999389648</ele>
        <time>2016-02-06T19:57:18.000Z</time>
      </trkpt>
      <trkpt lat="43.68846" lon="1.17085">
        <ele>214.80000305176</ele>
        <time>2016-02-06T19:57:24.000Z</time>
      </trkpt>
      <trkpt lat="43.68828" lon="1.17088">
        <ele>215.19999694824</ele>
        <time>2016-02-06T19:57:30.000Z</time>
      </trkpt>
      <trkpt lat="43.6881" lon="1.17092">
        <ele>215.60000610352</ele>
        <time>2016-02-06T19:57:36.000Z</time>
      </trkpt>
      <trkpt lat="43.68803" lon="1.17095">
        <ele>215.80000305176</ele>
        <time>2016-02-06T19:57:39.000Z</time>
      </trkpt>
      <trkpt lat="43.68798" lon="1.17116">
        <ele>216</ele>
        <time>2016-02-06T19:57:45.000Z</time>
      </trkpt>
      <trkpt lat="43.68794" lon="1.1714">
        <ele>216.19999694824</ele>
        <time>2016-02-06T19:57:51.000Z</time>
      </trkpt>
      <trkpt lat="43.68791" lon="1.1716">
        <ele>215.80000305176</ele>
        <time>2016-02-06T19:57:56.000Z</time>
      </trkpt>
      <trkpt lat="43.68786" lon="1.17181">
        <ele>215.60000610352</ele>
        <time>2016-02-06T19:58:01.000Z</time>
      </trkpt>
      <trkpt lat="43.68783" lon="1.17201">
        <ele>215.19999694824</ele>
        <time>2016-02-06T19:58:06.000Z</time>
      </trkpt>
      <trkpt lat="43.68781" lon="1.17226">
        <ele>214.60000610352</ele>
        <time>2016-02-06T19:58:12.000Z</time>
      </trkpt>
      <trkpt lat="43.68778" lon="1.17246">
        <ele>215</ele>
        <time>2016-02-06T19:58:17.000Z</time>
      </trkpt>
      <trkpt lat="43.68775" lon="1.17264">
        <ele>214.60000610352</ele>
        <time>2016-02-06T19:58:22.000Z</time>
      </trkpt>
      <trkpt lat="43.6877" lon="1.17281">
        <ele>214.39999389648</ele>
        <time>2016-02-06T19:58:27.000Z</time>
      </trkpt>
      <trkpt lat="43.68765" lon="1.17301">
        <ele>214.39999389648</ele>
        <time>2016-02-06T19:58:33.000Z</time>
      </trkpt>
      <trkpt lat="43.68761" lon="1.17319">
        <ele>214.19999694824</ele>
        <time>2016-02-06T19:58:38.000Z</time>
      </trkpt>
      <trkpt lat="43.68757" lon="1.17338">
        <ele>214.19999694824</ele>
        <time>2016-02-06T19:58:43.000Z</time>
      </trkpt>
      <trkpt lat="43.68752" lon="1.17356">
        <ele>214</ele>
        <time>2016-02-06T19:58:48.000Z</time>
      </trkpt>
      <trkpt lat="43.68747" lon="1.17379">
        <ele>214</ele>
        <time>2016-02-06T19:58:54.000Z</time>
      </trkpt>
      <trkpt lat="43.68742" lon="1.17403">
        <ele>214.19999694824</ele>
        <time>2016-02-06T19:59:00.000Z</time>
      </trkpt>
      <trkpt lat="43.68738" lon="1.17424">
        <ele>214.19999694824</ele>
        <time>2016-02-06T19:59:06.000Z</time>
      </trkpt>
      <trkpt lat="43.68735" lon="1.17441">
        <ele>214.19999694824</ele>
        <time>2016-02-06T19:59:11.000Z</time>
      </trkpt>
      <trkpt lat="43.6873" lon="1.17458">
        <ele>214</ele>
        <time>2016-02-06T19:59:16.000Z</time>
      </trkpt>
      <trkpt lat="43.68724" lon="1.17474">
        <ele>213.80000305176</ele>
        <time>2016-02-06T19:59:21.000Z</time>
      </trkpt>
      <trkpt lat="43.68718" lon="1.17491">
        <ele>214.19999694824</ele>
        <time>2016-02-06T19:59:26.000Z</time>
      </trkpt>
      <trkpt lat="43.68713" lon="1.17502">
        <ele>214.60000610352</ele>
        <time>2016-02-06T19:59:30.000Z</time>
      </trkpt>
      <trkpt lat="43.68704" lon="1.17497">
        <ele>214.80000305176</ele>
        <time>2016-02-06T19:59:35.000Z</time>
      </trkpt>
      <trkpt lat="43.68706" lon="1.1749">
        <ele>214.60000610352</ele>
        <time>2016-02-06T19:59:38.000Z</time>
      </trkpt>
      <trkpt lat="43.68708" lon="1.17473">
        <ele>214.39999389648</ele>
        <time>2016-02-06T19:59:44.000Z</time>
      </trkpt>
      <trkpt lat="43.68708" lon="1.1747">
        <ele>214.39999389648</ele>
        <time>2016-02-06T19:59:45.000Z</time>
      </trkpt>
      <trkpt lat="43.68704" lon="1.17456">
        <ele>214.80000305176</ele>
        <time>2016-02-06T19:59:51.000Z</time>
      </trkpt>
      <trkpt lat="43.68703" lon="1.17454">
        <ele>215</ele>
        <time>2016-02-06T19:59:52.000Z</time>
      </trkpt>
      <trkpt lat="43.68696" lon="1.17449">
        <ele>215.39999389648</ele>
        <time>2016-02-06T19:59:56.000Z</time>
      </trkpt>
      <trkpt lat="43.68692" lon="1.17448">
        <ele>215.60000610352</ele>
        <time>2016-02-06T19:59:58.000Z</time>
      </trkpt>
      <trkpt lat="43.68684" lon="1.17444">
        <ele>216</ele>
        <time>2016-02-06T20:00:02.000Z</time>
      </trkpt>
      <trkpt lat="43.68674" lon="1.17442">
        <ele>216.39999389648</ele>
        <time>2016-02-06T20:00:06.000Z</time>
      </trkpt>
      <trkpt lat="43.68661" lon="1.17438">
        <ele>216.80000305176</ele>
        <time>2016-02-06T20:00:12.000Z</time>
      </trkpt>
      <trkpt lat="43.68652" lon="1.17431">
        <ele>217.39999389648</ele>
        <time>2016-02-06T20:00:17.000Z</time>
      </trkpt>
      <trkpt lat="43.6865" lon="1.17429">
        <ele>217.60000610352</ele>
        <time>2016-02-06T20:00:19.000Z</time>
      </trkpt>
      <trkpt lat="43.68638" lon="1.17425">
        <ele>218</ele>
        <time>2016-02-06T20:00:24.000Z</time>
      </trkpt>
      <trkpt lat="43.68636" lon="1.17422">
        <ele>218.19999694824</ele>
        <time>2016-02-06T20:00:25.000Z</time>
      </trkpt>
      <trkpt lat="43.6863" lon="1.17419">
        <ele>218.39999389648</ele>
        <time>2016-02-06T20:00:29.000Z</time>
      </trkpt>
      <trkpt lat="43.68621" lon="1.1742">
        <ele>218.80000305176</ele>
        <time>2016-02-06T20:00:33.000Z</time>
      </trkpt>
      <trkpt lat="43.68615" lon="1.1742">
        <ele>219</ele>
        <time>2016-02-06T20:00:36.000Z</time>
      </trkpt>
      <trkpt lat="43.68613" lon="1.1742">
        <ele>219</ele>
        <time>2016-02-06T20:00:37.000Z</time>
      </trkpt>
      <trkpt lat="43.68599" lon="1.17415">
        <ele>219.80000305176</ele>
        <time>2016-02-06T20:00:43.000Z</time>
      </trkpt>
      <trkpt lat="43.68592" lon="1.17409">
        <ele>220.19999694824</ele>
        <time>2016-02-06T20:00:47.000Z</time>
      </trkpt>
      <trkpt lat="43.68587" lon="1.17408">
        <ele>220.39999389648</ele>
        <time>2016-02-06T20:00:49.000Z</time>
      </trkpt>
      <trkpt lat="43.68583" lon="1.17406">
        <ele>220.60000610352</ele>
        <time>2016-02-06T20:00:51.000Z</time>
      </trkpt>
      <trkpt lat="43.68572" lon="1.17405">
        <ele>221.19999694824</ele>
        <time>2016-02-06T20:00:56.000Z</time>
      </trkpt>
      <trkpt lat="43.6857" lon="1.17405">
        <ele>221.39999389648</ele>
        <time>2016-02-06T20:00:57.000Z</time>
      </trkpt>
      <trkpt lat="43.68565" lon="1.17403">
        <ele>221.60000610352</ele>
        <time>2016-02-06T20:00:59.000Z</time>
      </trkpt>
      <trkpt lat="43.68554" lon="1.17405">
        <ele>222.19999694824</ele>
        <time>2016-02-06T20:01:04.000Z</time>
      </trkpt>
      <trkpt lat="43.68545" lon="1.17398">
        <ele>222.80000305176</ele>
        <time>2016-02-06T20:01:09.000Z</time>
      </trkpt>
      <trkpt lat="43.68537" lon="1.174">
        <ele>223</ele>
        <time>2016-02-06T20:01:13.000Z</time>
      </trkpt>
      <trkpt lat="43.68528" lon="1.17398">
        <ele>223.60000610352</ele>
        <time>2016-02-06T20:01:17.000Z</time>
      </trkpt>
      <trkpt lat="43.68514" lon="1.17389">
        <ele>224.19999694824</ele>
        <time>2016-02-06T20:01:23.000Z</time>
      </trkpt>
      <trkpt lat="43.68512" lon="1.17387">
        <ele>224.19999694824</ele>
        <time>2016-02-06T20:01:24.000Z</time>
      </trkpt>
      <trkpt lat="43.68504" lon="1.17384">
        <ele>224.39999389648</ele>
        <time>2016-02-06T20:01:28.000Z</time>
      </trkpt>
      <trkpt lat="43.68489" lon="1.17384">
        <ele>225</ele>
        <time>2016-02-06T20:01:34.000Z</time>
      </trkpt>
      <trkpt lat="43.68477" lon="1.17384">
        <ele>225.39999389648</ele>
        <time>2016-02-06T20:01:39.000Z</time>
      </trkpt>
      <trkpt lat="43.68467" lon="1.17388">
        <ele>225.80000305176</ele>
        <time>2016-02-06T20:01:43.000Z</time>
      </trkpt>
      <trkpt lat="43.68454" lon="1.17386">
        <ele>226.19999694824</ele>
        <time>2016-02-06T20:01:48.000Z</time>
      </trkpt>
      <trkpt lat="43.6844" lon="1.17382">
        <ele>226.60000610352</ele>
        <time>2016-02-06T20:01:54.000Z</time>
      </trkpt>
      <trkpt lat="43.68436" lon="1.17379">
        <ele>226.80000305176</ele>
        <time>2016-02-06T20:01:56.000Z</time>
      </trkpt>
      <trkpt lat="43.68424" lon="1.17376">
        <ele>227</ele>
        <time>2016-02-06T20:02:01.000Z</time>
      </trkpt>
      <trkpt lat="43.68412" lon="1.17375">
        <ele>227.19999694824</ele>
        <time>2016-02-06T20:02:06.000Z</time>
      </trkpt>
      <trkpt lat="43.68397" lon="1.17374">
        <ele>226.80000305176</ele>
        <time>2016-02-06T20:02:12.000Z</time>
      </trkpt>
      <trkpt lat="43.68366" lon="1.17369">
        <ele>226.19999694824</ele>
        <time>2016-02-06T20:02:25.000Z</time>
      </trkpt>
      <trkpt lat="43.6836" lon="1.17372">
        <ele>226</ele>
        <time>2016-02-06T20:02:28.000Z</time>
      </trkpt>
      <trkpt lat="43.68346" lon="1.17369">
        <ele>224.80000305176</ele>
        <time>2016-02-06T20:02:33.000Z</time>
      </trkpt>
      <trkpt lat="43.68337" lon="1.17362">
        <ele>223.80000305176</ele>
        <time>2016-02-06T20:02:37.000Z</time>
      </trkpt>
      <trkpt lat="43.68335" lon="1.17341">
        <ele>224.39999389648</ele>
        <time>2016-02-06T20:02:43.000Z</time>
      </trkpt>
      <trkpt lat="43.68328" lon="1.1733">
        <ele>223.80000305176</ele>
        <time>2016-02-06T20:02:47.000Z</time>
      </trkpt>
      <trkpt lat="43.68312" lon="1.17325">
        <ele>221.60000610352</ele>
        <time>2016-02-06T20:02:53.000Z</time>
      </trkpt>
      <trkpt lat="43.683" lon="1.1732">
        <ele>220.19999694824</ele>
        <time>2016-02-06T20:02:59.000Z</time>
      </trkpt>
      <trkpt lat="43.68297" lon="1.17328">
        <ele>219.19999694824</ele>
        <time>2016-02-06T20:03:03.000Z</time>
      </trkpt>
      <trkpt lat="43.68292" lon="1.17351">
        <ele>219</ele>
        <time>2016-02-06T20:03:09.000Z</time>
      </trkpt>
      <trkpt lat="43.68286" lon="1.17377">
        <ele>219.60000610352</ele>
        <time>2016-02-06T20:03:16.000Z</time>
      </trkpt>
      <trkpt lat="43.68279" lon="1.17399">
        <ele>219.39999389648</ele>
        <time>2016-02-06T20:03:22.000Z</time>
      </trkpt>
      <trkpt lat="43.68274" lon="1.17423">
        <ele>218.60000610352</ele>
        <time>2016-02-06T20:03:28.000Z</time>
      </trkpt>
      <trkpt lat="43.68272" lon="1.1743">
        <ele>218.19999694824</ele>
        <time>2016-02-06T20:03:30.000Z</time>
      </trkpt>
      <trkpt lat="43.68267" lon="1.17455">
        <ele>217</ele>
        <time>2016-02-06T20:03:37.000Z</time>
      </trkpt>
      <trkpt lat="43.68262" lon="1.1747">
        <ele>215.60000610352</ele>
        <time>2016-02-06T20:03:41.000Z</time>
      </trkpt>
      <trkpt lat="43.68254" lon="1.17495">
        <ele>214.39999389648</ele>
        <time>2016-02-06T20:03:48.000Z</time>
      </trkpt>
      <trkpt lat="43.68249" lon="1.17513">
        <ele>213.39999389648</ele>
        <time>2016-02-06T20:03:53.000Z</time>
      </trkpt>
      <trkpt lat="43.68241" lon="1.17535">
        <ele>212.19999694824</ele>
        <time>2016-02-06T20:03:59.000Z</time>
      </trkpt>
      <trkpt lat="43.68235" lon="1.17557">
        <ele>211.60000610352</ele>
        <time>2016-02-06T20:04:05.000Z</time>
      </trkpt>
      <trkpt lat="43.68228" lon="1.17579">
        <ele>211.39999389648</ele>
        <time>2016-02-06T20:04:11.000Z</time>
      </trkpt>
      <trkpt lat="43.68227" lon="1.17597">
        <ele>212</ele>
        <time>2016-02-06T20:04:16.000Z</time>
      </trkpt>
      <trkpt lat="43.6823" lon="1.17612">
        <ele>213.39999389648</ele>
        <time>2016-02-06T20:04:20.000Z</time>
      </trkpt>
      <trkpt lat="43.68232" lon="1.17634">
        <ele>215.19999694824</ele>
        <time>2016-02-06T20:04:26.000Z</time>
      </trkpt>
      <trkpt lat="43.68231" lon="1.17641">
        <ele>215.60000610352</ele>
        <time>2016-02-06T20:04:28.000Z</time>
      </trkpt>
      <trkpt lat="43.68225" lon="1.17644">
        <ele>215</ele>
        <time>2016-02-06T20:04:32.000Z</time>
      </trkpt>
      <trkpt lat="43.68221" lon="1.17644">
        <ele>214.39999389648</ele>
        <time>2016-02-06T20:04:34.000Z</time>
      </trkpt>
      <trkpt lat="43.68213" lon="1.17647">
        <ele>213.60000610352</ele>
        <time>2016-02-06T20:04:38.000Z</time>
      </trkpt>
      <trkpt lat="43.6821" lon="1.17651">
        <ele>213</ele>
        <time>2016-02-06T20:04:40.000Z</time>
      </trkpt>
      <trkpt lat="43.68205" lon="1.17657">
        <ele>212.39999389648</ele>
        <time>2016-02-06T20:04:43.000Z</time>
      </trkpt>
      <trkpt lat="43.68195" lon="1.17658">
        <ele>211.19999694824</ele>
        <time>2016-02-06T20:04:48.000Z</time>
      </trkpt>
      <trkpt lat="43.68187" lon="1.17665">
        <ele>210.60000610352</ele>
        <time>2016-02-06T20:04:52.000Z</time>
      </trkpt>
      <trkpt lat="43.68185" lon="1.17668">
        <ele>210.39999389648</ele>
        <time>2016-02-06T20:04:53.000Z</time>
      </trkpt>
      <trkpt lat="43.68183" lon="1.17672">
        <ele>209.80000305176</ele>
        <time>2016-02-06T20:04:55.000Z</time>
      </trkpt>
      <trkpt lat="43.68175" lon="1.17672">
        <ele>208.39999389648</ele>
        <time>2016-02-06T20:04:59.000Z</time>
      </trkpt>
      <trkpt lat="43.68172" lon="1.17673">
        <ele>207.80000305176</ele>
        <time>2016-02-06T20:05:01.000Z</time>
      </trkpt>
      <trkpt lat="43.68168" lon="1.17674">
        <ele>207</ele>
        <time>2016-02-06T20:05:03.000Z</time>
      </trkpt>
      <trkpt lat="43.68161" lon="1.17673">
        <ele>205.60000610352</ele>
        <time>2016-02-06T20:05:07.000Z</time>
      </trkpt>
      <trkpt lat="43.6816" lon="1.17674">
        <ele>205.39999389648</ele>
        <time>2016-02-06T20:05:08.000Z</time>
      </trkpt>
      <trkpt lat="43.68159" lon="1.17675">
        <ele>205</ele>
        <time>2016-02-06T20:05:09.000Z</time>
      </trkpt>
      <trkpt lat="43.6815" lon="1.17674">
        <ele>203.39999389648</ele>
        <time>2016-02-06T20:05:14.000Z</time>
      </trkpt>
      <trkpt lat="43.68146" lon="1.17678">
        <ele>202.60000610352</ele>
        <time>2016-02-06T20:05:18.000Z</time>
      </trkpt>
      <trkpt lat="43.68141" lon="1.17677">
        <ele>201.60000610352</ele>
        <time>2016-02-06T20:05:21.000Z</time>
      </trkpt>
      <trkpt lat="43.6814" lon="1.17678">
        <ele>201.39999389648</ele>
        <time>2016-02-06T20:05:22.000Z</time>
      </trkpt>
      <trkpt lat="43.68138" lon="1.17678">
        <ele>201</ele>
        <time>2016-02-06T20:05:23.000Z</time>
      </trkpt>
      <trkpt lat="43.68133" lon="1.17671">
        <ele>199.80000305176</ele>
        <time>2016-02-06T20:05:28.000Z</time>
      </trkpt>
      <trkpt lat="43.6813" lon="1.17663">
        <ele>199</ele>
        <time>2016-02-06T20:05:31.000Z</time>
      </trkpt>
      <trkpt lat="43.68123" lon="1.17666">
        <ele>197.60000610352</ele>
        <time>2016-02-06T20:05:34.000Z</time>
      </trkpt>
      <trkpt lat="43.68115" lon="1.17668">
        <ele>195.80000305176</ele>
        <time>2016-02-06T20:05:38.000Z</time>
      </trkpt>
      <trkpt lat="43.6811" lon="1.17668">
        <ele>194.80000305176</ele>
        <time>2016-02-06T20:05:40.000Z</time>
      </trkpt>
      <trkpt lat="43.68098" lon="1.17663">
        <ele>193.19999694824</ele>
        <time>2016-02-06T20:05:46.000Z</time>
      </trkpt>
      <trkpt lat="43.68096" lon="1.17662">
        <ele>193.19999694824</ele>
        <time>2016-02-06T20:05:47.000Z</time>
      </trkpt>
      <trkpt lat="43.68085" lon="1.17653">
        <ele>193.39999389648</ele>
        <time>2016-02-06T20:05:52.000Z</time>
      </trkpt>
      <trkpt lat="43.68082" lon="1.17647">
        <ele>193.19999694824</ele>
        <time>2016-02-06T20:05:54.000Z</time>
      </trkpt>
      <trkpt lat="43.68078" lon="1.17643">
        <ele>193.39999389648</ele>
        <time>2016-02-06T20:05:58.000Z</time>
      </trkpt>
      <trkpt lat="43.68074" lon="1.1764">
        <ele>193.80000305176</ele>
        <time>2016-02-06T20:06:05.000Z</time>
      </trkpt>
      <trkpt lat="43.68067" lon="1.17637">
        <ele>194.19999694824</ele>
        <time>2016-02-06T20:06:11.000Z</time>
      </trkpt>
      <trkpt lat="43.68068" lon="1.17606">
        <ele>197.19999694824</ele>
        <time>2016-02-06T20:06:26.000Z</time>
      </trkpt>
      <trkpt lat="43.68072" lon="1.17598">
        <ele>196.80000305176</ele>
        <time>2016-02-06T20:06:29.000Z</time>
      </trkpt>
      <trkpt lat="43.68071" lon="1.17587">
        <ele>197.19999694824</ele>
        <time>2016-02-06T20:06:33.000Z</time>
      </trkpt>
      <trkpt lat="43.68071" lon="1.17582">
        <ele>197.19999694824</ele>
        <time>2016-02-06T20:06:35.000Z</time>
      </trkpt>
      <trkpt lat="43.68071" lon="1.17575">
        <ele>197.39999389648</ele>
        <time>2016-02-06T20:06:39.000Z</time>
      </trkpt>
      <trkpt lat="43.6807" lon="1.1757">
        <ele>197.39999389648</ele>
        <time>2016-02-06T20:06:42.000Z</time>
      </trkpt>
      <trkpt lat="43.68069" lon="1.17568">
        <ele>197.60000610352</ele>
        <time>2016-02-06T20:06:44.000Z</time>
      </trkpt>
      <trkpt lat="43.6807" lon="1.17564">
        <ele>197.60000610352</ele>
        <time>2016-02-06T20:06:47.000Z</time>
      </trkpt>
      <trkpt lat="43.68068" lon="1.17557">
        <ele>198.19999694824</ele>
        <time>2016-02-06T20:06:52.000Z</time>
      </trkpt>
      <trkpt lat="43.68064" lon="1.17551">
        <ele>199.39999389648</ele>
        <time>2016-02-06T20:06:57.000Z</time>
      </trkpt>
      <trkpt lat="43.68061" lon="1.17545">
        <ele>200.39999389648</ele>
        <time>2016-02-06T20:07:02.000Z</time>
      </trkpt>
      <trkpt lat="43.68057" lon="1.17538">
        <ele>201.80000305176</ele>
        <time>2016-02-06T20:07:10.000Z</time>
      </trkpt>
      <trkpt lat="43.68051" lon="1.17534">
        <ele>202.80000305176</ele>
        <time>2016-02-06T20:07:17.000Z</time>
      </trkpt>
      <trkpt lat="43.68045" lon="1.17534">
        <ele>203.39999389648</ele>
        <time>2016-02-06T20:07:23.000Z</time>
      </trkpt>
      <trkpt lat="43.68043" lon="1.17533">
        <ele>203.80000305176</ele>
        <time>2016-02-06T20:07:25.000Z</time>
      </trkpt>
      <trkpt lat="43.68037" lon="1.17534">
        <ele>204.39999389648</ele>
        <time>2016-02-06T20:07:31.000Z</time>
      </trkpt>
      <trkpt lat="43.68033" lon="1.17532">
        <ele>205.19999694824</ele>
        <time>2016-02-06T20:07:35.000Z</time>
      </trkpt>
      <trkpt lat="43.68032" lon="1.17532">
        <ele>205.19999694824</ele>
        <time>2016-02-06T20:07:37.000Z</time>
      </trkpt>
      <trkpt lat="43.68027" lon="1.17531">
        <ele>206</ele>
        <time>2016-02-06T20:07:41.000Z</time>
      </trkpt>
      <trkpt lat="43.68025" lon="1.17531">
        <ele>206</ele>
        <time>2016-02-06T20:07:43.000Z</time>
      </trkpt>
      <trkpt lat="43.68021" lon="1.17531">
        <ele>206.39999389648</ele>
        <time>2016-02-06T20:07:46.000Z</time>
      </trkpt>
      <trkpt lat="43.68017" lon="1.17529">
        <ele>207</ele>
        <time>2016-02-06T20:07:51.000Z</time>
      </trkpt>
      <trkpt lat="43.68017" lon="1.17528">
        <ele>207.19999694824</ele>
        <time>2016-02-06T20:07:52.000Z</time>
      </trkpt>
      <trkpt lat="43.68015" lon="1.17527">
        <ele>207.39999389648</ele>
        <time>2016-02-06T20:07:54.000Z</time>
      </trkpt>
      <trkpt lat="43.68012" lon="1.17522">
        <ele>208.19999694824</ele>
        <time>2016-02-06T20:07:59.000Z</time>
      </trkpt>
      <trkpt lat="43.68011" lon="1.1752">
        <ele>208.60000610352</ele>
        <time>2016-02-06T20:08:01.000Z</time>
      </trkpt>
      <trkpt lat="43.68008" lon="1.17518">
        <ele>209.19999694824</ele>
        <time>2016-02-06T20:08:04.000Z</time>
      </trkpt>
      <trkpt lat="43.68005" lon="1.17517">
        <ele>209.60000610352</ele>
        <time>2016-02-06T20:08:06.000Z</time>
      </trkpt>
      <trkpt lat="43.68003" lon="1.17513">
        <ele>210.19999694824</ele>
        <time>2016-02-06T20:08:10.000Z</time>
      </trkpt>
      <trkpt lat="43.68001" lon="1.1751">
        <ele>210.80000305176</ele>
        <time>2016-02-06T20:08:14.000Z</time>
      </trkpt>
      <trkpt lat="43.67998" lon="1.17502">
        <ele>211.80000305176</ele>
        <time>2016-02-06T20:08:19.000Z</time>
      </trkpt>
      <trkpt lat="43.67998" lon="1.17501">
        <ele>212</ele>
        <time>2016-02-06T20:08:21.000Z</time>
      </trkpt>
      <trkpt lat="43.67995" lon="1.17492">
        <ele>213.39999389648</ele>
        <time>2016-02-06T20:08:28.000Z</time>
      </trkpt>
      <trkpt lat="43.67991" lon="1.17488">
        <ele>214.19999694824</ele>
        <time>2016-02-06T20:08:33.000Z</time>
      </trkpt>
      <trkpt lat="43.67985" lon="1.17486">
        <ele>215</ele>
        <time>2016-02-06T20:08:39.000Z</time>
      </trkpt>
      <trkpt lat="43.67983" lon="1.17485">
        <ele>215.19999694824</ele>
        <time>2016-02-06T20:08:41.000Z</time>
      </trkpt>
      <trkpt lat="43.67982" lon="1.17484">
        <ele>215.39999389648</ele>
        <time>2016-02-06T20:08:44.000Z</time>
      </trkpt>
      <trkpt lat="43.67975" lon="1.17481">
        <ele>216.39999389648</ele>
        <time>2016-02-06T20:08:52.000Z</time>
      </trkpt>
      <trkpt lat="43.67974" lon="1.17481">
        <ele>216.60000610352</ele>
        <time>2016-02-06T20:08:53.000Z</time>
      </trkpt>
      <trkpt lat="43.6797" lon="1.17479">
        <ele>217</ele>
        <time>2016-02-06T20:08:57.000Z</time>
      </trkpt>
      <trkpt lat="43.67961" lon="1.17475">
        <ele>218</ele>
        <time>2016-02-06T20:09:06.000Z</time>
      </trkpt>
      <trkpt lat="43.67959" lon="1.17473">
        <ele>218.19999694824</ele>
        <time>2016-02-06T20:09:08.000Z</time>
      </trkpt>
      <trkpt lat="43.67955" lon="1.17472">
        <ele>218.80000305176</ele>
        <time>2016-02-06T20:09:12.000Z</time>
      </trkpt>
      <trkpt lat="43.67944" lon="1.17465">
        <ele>220</ele>
        <time>2016-02-06T20:09:22.000Z</time>
      </trkpt>
      <trkpt lat="43.67936" lon="1.17466">
        <ele>220.60000610352</ele>
        <time>2016-02-06T20:09:29.000Z</time>
      </trkpt>
      <trkpt lat="43.67932" lon="1.17462">
        <ele>220.19999694824</ele>
        <time>2016-02-06T20:09:33.000Z</time>
      </trkpt>
      <trkpt lat="43.67928" lon="1.17464">
        <ele>219.60000610352</ele>
        <time>2016-02-06T20:09:35.000Z</time>
      </trkpt>
      <trkpt lat="43.67912" lon="1.17477">
        <ele>217.60000610352</ele>
        <time>2016-02-06T20:09:42.000Z</time>
      </trkpt>
      <trkpt lat="43.67903" lon="1.1748">
        <ele>216.39999389648</ele>
        <time>2016-02-06T20:09:45.000Z</time>
      </trkpt>
      <trkpt lat="43.6789" lon="1.175">
        <ele>212.60000610352</ele>
        <time>2016-02-06T20:09:52.000Z</time>
      </trkpt>
      <trkpt lat="43.67879" lon="1.1752">
        <ele>210.19999694824</ele>
        <time>2016-02-06T20:09:58.000Z</time>
      </trkpt>
      <trkpt lat="43.6787" lon="1.17535">
        <ele>209</ele>
        <time>2016-02-06T20:10:03.000Z</time>
      </trkpt>
      <trkpt lat="43.67868" lon="1.17536">
        <ele>209</ele>
        <time>2016-02-06T20:10:04.000Z</time>
      </trkpt>
      <trkpt lat="43.67863" lon="1.17529">
        <ele>209.19999694824</ele>
        <time>2016-02-06T20:10:07.000Z</time>
      </trkpt>
      <trkpt lat="43.67862" lon="1.17528">
        <ele>209.19999694824</ele>
        <time>2016-02-06T20:10:08.000Z</time>
      </trkpt>
      <trkpt lat="43.67857" lon="1.17523">
        <ele>209.39999389648</ele>
        <time>2016-02-06T20:10:10.000Z</time>
      </trkpt>
      <trkpt lat="43.67847" lon="1.17519">
        <ele>208.60000610352</ele>
        <time>2016-02-06T20:10:14.000Z</time>
      </trkpt>
      <trkpt lat="43.67813" lon="1.17507">
        <ele>204</ele>
        <time>2016-02-06T20:10:27.000Z</time>
      </trkpt>
      <trkpt lat="43.67801" lon="1.17507">
        <ele>202.19999694824</ele>
        <time>2016-02-06T20:10:32.000Z</time>
      </trkpt>
      <trkpt lat="43.67789" lon="1.17507">
        <ele>200.60000610352</ele>
        <time>2016-02-06T20:10:37.000Z</time>
      </trkpt>
      <trkpt lat="43.67778" lon="1.17509">
        <ele>199.19999694824</ele>
        <time>2016-02-06T20:10:41.000Z</time>
      </trkpt>
      <trkpt lat="43.67765" lon="1.17516">
        <ele>197.60000610352</ele>
        <time>2016-02-06T20:10:46.000Z</time>
      </trkpt>
      <trkpt lat="43.67759" lon="1.17524">
        <ele>196.60000610352</ele>
        <time>2016-02-06T20:10:49.000Z</time>
      </trkpt>
      <trkpt lat="43.67737" lon="1.17519">
        <ele>194</ele>
        <time>2016-02-06T20:10:58.000Z</time>
      </trkpt>
      <trkpt lat="43.67725" lon="1.1752">
        <ele>192.60000610352</ele>
        <time>2016-02-06T20:11:03.000Z</time>
      </trkpt>
      <trkpt lat="43.67713" lon="1.17515">
        <ele>191.39999389648</ele>
        <time>2016-02-06T20:11:08.000Z</time>
      </trkpt>
      <trkpt lat="43.67707" lon="1.17509">
        <ele>190.80000305176</ele>
        <time>2016-02-06T20:11:12.000Z</time>
      </trkpt>
      <trkpt lat="43.67704" lon="1.17508">
        <ele>190.60000610352</ele>
        <time>2016-02-06T20:11:13.000Z</time>
      </trkpt>
      <trkpt lat="43.67692" lon="1.17506">
        <ele>189.39999389648</ele>
        <time>2016-02-06T20:11:18.000Z</time>
      </trkpt>
      <trkpt lat="43.6768" lon="1.17497">
        <ele>188.39999389648</ele>
        <time>2016-02-06T20:11:24.000Z</time>
      </trkpt>
      <trkpt lat="43.67678" lon="1.17495">
        <ele>188.19999694824</ele>
        <time>2016-02-06T20:11:25.000Z</time>
      </trkpt>
      <trkpt lat="43.67666" lon="1.1749">
        <ele>187.39999389648</ele>
        <time>2016-02-06T20:11:31.000Z</time>
      </trkpt>
      <trkpt lat="43.67655" lon="1.17487">
        <ele>186.60000610352</ele>
        <time>2016-02-06T20:11:35.000Z</time>
      </trkpt>
      <trkpt lat="43.67647" lon="1.17482">
        <ele>186.19999694824</ele>
        <time>2016-02-06T20:11:39.000Z</time>
      </trkpt>
      <trkpt lat="43.67643" lon="1.17481">
        <ele>185.80000305176</ele>
        <time>2016-02-06T20:11:41.000Z</time>
      </trkpt>
      <trkpt lat="43.67639" lon="1.1748">
        <ele>185.60000610352</ele>
        <time>2016-02-06T20:11:43.000Z</time>
      </trkpt>
      <trkpt lat="43.67633" lon="1.1747">
        <ele>185.60000610352</ele>
        <time>2016-02-06T20:11:49.000Z</time>
      </trkpt>
      <trkpt lat="43.67632" lon="1.1747">
        <ele>185.60000610352</ele>
        <time>2016-02-06T20:11:50.000Z</time>
      </trkpt>
      <trkpt lat="43.67623" lon="1.17468">
        <ele>185</ele>
        <time>2016-02-06T20:11:57.000Z</time>
      </trkpt>
      <trkpt lat="43.67622" lon="1.17466">
        <ele>185.19999694824</ele>
        <time>2016-02-06T20:11:58.000Z</time>
      </trkpt>
      <trkpt lat="43.6762" lon="1.17464">
        <ele>185</ele>
        <time>2016-02-06T20:12:02.000Z</time>
      </trkpt>
      <trkpt lat="43.67619" lon="1.17464">
        <ele>185</ele>
        <time>2016-02-06T20:12:03.000Z</time>
      </trkpt>
      <trkpt lat="43.67615" lon="1.17461">
        <ele>184.80000305176</ele>
        <time>2016-02-06T20:12:08.000Z</time>
      </trkpt>
      <trkpt lat="43.67614" lon="1.17461">
        <ele>184.80000305176</ele>
        <time>2016-02-06T20:12:09.000Z</time>
      </trkpt>
      <trkpt lat="43.67602" lon="1.17453">
        <ele>184.39999389648</ele>
        <time>2016-02-06T20:12:22.000Z</time>
      </trkpt>
      <trkpt lat="43.67596" lon="1.17453">
        <ele>184.19999694824</ele>
        <time>2016-02-06T20:12:28.000Z</time>
      </trkpt>
      <trkpt lat="43.67592" lon="1.1745">
        <ele>184</ele>
        <time>2016-02-06T20:12:31.000Z</time>
      </trkpt>
      <trkpt lat="43.67587" lon="1.17444">
        <ele>184</ele>
        <time>2016-02-06T20:12:36.000Z</time>
      </trkpt>
      <trkpt lat="43.67576" lon="1.17437">
        <ele>183.80000305176</ele>
        <time>2016-02-06T20:12:41.000Z</time>
      </trkpt>
      <trkpt lat="43.6756" lon="1.17429">
        <ele>183.39999389648</ele>
        <time>2016-02-06T20:12:47.000Z</time>
      </trkpt>
      <trkpt lat="43.67551" lon="1.17422">
        <ele>183.19999694824</ele>
        <time>2016-02-06T20:12:51.000Z</time>
      </trkpt>
      <trkpt lat="43.67539" lon="1.17414">
        <ele>183</ele>
        <time>2016-02-06T20:12:56.000Z</time>
      </trkpt>
      <trkpt lat="43.67526" lon="1.17406">
        <ele>182.80000305176</ele>
        <time>2016-02-06T20:13:01.000Z</time>
      </trkpt>
      <trkpt lat="43.67511" lon="1.17394">
        <ele>182.39999389648</ele>
        <time>2016-02-06T20:13:07.000Z</time>
      </trkpt>
      <trkpt lat="43.67484" lon="1.17381">
        <ele>181.60000610352</ele>
        <time>2016-02-06T20:13:17.000Z</time>
      </trkpt>
      <trkpt lat="43.6747" lon="1.17385">
        <ele>180.19999694824</ele>
        <time>2016-02-06T20:13:23.000Z</time>
      </trkpt>
      <trkpt lat="43.67464" lon="1.17401">
        <ele>178.60000610352</ele>
        <time>2016-02-06T20:13:27.000Z</time>
      </trkpt>
      <trkpt lat="43.67457" lon="1.17421">
        <ele>177.39999389648</ele>
        <time>2016-02-06T20:13:32.000Z</time>
      </trkpt>
      <trkpt lat="43.67449" lon="1.17443">
        <ele>176</ele>
        <time>2016-02-06T20:13:38.000Z</time>
      </trkpt>
      <trkpt lat="43.67442" lon="1.17462">
        <ele>175</ele>
        <time>2016-02-06T20:13:43.000Z</time>
      </trkpt>
      <trkpt lat="43.67434" lon="1.17487">
        <ele>173.80000305176</ele>
        <time>2016-02-06T20:13:49.000Z</time>
      </trkpt>
      <trkpt lat="43.67426" lon="1.17512">
        <ele>173.19999694824</ele>
        <time>2016-02-06T20:13:55.000Z</time>
      </trkpt>
      <trkpt lat="43.67418" lon="1.17537">
        <ele>172.39999389648</ele>
        <time>2016-02-06T20:14:01.000Z</time>
      </trkpt>
      <trkpt lat="43.6741" lon="1.17563">
        <ele>171.80000305176</ele>
        <time>2016-02-06T20:14:07.000Z</time>
      </trkpt>
      <trkpt lat="43.67399" lon="1.17604">
        <ele>169</ele>
        <time>2016-02-06T20:14:17.000Z</time>
      </trkpt>
      <trkpt lat="43.67395" lon="1.1763">
        <ele>169.60000610352</ele>
        <time>2016-02-06T20:14:23.000Z</time>
      </trkpt>
      <trkpt lat="43.67393" lon="1.17652">
        <ele>169.80000305176</ele>
        <time>2016-02-06T20:14:28.000Z</time>
      </trkpt>
      <trkpt lat="43.6739" lon="1.17679">
        <ele>169</ele>
        <time>2016-02-06T20:14:34.000Z</time>
      </trkpt>
      <trkpt lat="43.67388" lon="1.17701">
        <ele>169.39999389648</ele>
        <time>2016-02-06T20:14:40.000Z</time>
      </trkpt>
      <trkpt lat="43.67384" lon="1.17718">
        <ele>169.80000305176</ele>
        <time>2016-02-06T20:14:44.000Z</time>
      </trkpt>
      <trkpt lat="43.67382" lon="1.17738">
        <ele>169.80000305176</ele>
        <time>2016-02-06T20:14:49.000Z</time>
      </trkpt>
      <trkpt lat="43.67379" lon="1.17759">
        <ele>169.80000305176</ele>
        <time>2016-02-06T20:14:54.000Z</time>
      </trkpt>
      <trkpt lat="43.67378" lon="1.17783">
        <ele>170.39999389648</ele>
        <time>2016-02-06T20:15:00.000Z</time>
      </trkpt>
      <trkpt lat="43.67376" lon="1.1781">
        <ele>171.19999694824</ele>
        <time>2016-02-06T20:15:06.000Z</time>
      </trkpt>
      <trkpt lat="43.67376" lon="1.17836">
        <ele>170</ele>
        <time>2016-02-06T20:15:12.000Z</time>
      </trkpt>
      <trkpt lat="43.67377" lon="1.17863">
        <ele>168</ele>
        <time>2016-02-06T20:15:18.000Z</time>
      </trkpt>
      <trkpt lat="43.67377" lon="1.17881">
        <ele>166.60000610352</ele>
        <time>2016-02-06T20:15:22.000Z</time>
      </trkpt>
      <trkpt lat="43.67378" lon="1.17906">
        <ele>165.39999389648</ele>
        <time>2016-02-06T20:15:27.000Z</time>
      </trkpt>
      <trkpt lat="43.67377" lon="1.1793">
        <ele>164.60000610352</ele>
        <time>2016-02-06T20:15:32.000Z</time>
      </trkpt>
      <trkpt lat="43.67376" lon="1.17958">
        <ele>163.19999694824</ele>
        <time>2016-02-06T20:15:38.000Z</time>
      </trkpt>
      <trkpt lat="43.67376" lon="1.17983">
        <ele>161.80000305176</ele>
        <time>2016-02-06T20:15:43.000Z</time>
      </trkpt>
      <trkpt lat="43.67374" lon="1.18008">
        <ele>159.39999389648</ele>
        <time>2016-02-06T20:15:48.000Z</time>
      </trkpt>
      <trkpt lat="43.67374" lon="1.18023">
        <ele>158.60000610352</ele>
        <time>2016-02-06T20:15:51.000Z</time>
      </trkpt>
      <trkpt lat="43.67373" lon="1.18033">
        <ele>158</ele>
        <time>2016-02-06T20:15:53.000Z</time>
      </trkpt>
      <trkpt lat="43.67372" lon="1.18059">
        <ele>156.39999389648</ele>
        <time>2016-02-06T20:15:59.000Z</time>
      </trkpt>
      <trkpt lat="43.6737" lon="1.18087">
        <ele>155.39999389648</ele>
        <time>2016-02-06T20:16:04.000Z</time>
      </trkpt>
      <trkpt lat="43.67365" lon="1.18112">
        <ele>154.80000305176</ele>
        <time>2016-02-06T20:16:10.000Z</time>
      </trkpt>
      <trkpt lat="43.67358" lon="1.18142">
        <ele>154</ele>
        <time>2016-02-06T20:16:17.000Z</time>
      </trkpt>
      <trkpt lat="43.67353" lon="1.18166">
        <ele>153.19999694824</ele>
        <time>2016-02-06T20:16:22.000Z</time>
      </trkpt>
      <trkpt lat="43.6735" lon="1.18193">
        <ele>152.19999694824</ele>
        <time>2016-02-06T20:16:27.000Z</time>
      </trkpt>
      <trkpt lat="43.67348" lon="1.18216">
        <ele>151.39999389648</ele>
        <time>2016-02-06T20:16:32.000Z</time>
      </trkpt>
      <trkpt lat="43.67346" lon="1.18244">
        <ele>150</ele>
        <time>2016-02-06T20:16:38.000Z</time>
      </trkpt>
      <trkpt lat="43.67343" lon="1.18269">
        <ele>148.60000610352</ele>
        <time>2016-02-06T20:16:43.000Z</time>
      </trkpt>
      <trkpt lat="43.67338" lon="1.18288">
        <ele>147.60000610352</ele>
        <time>2016-02-06T20:16:47.000Z</time>
      </trkpt>
      <trkpt lat="43.6733" lon="1.18304">
        <ele>146.19999694824</ele>
        <time>2016-02-06T20:16:51.000Z</time>
      </trkpt>
      <trkpt lat="43.67318" lon="1.1833">
        <ele>143.80000305176</ele>
        <time>2016-02-06T20:16:58.000Z</time>
      </trkpt>
      <trkpt lat="43.67308" lon="1.18348">
        <ele>142</ele>
        <time>2016-02-06T20:17:03.000Z</time>
      </trkpt>
      <trkpt lat="43.67299" lon="1.18363">
        <ele>140.19999694824</ele>
        <time>2016-02-06T20:17:07.000Z</time>
      </trkpt>
      <trkpt lat="43.67288" lon="1.18385">
        <ele>137.39999389648</ele>
        <time>2016-02-06T20:17:13.000Z</time>
      </trkpt>
      <trkpt lat="43.67275" lon="1.18405">
        <ele>135</ele>
        <time>2016-02-06T20:17:19.000Z</time>
      </trkpt>
      <trkpt lat="43.6726" lon="1.18422">
        <ele>133</ele>
        <time>2016-02-06T20:17:25.000Z</time>
      </trkpt>
      <trkpt lat="43.67246" lon="1.18439">
        <ele>131.19999694824</ele>
        <time>2016-02-06T20:17:31.000Z</time>
      </trkpt>
      <trkpt lat="43.67231" lon="1.18457">
        <ele>130.39999389648</ele>
        <time>2016-02-06T20:17:38.000Z</time>
      </trkpt>
      <trkpt lat="43.67226" lon="1.18462">
        <ele>130.60000610352</ele>
        <time>2016-02-06T20:17:40.000Z</time>
      </trkpt>
      <trkpt lat="43.67215" lon="1.18461">
        <ele>130.60000610352</ele>
        <time>2016-02-06T20:17:44.000Z</time>
      </trkpt>
      <trkpt lat="43.67213" lon="1.18457">
        <ele>130.39999389648</ele>
        <time>2016-02-06T20:17:45.000Z</time>
      </trkpt>
      <trkpt lat="43.67198" lon="1.18434">
        <ele>130</ele>
        <time>2016-02-06T20:17:52.000Z</time>
      </trkpt>
      <trkpt lat="43.67186" lon="1.18416">
        <ele>129.60000610352</ele>
        <time>2016-02-06T20:17:58.000Z</time>
      </trkpt>
      <trkpt lat="43.67175" lon="1.18397">
        <ele>128.80000305176</ele>
        <time>2016-02-06T20:18:04.000Z</time>
      </trkpt>
      <trkpt lat="43.67165" lon="1.18381">
        <ele>128.39999389648</ele>
        <time>2016-02-06T20:18:09.000Z</time>
      </trkpt>
      <trkpt lat="43.6715" lon="1.18356">
        <ele>128.19999694824</ele>
        <time>2016-02-06T20:18:17.000Z</time>
      </trkpt>
      <trkpt lat="43.67138" lon="1.18337">
        <ele>128.39999389648</ele>
        <time>2016-02-06T20:18:23.000Z</time>
      </trkpt>
      <trkpt lat="43.67126" lon="1.18318">
        <ele>128.39999389648</ele>
        <time>2016-02-06T20:18:29.000Z</time>
      </trkpt>
      <trkpt lat="43.67112" lon="1.18297">
        <ele>128.39999389648</ele>
        <time>2016-02-06T20:18:36.000Z</time>
      </trkpt>
      <trkpt lat="43.67101" lon="1.18282">
        <ele>128.39999389648</ele>
        <time>2016-02-06T20:18:41.000Z</time>
      </trkpt>
      <trkpt lat="43.67088" lon="1.1827">
        <ele>128.19999694824</ele>
        <time>2016-02-06T20:18:46.000Z</time>
      </trkpt>
      <trkpt lat="43.67073" lon="1.18258">
        <ele>128.19999694824</ele>
        <time>2016-02-06T20:18:52.000Z</time>
      </trkpt>
      <trkpt lat="43.6706" lon="1.18249">
        <ele>128</ele>
        <time>2016-02-06T20:18:57.000Z</time>
      </trkpt>
      <trkpt lat="43.67045" lon="1.18237">
        <ele>127.80000305176</ele>
        <time>2016-02-06T20:19:03.000Z</time>
      </trkpt>
      <trkpt lat="43.67029" lon="1.18224">
        <ele>127.59999847412</ele>
        <time>2016-02-06T20:19:09.000Z</time>
      </trkpt>
      <trkpt lat="43.67013" lon="1.1821">
        <ele>127.80000305176</ele>
        <time>2016-02-06T20:19:15.000Z</time>
      </trkpt>
      <trkpt lat="43.67001" lon="1.18199">
        <ele>128.19999694824</ele>
        <time>2016-02-06T20:19:20.000Z</time>
      </trkpt>
      <trkpt lat="43.66986" lon="1.18184">
        <ele>128.80000305176</ele>
        <time>2016-02-06T20:19:26.000Z</time>
      </trkpt>
      <trkpt lat="43.66969" lon="1.1817">
        <ele>129.19999694824</ele>
        <time>2016-02-06T20:19:33.000Z</time>
      </trkpt>
      <trkpt lat="43.66957" lon="1.1816">
        <ele>129.60000610352</ele>
        <time>2016-02-06T20:19:38.000Z</time>
      </trkpt>
      <trkpt lat="43.66943" lon="1.18148">
        <ele>130</ele>
        <time>2016-02-06T20:19:44.000Z</time>
      </trkpt>
      <trkpt lat="43.66928" lon="1.18139">
        <ele>130.19999694824</ele>
        <time>2016-02-06T20:19:50.000Z</time>
      </trkpt>
      <trkpt lat="43.66915" lon="1.18131">
        <ele>130.39999389648</ele>
        <time>2016-02-06T20:19:55.000Z</time>
      </trkpt>
      <trkpt lat="43.66904" lon="1.18125">
        <ele>130.80000305176</ele>
        <time>2016-02-06T20:19:59.000Z</time>
      </trkpt>
      <trkpt lat="43.66888" lon="1.18113">
        <ele>131.19999694824</ele>
        <time>2016-02-06T20:20:05.000Z</time>
      </trkpt>
      <trkpt lat="43.66874" lon="1.18106">
        <ele>131.39999389648</ele>
        <time>2016-02-06T20:20:10.000Z</time>
      </trkpt>
      <trkpt lat="43.66855" lon="1.18095">
        <ele>131.80000305176</ele>
        <time>2016-02-06T20:20:17.000Z</time>
      </trkpt>
      <trkpt lat="43.66839" lon="1.18086">
        <ele>131.60000610352</ele>
        <time>2016-02-06T20:20:23.000Z</time>
      </trkpt>
      <trkpt lat="43.66821" lon="1.18075">
        <ele>131.39999389648</ele>
        <time>2016-02-06T20:20:30.000Z</time>
      </trkpt>
      <trkpt lat="43.66806" lon="1.18065">
        <ele>131.19999694824</ele>
        <time>2016-02-06T20:20:36.000Z</time>
      </trkpt>
      <trkpt lat="43.66796" lon="1.18058">
        <ele>131</ele>
        <time>2016-02-06T20:20:40.000Z</time>
      </trkpt>
      <trkpt lat="43.66791" lon="1.18054">
        <ele>130.80000305176</ele>
        <time>2016-02-06T20:20:42.000Z</time>
      </trkpt>
      <trkpt lat="43.66778" lon="1.18044">
        <ele>130.60000610352</ele>
        <time>2016-02-06T20:20:47.000Z</time>
      </trkpt>
      <trkpt lat="43.66764" lon="1.18031">
        <ele>130.39999389648</ele>
        <time>2016-02-06T20:20:53.000Z</time>
      </trkpt>
      <trkpt lat="43.66746" lon="1.18018">
        <ele>130.60000610352</ele>
        <time>2016-02-06T20:21:00.000Z</time>
      </trkpt>
      <trkpt lat="43.66731" lon="1.18007">
        <ele>130.60000610352</ele>
        <time>2016-02-06T20:21:06.000Z</time>
      </trkpt>
      <trkpt lat="43.66715" lon="1.17993">
        <ele>130.80000305176</ele>
        <time>2016-02-06T20:21:13.000Z</time>
      </trkpt>
      <trkpt lat="43.66699" lon="1.17978">
        <ele>131</ele>
        <time>2016-02-06T20:21:20.000Z</time>
      </trkpt>
      <trkpt lat="43.66687" lon="1.17968">
        <ele>131.19999694824</ele>
        <time>2016-02-06T20:21:25.000Z</time>
      </trkpt>
      <trkpt lat="43.66685" lon="1.17967">
        <ele>131.19999694824</ele>
        <time>2016-02-06T20:21:26.000Z</time>
      </trkpt>
      <trkpt lat="43.66679" lon="1.17975">
        <ele>130.80000305176</ele>
        <time>2016-02-06T20:21:29.000Z</time>
      </trkpt>
      <trkpt lat="43.66678" lon="1.17979">
        <ele>130.60000610352</ele>
        <time>2016-02-06T20:21:30.000Z</time>
      </trkpt>
      <trkpt lat="43.66671" lon="1.18006">
        <ele>129.39999389648</ele>
        <time>2016-02-06T20:21:37.000Z</time>
      </trkpt>
      <trkpt lat="43.66665" lon="1.18031">
        <ele>128.39999389648</ele>
        <time>2016-02-06T20:21:44.000Z</time>
      </trkpt>
      <trkpt lat="43.66658" lon="1.18056">
        <ele>127.80000305176</ele>
        <time>2016-02-06T20:21:51.000Z</time>
      </trkpt>
      <trkpt lat="43.66652" lon="1.18076">
        <ele>128</ele>
        <time>2016-02-06T20:21:57.000Z</time>
      </trkpt>
      <trkpt lat="43.6665" lon="1.18083">
        <ele>128</ele>
        <time>2016-02-06T20:21:59.000Z</time>
      </trkpt>
      <trkpt lat="43.66644" lon="1.18101">
        <ele>128.39999389648</ele>
        <time>2016-02-06T20:22:04.000Z</time>
      </trkpt>
      <trkpt lat="43.66641" lon="1.1812">
        <ele>128.60000610352</ele>
        <time>2016-02-06T20:22:09.000Z</time>
      </trkpt>
      <trkpt lat="43.66636" lon="1.18139">
        <ele>128.80000305176</ele>
        <time>2016-02-06T20:22:15.000Z</time>
      </trkpt>
      <trkpt lat="43.6663" lon="1.18154">
        <ele>128.60000610352</ele>
        <time>2016-02-06T20:22:20.000Z</time>
      </trkpt>
      <trkpt lat="43.66624" lon="1.18177">
        <ele>128.19999694824</ele>
        <time>2016-02-06T20:22:26.000Z</time>
      </trkpt>
      <trkpt lat="43.66623" lon="1.18204">
        <ele>128.19999694824</ele>
        <time>2016-02-06T20:22:33.000Z</time>
      </trkpt>
      <trkpt lat="43.66623" lon="1.18233">
        <ele>128.19999694824</ele>
        <time>2016-02-06T20:22:40.000Z</time>
      </trkpt>
      <trkpt lat="43.6662" lon="1.18254">
        <ele>128.39999389648</ele>
        <time>2016-02-06T20:22:46.000Z</time>
      </trkpt>
      <trkpt lat="43.66618" lon="1.18281">
        <ele>129</ele>
        <time>2016-02-06T20:22:53.000Z</time>
      </trkpt>
      <trkpt lat="43.66617" lon="1.18308">
        <ele>129.80000305176</ele>
        <time>2016-02-06T20:23:00.000Z</time>
      </trkpt>
      <trkpt lat="43.66622" lon="1.18331">
        <ele>129.60000610352</ele>
        <time>2016-02-06T20:23:07.000Z</time>
      </trkpt>
      <trkpt lat="43.66632" lon="1.1834">
        <ele>129.19999694824</ele>
        <time>2016-02-06T20:23:13.000Z</time>
      </trkpt>
      <trkpt lat="43.66634" lon="1.18343">
        <ele>129.19999694824</ele>
        <time>2016-02-06T20:23:14.000Z</time>
      </trkpt>
      <trkpt lat="43.66647" lon="1.18352">
        <ele>129</ele>
        <time>2016-02-06T20:23:20.000Z</time>
      </trkpt>
      <trkpt lat="43.66649" lon="1.18353">
        <ele>129</ele>
        <time>2016-02-06T20:23:21.000Z</time>
      </trkpt>
      <trkpt lat="43.6665" lon="1.18382">
        <ele>128.60000610352</ele>
        <time>2016-02-06T20:23:29.000Z</time>
      </trkpt>
      <trkpt lat="43.66652" lon="1.18402">
        <ele>128.39999389648</ele>
        <time>2016-02-06T20:23:35.000Z</time>
      </trkpt>
      <trkpt lat="43.66659" lon="1.1842">
        <ele>128.39999389648</ele>
        <time>2016-02-06T20:23:41.000Z</time>
      </trkpt>
      <trkpt lat="43.66672" lon="1.18438">
        <ele>128.19999694824</ele>
        <time>2016-02-06T20:23:48.000Z</time>
      </trkpt>
      <trkpt lat="43.66681" lon="1.18451">
        <ele>128</ele>
        <time>2016-02-06T20:23:53.000Z</time>
      </trkpt>
      <trkpt lat="43.6669" lon="1.18468">
        <ele>127.80000305176</ele>
        <time>2016-02-06T20:23:59.000Z</time>
      </trkpt>
      <trkpt lat="43.66697" lon="1.18485">
        <ele>127.80000305176</ele>
        <time>2016-02-06T20:24:04.000Z</time>
      </trkpt>
      <trkpt lat="43.66702" lon="1.18504">
        <ele>127.80000305176</ele>
        <time>2016-02-06T20:24:10.000Z</time>
      </trkpt>
      <trkpt lat="43.66707" lon="1.18522">
        <ele>127.80000305176</ele>
        <time>2016-02-06T20:24:16.000Z</time>
      </trkpt>
      <trkpt lat="43.66708" lon="1.18536">
        <ele>127.80000305176</ele>
        <time>2016-02-06T20:24:20.000Z</time>
      </trkpt>
      <trkpt lat="43.66706" lon="1.18557">
        <ele>127.80000305176</ele>
        <time>2016-02-06T20:24:26.000Z</time>
      </trkpt>
      <trkpt lat="43.66699" lon="1.18577">
        <ele>128</ele>
        <time>2016-02-06T20:24:32.000Z</time>
      </trkpt>
      <trkpt lat="43.66689" lon="1.18592">
        <ele>129</ele>
        <time>2016-02-06T20:24:38.000Z</time>
      </trkpt>
      <trkpt lat="43.66683" lon="1.186">
        <ele>129.39999389648</ele>
        <time>2016-02-06T20:24:42.000Z</time>
      </trkpt>
      <trkpt lat="43.66676" lon="1.18613">
        <ele>130.19999694824</ele>
        <time>2016-02-06T20:24:48.000Z</time>
      </trkpt>
      <trkpt lat="43.66666" lon="1.18624">
        <ele>130.80000305176</ele>
        <time>2016-02-06T20:24:53.000Z</time>
      </trkpt>
      <trkpt lat="43.66655" lon="1.18632">
        <ele>131</ele>
        <time>2016-02-06T20:24:58.000Z</time>
      </trkpt>
      <trkpt lat="43.66642" lon="1.18641">
        <ele>131.39999389648</ele>
        <time>2016-02-06T20:25:04.000Z</time>
      </trkpt>
      <trkpt lat="43.66631" lon="1.18656">
        <ele>131.80000305176</ele>
        <time>2016-02-06T20:25:10.000Z</time>
      </trkpt>
      <trkpt lat="43.6662" lon="1.18676">
        <ele>131.39999389648</ele>
        <time>2016-02-06T20:25:17.000Z</time>
      </trkpt>
      <trkpt lat="43.66609" lon="1.18696">
        <ele>130.39999389648</ele>
        <time>2016-02-06T20:25:24.000Z</time>
      </trkpt>
      <trkpt lat="43.666" lon="1.18718">
        <ele>129.19999694824</ele>
        <time>2016-02-06T20:25:31.000Z</time>
      </trkpt>
      <trkpt lat="43.66598" lon="1.18728">
        <ele>129</ele>
        <time>2016-02-06T20:25:34.000Z</time>
      </trkpt>
      <trkpt lat="43.66609" lon="1.18741">
        <ele>129</ele>
        <time>2016-02-06T20:25:40.000Z</time>
      </trkpt>
      <trkpt lat="43.66611" lon="1.18743">
        <ele>129</ele>
        <time>2016-02-06T20:25:41.000Z</time>
      </trkpt>
      <trkpt lat="43.66625" lon="1.18754">
        <ele>129</ele>
        <time>2016-02-06T20:25:47.000Z</time>
      </trkpt>
      <trkpt lat="43.66637" lon="1.18759">
        <ele>129.19999694824</ele>
        <time>2016-02-06T20:25:52.000Z</time>
      </trkpt>
      <trkpt lat="43.66649" lon="1.18764">
        <ele>129.39999389648</ele>
        <time>2016-02-06T20:25:57.000Z</time>
      </trkpt>
      <trkpt lat="43.66662" lon="1.18773">
        <ele>129.60000610352</ele>
        <time>2016-02-06T20:26:03.000Z</time>
      </trkpt>
      <trkpt lat="43.66679" lon="1.18787">
        <ele>129.60000610352</ele>
        <time>2016-02-06T20:26:10.000Z</time>
      </trkpt>
      <trkpt lat="43.66693" lon="1.18798">
        <ele>129.39999389648</ele>
        <time>2016-02-06T20:26:16.000Z</time>
      </trkpt>
      <trkpt lat="43.66706" lon="1.18811">
        <ele>128.60000610352</ele>
        <time>2016-02-06T20:26:22.000Z</time>
      </trkpt>
      <trkpt lat="43.66718" lon="1.18822">
        <ele>128.19999694824</ele>
        <time>2016-02-06T20:26:28.000Z</time>
      </trkpt>
      <trkpt lat="43.6673" lon="1.18838">
        <ele>128</ele>
        <time>2016-02-06T20:26:34.000Z</time>
      </trkpt>
      <trkpt lat="43.6674" lon="1.18852">
        <ele>127.59999847412</ele>
        <time>2016-02-06T20:26:39.000Z</time>
      </trkpt>
      <trkpt lat="43.66753" lon="1.1887">
        <ele>127.40000152588</ele>
        <time>2016-02-06T20:26:45.000Z</time>
      </trkpt>
      <trkpt lat="43.66765" lon="1.18886">
        <ele>127.19999694824</ele>
        <time>2016-02-06T20:26:51.000Z</time>
      </trkpt>
      <trkpt lat="43.66779" lon="1.18906">
        <ele>127</ele>
        <time>2016-02-06T20:26:58.000Z</time>
      </trkpt>
      <trkpt lat="43.66787" lon="1.18918">
        <ele>127</ele>
        <time>2016-02-06T20:27:02.000Z</time>
      </trkpt>
      <trkpt lat="43.66797" lon="1.18932">
        <ele>127</ele>
        <time>2016-02-06T20:27:07.000Z</time>
      </trkpt>
      <trkpt lat="43.66808" lon="1.18949">
        <ele>127</ele>
        <time>2016-02-06T20:27:13.000Z</time>
      </trkpt>
      <trkpt lat="43.66816" lon="1.18961">
        <ele>127</ele>
        <time>2016-02-06T20:27:17.000Z</time>
      </trkpt>
      <trkpt lat="43.6683" lon="1.18979">
        <ele>127</ele>
        <time>2016-02-06T20:27:23.000Z</time>
      </trkpt>
      <trkpt lat="43.66832" lon="1.18982">
        <ele>127</ele>
        <time>2016-02-06T20:27:24.000Z</time>
      </trkpt>
      <trkpt lat="43.66843" lon="1.19">
        <ele>126.40000152588</ele>
        <time>2016-02-06T20:27:30.000Z</time>
      </trkpt>
      <trkpt lat="43.66858" lon="1.1902">
        <ele>126</ele>
        <time>2016-02-06T20:27:36.000Z</time>
      </trkpt>
      <trkpt lat="43.66862" lon="1.19039">
        <ele>125.59999847412</ele>
        <time>2016-02-06T20:27:41.000Z</time>
      </trkpt>
      <trkpt lat="43.66857" lon="1.19058">
        <ele>125</ele>
        <time>2016-02-06T20:27:46.000Z</time>
      </trkpt>
      <trkpt lat="43.6685" lon="1.19074">
        <ele>125.19999694824</ele>
        <time>2016-02-06T20:27:51.000Z</time>
      </trkpt>
      <trkpt lat="43.66839" lon="1.19098">
        <ele>125.80000305176</ele>
        <time>2016-02-06T20:27:58.000Z</time>
      </trkpt>
      <trkpt lat="43.66829" lon="1.19111">
        <ele>126.40000152588</ele>
        <time>2016-02-06T20:28:03.000Z</time>
      </trkpt>
      <trkpt lat="43.66819" lon="1.1912">
        <ele>127</ele>
        <time>2016-02-06T20:28:07.000Z</time>
      </trkpt>
      <trkpt lat="43.66806" lon="1.1913">
        <ele>127.80000305176</ele>
        <time>2016-02-06T20:28:12.000Z</time>
      </trkpt>
      <trkpt lat="43.66789" lon="1.19142">
        <ele>128.80000305176</ele>
        <time>2016-02-06T20:28:19.000Z</time>
      </trkpt>
      <trkpt lat="43.66785" lon="1.19146">
        <ele>129</ele>
        <time>2016-02-06T20:28:21.000Z</time>
      </trkpt>
      <trkpt lat="43.66774" lon="1.19166">
        <ele>130</ele>
        <time>2016-02-06T20:28:27.000Z</time>
      </trkpt>
      <trkpt lat="43.66772" lon="1.19168">
        <ele>130.19999694824</ele>
        <time>2016-02-06T20:28:28.000Z</time>
      </trkpt>
      <trkpt lat="43.66755" lon="1.19184">
        <ele>131.19999694824</ele>
        <time>2016-02-06T20:28:35.000Z</time>
      </trkpt>
      <trkpt lat="43.66739" lon="1.19201">
        <ele>132</ele>
        <time>2016-02-06T20:28:42.000Z</time>
      </trkpt>
      <trkpt lat="43.6673" lon="1.19215">
        <ele>131.80000305176</ele>
        <time>2016-02-06T20:28:46.000Z</time>
      </trkpt>
      <trkpt lat="43.66736" lon="1.19229">
        <ele>131.39999389648</ele>
        <time>2016-02-06T20:28:50.000Z</time>
      </trkpt>
      <trkpt lat="43.66739" lon="1.19231">
        <ele>131.60000610352</ele>
        <time>2016-02-06T20:28:51.000Z</time>
      </trkpt>
      <trkpt lat="43.66754" lon="1.19249">
        <ele>132.19999694824</ele>
        <time>2016-02-06T20:28:57.000Z</time>
      </trkpt>
      <trkpt lat="43.66756" lon="1.19251">
        <ele>132.19999694824</ele>
        <time>2016-02-06T20:28:58.000Z</time>
      </trkpt>
      <trkpt lat="43.66759" lon="1.19261">
        <ele>132.60000610352</ele>
        <time>2016-02-06T20:29:01.000Z</time>
      </trkpt>
      <trkpt lat="43.66753" lon="1.19277">
        <ele>133.60000610352</ele>
        <time>2016-02-06T20:29:05.000Z</time>
      </trkpt>
      <trkpt lat="43.66746" lon="1.19295">
        <ele>134.60000610352</ele>
        <time>2016-02-06T20:29:11.000Z</time>
      </trkpt>
      <trkpt lat="43.66734" lon="1.19318">
        <ele>135.19999694824</ele>
        <time>2016-02-06T20:29:18.000Z</time>
      </trkpt>
      <trkpt lat="43.66723" lon="1.19339">
        <ele>135</ele>
        <time>2016-02-06T20:29:24.000Z</time>
      </trkpt>
      <trkpt lat="43.66715" lon="1.19353">
        <ele>135.19999694824</ele>
        <time>2016-02-06T20:29:29.000Z</time>
      </trkpt>
      <trkpt lat="43.66705" lon="1.1937">
        <ele>135.80000305176</ele>
        <time>2016-02-06T20:29:34.000Z</time>
      </trkpt>
      <trkpt lat="43.66693" lon="1.19392">
        <ele>136.60000610352</ele>
        <time>2016-02-06T20:29:40.000Z</time>
      </trkpt>
      <trkpt lat="43.6669" lon="1.19395">
        <ele>136.80000305176</ele>
        <time>2016-02-06T20:29:41.000Z</time>
      </trkpt>
      <trkpt lat="43.66681" lon="1.19402">
        <ele>137.19999694824</ele>
        <time>2016-02-06T20:29:45.000Z</time>
      </trkpt>
      <trkpt lat="43.66677" lon="1.19405">
        <ele>137.19999694824</ele>
        <time>2016-02-06T20:29:48.000Z</time>
      </trkpt>
    </trkseg>
  </trk>
</gpx>